Missouri River (Missouri), Jefferson City (06910450)

StateMissouriLatestUnknown (47700 cfs)
RiverMissouri RiverRatingObservedEstimated
Updated2021-03-03 13:45 (30 minutes ago)Flood - The river is flooding. Obstacles can be treacherous or deadly. The river should be avoided at this stage for casual trips and definitely for the inexperienced. Trips should be attempted only with protective gear and equipment.Flood(none)(none)
Discharge47700 cfs (median: 60300 cfs)High - The river is high and potentially dangerous, especially for the young and / or inexperienced. Normal stream obstacles are sometimes difficult to navigate. Extended distances can be attempted, but canoe travel may not be advisable.High(none)(none)
Height7.37 feetGood - Conditions are ideal for a canoe or kayak. Boats typically will drag on fewer than one-quarter of riffles, if at all, and portages are unnecessary or rare. Normal float lengths can be attempted without a problem.Good(none)(none)
TrendFalling (falling over 24 hours)Low - River is low but can still be floated. Some riffles are okay but most come with significant dragging and might need a portage. Float lengths should be reduced to accommodate low flow, dragging, and portages.Low(none)(none)
USGSExternal icon USGS Site (External icon Google Maps)Poor - River is too low to float comfortably. Most or all riffles will drag or must be portaged and some obstacles (such as slick shelf rock) cause undue problems. Avoid the river at this stage for casual paddling trips.Poor(none)(none)

Trending Data

Plot Image

Trips for Missouri River (Missouri), Jefferson City (06910450)

DateStartEndDistanceConditionDischargeHeightFishingDetails

A total of 0 rows are displayed.

Condition Descriptions

Fishing Conditions

Fish Species

Notes

Classic Trip List

The classic River Trips application is still available for use. It is updated with the new system using a data retrofit. It is no longer maintained. The original River Trips application is no longer updated (as of 1 Dec 2016) but can be checked for errors or for the condition of the data before it was converted to the new system.

Gauge Data Table

ObservationHeightDischargeMaximum
Discharge
Minimum
Discharge
Mean
Discharge
P05P10P20P25P50
(Median)
P75P80P90P95
2021-03-03 13:45 7.37 47700 84900 (2020) 38700 (2015) 60600 41200 43400 60300 77000 80700
2021-03-03 12:45 7.43 48000 84900 (2020) 38700 (2015) 60600 41200 43400 60300 77000 80700
2021-03-03 11:45 7.42 47900 84900 (2020) 38700 (2015) 60600 41200 43400 60300 77000 80700
2021-03-03 10:45 7.45 48100 84900 (2020) 38700 (2015) 60600 41200 43400 60300 77000 80700
2021-03-03 09:45 7.43 48000 84900 (2020) 38700 (2015) 60600 41200 43400 60300 77000 80700
2021-03-03 08:45 7.46 48100 84900 (2020) 38700 (2015) 60600 41200 43400 60300 77000 80700
2021-03-03 07:45 7.45 48100 84900 (2020) 38700 (2015) 60600 41200 43400 60300 77000 80700
2021-03-03 06:45 7.49 48300 84900 (2020) 38700 (2015) 60600 41200 43400 60300 77000 80700
2021-03-03 05:45 7.49 48300 84900 (2020) 38700 (2015) 60600 41200 43400 60300 77000 80700
2021-03-03 04:45 7.51 48400 84900 (2020) 38700 (2015) 60600 41200 43400 60300 77000 80700
2021-03-03 03:45 7.50 48300 84900 (2020) 38700 (2015) 60600 41200 43400 60300 77000 80700
2021-03-03 02:45 7.51 48400 84900 (2020) 38700 (2015) 60600 41200 43400 60300 77000 80700
2021-03-03 01:45 7.52 48400 84900 (2020) 38700 (2015) 60600 41200 43400 60300 77000 80700
2021-03-03 00:45 7.53 48500 84900 (2020) 38700 (2015) 60600 41200 43400 60300 77000 80700
2021-03-02 23:45 7.51 48400 85500 (2020) 40500 (2015) 62500 42200 43700 61500 82400 83900
2021-03-02 22:45 7.50 48300 85500 (2020) 40500 (2015) 62500 42200 43700 61500 82400 83900
2021-03-02 21:45 7.54 48500 85500 (2020) 40500 (2015) 62500 42200 43700 61500 82400 83900
2021-03-02 20:45 7.50 48300 85500 (2020) 40500 (2015) 62500 42200 43700 61500 82400 83900
2021-03-02 19:45 7.50 48300 85500 (2020) 40500 (2015) 62500 42200 43700 61500 82400 83900
2021-03-02 18:45 7.49 48300 85500 (2020) 40500 (2015) 62500 42200 43700 61500 82400 83900
2021-03-02 17:45 7.49 48300 85500 (2020) 40500 (2015) 62500 42200 43700 61500 82400 83900
2021-03-02 16:45 7.47 48200 85500 (2020) 40500 (2015) 62500 42200 43700 61500 82400 83900
2021-03-02 15:45 7.45 48100 85500 (2020) 40500 (2015) 62500 42200 43700 61500 82400 83900
2021-03-02 14:45 7.42 47900 85500 (2020) 40500 (2015) 62500 42200 43700 61500 82400 83900
2021-03-02 13:45 7.40 47800 85500 (2020) 40500 (2015) 62500 42200 43700 61500 82400 83900
2021-03-02 12:45 7.40 47800 85500 (2020) 40500 (2015) 62500 42200 43700 61500 82400 83900
2021-03-02 11:45 7.40 47800 85500 (2020) 40500 (2015) 62500 42200 43700 61500 82400 83900
2021-03-02 10:45 7.39 47800 85500 (2020) 40500 (2015) 62500 42200 43700 61500 82400 83900
2021-03-02 09:45 7.38 47700 85500 (2020) 40500 (2015) 62500 42200 43700 61500 82400 83900
2021-03-02 08:45 7.39 47800 85500 (2020) 40500 (2015) 62500 42200 43700 61500 82400 83900
2021-03-02 07:45 7.38 47700 85500 (2020) 40500 (2015) 62500 42200 43700 61500 82400 83900
2021-03-02 06:45 7.36 47600 85500 (2020) 40500 (2015) 62500 42200 43700 61500 82400 83900
2021-03-02 05:45 7.33 47500 85500 (2020) 40500 (2015) 62500 42200 43700 61500 82400 83900
2021-03-02 04:45 7.31 47400 85500 (2020) 40500 (2015) 62500 42200 43700 61500 82400 83900
2021-03-02 03:45 7.32 47400 85500 (2020) 40500 (2015) 62500 42200 43700 61500 82400 83900
2021-03-02 02:45 7.28 47200 85500 (2020) 40500 (2015) 62500 42200 43700 61500 82400 83900
2021-03-02 01:45 7.27 47200 85500 (2020) 40500 (2015) 62500 42200 43700 61500 82400 83900
2021-03-02 00:45 7.22 46900 85500 (2020) 40500 (2015) 62500 42200 43700 61500 82400 83900
2021-03-01 23:45 7.22 46900 94000 (2019) 41500 (2015) 65300 43000 44400 62300 88500 91100
2021-03-01 22:45 7.23 47000 94000 (2019) 41500 (2015) 65300 43000 44400 62300 88500 91100
2021-03-01 21:45 7.21 46900 94000 (2019) 41500 (2015) 65300 43000 44400 62300 88500 91100
2021-03-01 20:45 7.18 46800 94000 (2019) 41500 (2015) 65300 43000 44400 62300 88500 91100
2021-03-01 19:45 7.18 46800 94000 (2019) 41500 (2015) 65300 43000 44400 62300 88500 91100
2021-03-01 18:45 7.15 46600 94000 (2019) 41500 (2015) 65300 43000 44400 62300 88500 91100
2021-03-01 17:45 7.15 46600 94000 (2019) 41500 (2015) 65300 43000 44400 62300 88500 91100
2021-03-01 16:45 7.11 46400 94000 (2019) 41500 (2015) 65300 43000 44400 62300 88500 91100
2021-03-01 15:45 7.10 46400 94000 (2019) 41500 (2015) 65300 43000 44400 62300 88500 91100
2021-03-01 14:45 7.09 46300 94000 (2019) 41500 (2015) 65300 43000 44400 62300 88500 91100
2021-03-01 13:45 7.05 46100 94000 (2019) 41500 (2015) 65300 43000 44400 62300 88500 91100
2021-03-01 12:45 7.07 46200 94000 (2019) 41500 (2015) 65300 43000 44400 62300 88500 91100
2021-03-01 11:45 7.04 46100 94000 (2019) 41500 (2015) 65300 43000 44400 62300 88500 91100
2021-03-01 10:45 7.03 46000 94000 (2019) 41500 (2015) 65300 43000 44400 62300 88500 91100
2021-03-01 09:45 7.01 45900 94000 (2019) 41500 (2015) 65300 43000 44400 62300 88500 91100
2021-03-01 08:45 7.01 45900 94000 (2019) 41500 (2015) 65300 43000 44400 62300 88500 91100
2021-03-01 07:45 7.02 46000 94000 (2019) 41500 (2015) 65300 43000 44400 62300 88500 91100
2021-03-01 06:45 7.02 46000 94000 (2019) 41500 (2015) 65300 43000 44400 62300 88500 91100
2021-03-01 05:45 7.02 46000 94000 (2019) 41500 (2015) 65300 43000 44400 62300 88500 91100
2021-03-01 04:45 7.04 46100 94000 (2019) 41500 (2015) 65300 43000 44400 62300 88500 91100
2021-03-01 03:45 7.03 46000 94000 (2019) 41500 (2015) 65300 43000 44400 62300 88500 91100
2021-03-01 02:45 7.01 45900 94000 (2019) 41500 (2015) 65300 43000 44400 62300 88500 91100
2021-03-01 01:45 7.01 45900 94000 (2019) 41500 (2015) 65300 43000 44400 62300 88500 91100
2021-03-01 00:45 7.06 46200 94000 (2019) 41500 (2015) 65300 43000 44400 62300 88500 91100
2021-02-28 23:45 7.04 46100 115000 (2019) 40700 (2015) 70400 43500 46000 63500 97500 106000
2021-02-28 22:45 7.07 46200 115000 (2019) 40700 (2015) 70400 43500 46000 63500 97500 106000
2021-02-28 21:45 7.09 46300 115000 (2019) 40700 (2015) 70400 43500 46000 63500 97500 106000
2021-02-28 20:45 7.07 46200 115000 (2019) 40700 (2015) 70400 43500 46000 63500 97500 106000
2021-02-28 19:45 7.06 46200 115000 (2019) 40700 (2015) 70400 43500 46000 63500 97500 106000
2021-02-28 18:45 7.11 46400 115000 (2019) 40700 (2015) 70400 43500 46000 63500 97500 106000
2021-02-28 17:45 7.14 46600 115000 (2019) 40700 (2015) 70400 43500 46000 63500 97500 106000
2021-02-28 16:45 7.16 46700 115000 (2019) 40700 (2015) 70400 43500 46000 63500 97500 106000
2021-02-28 15:45 7.16 46700 115000 (2019) 40700 (2015) 70400 43500 46000 63500 97500 106000
2021-02-28 14:45 7.19 46800 115000 (2019) 40700 (2015) 70400 43500 46000 63500 97500 106000
2021-02-28 13:45 7.22 46900 115000 (2019) 40700 (2015) 70400 43500 46000 63500 97500 106000
2021-02-28 12:45 7.25 47100 115000 (2019) 40700 (2015) 70400 43500 46000 63500 97500 106000
2021-02-28 11:45 7.22 46900 115000 (2019) 40700 (2015) 70400 43500 46000 63500 97500 106000
2021-02-28 10:45 7.29 47300 115000 (2019) 40700 (2015) 70400 43500 46000 63500 97500 106000
2021-02-28 09:45 7.28 47200 115000 (2019) 40700 (2015) 70400 43500 46000 63500 97500 106000
2021-02-28 08:45 7.35 47600 115000 (2019) 40700 (2015) 70400 43500 46000 63500 97500 106000
2021-02-28 07:45 7.34 47500 115000 (2019) 40700 (2015) 70400 43500 46000 63500 97500 106000
2021-02-28 06:45 7.36 47600 115000 (2019) 40700 (2015) 70400 43500 46000 63500 97500 106000
2021-02-28 05:45 7.40 47800 115000 (2019) 40700 (2015) 70400 43500 46000 63500 97500 106000
2021-02-28 04:45 7.43 48000 115000 (2019) 40700 (2015) 70400 43500 46000 63500 97500 106000
2021-02-28 03:45 7.44 48000 115000 (2019) 40700 (2015) 70400 43500 46000 63500 97500 106000
2021-02-28 02:45 7.49 48300 115000 (2019) 40700 (2015) 70400 43500 46000 63500 97500 106000
2021-02-28 01:45 7.50 48300 115000 (2019) 40700 (2015) 70400 43500 46000 63500 97500 106000
2021-02-28 00:45 7.57 48700 115000 (2019) 40700 (2015) 70400 43500 46000 63500 97500 106000
2021-02-27 23:45 7.56 48600 137000 (2019) 40000 (2015) 75200 44000 47500 65500 104000 120000
2021-02-27 22:45 7.58 48700 137000 (2019) 40000 (2015) 75200 44000 47500 65500 104000 120000
2021-02-27 21:45 7.61 48900 137000 (2019) 40000 (2015) 75200 44000 47500 65500 104000 120000
2021-02-27 20:45 7.65 49100 137000 (2019) 40000 (2015) 75200 44000 47500 65500 104000 120000
2021-02-27 19:45 7.65 49100 137000 (2019) 40000 (2015) 75200 44000 47500 65500 104000 120000
2021-02-27 18:45 7.67 49200 137000 (2019) 40000 (2015) 75200 44000 47500 65500 104000 120000
2021-02-27 17:45 7.68 49300 137000 (2019) 40000 (2015) 75200 44000 47500 65500 104000 120000
2021-02-27 16:45 7.72 49500 137000 (2019) 40000 (2015) 75200 44000 47500 65500 104000 120000
2021-02-27 15:45 7.73 49500 137000 (2019) 40000 (2015) 75200 44000 47500 65500 104000 120000
2021-02-27 14:45 7.72 49500 137000 (2019) 40000 (2015) 75200 44000 47500 65500 104000 120000
2021-02-27 13:45 7.75 49600 137000 (2019) 40000 (2015) 75200 44000 47500 65500 104000 120000
2021-02-27 12:45 7.75 49600 137000 (2019) 40000 (2015) 75200 44000 47500 65500 104000 120000
2021-02-27 11:45 7.73 49500 137000 (2019) 40000 (2015) 75200 44000 47500 65500 104000 120000
2021-02-27 10:45 7.73 49500 137000 (2019) 40000 (2015) 75200 44000 47500 65500 104000 120000
2021-02-27 09:45 7.67 49200 137000 (2019) 40000 (2015) 75200 44000 47500 65500 104000 120000
2021-02-27 08:45 7.71 49400 137000 (2019) 40000 (2015) 75200 44000 47500 65500 104000 120000
2021-02-27 07:45 7.69 49300 137000 (2019) 40000 (2015) 75200 44000 47500 65500 104000 120000
2021-02-27 06:45 7.70 49400 137000 (2019) 40000 (2015) 75200 44000 47500 65500 104000 120000
2021-02-27 05:45 7.66 49200 137000 (2019) 40000 (2015) 75200 44000 47500 65500 104000 120000
2021-02-27 04:45 7.63 49000 137000 (2019) 40000 (2015) 75200 44000 47500 65500 104000 120000
2021-02-27 03:45 7.62 48900 137000 (2019) 40000 (2015) 75200 44000 47500 65500 104000 120000
2021-02-27 02:45 7.59 48800 137000 (2019) 40000 (2015) 75200 44000 47500 65500 104000 120000
2021-02-27 01:45 7.51 48400 137000 (2019) 40000 (2015) 75200 44000 47500 65500 104000 120000
2021-02-27 00:45 7.47 48200 137000 (2019) 40000 (2015) 75200 44000 47500 65500 104000 120000
2021-02-26 23:45 7.41 47900 144000 (2019) 41400 (2015) 77700 44900 48000 67600 107000 124000
2021-02-26 22:45 7.29 47300 144000 (2019) 41400 (2015) 77700 44900 48000 67600 107000 124000
2021-02-26 21:45 7.22 46900 144000 (2019) 41400 (2015) 77700 44900 48000 67600 107000 124000
2021-02-26 20:45 7.09 46300 144000 (2019) 41400 (2015) 77700 44900 48000 67600 107000 124000
2021-02-26 19:45 7.03 46000 144000 (2019) 41400 (2015) 77700 44900 48000 67600 107000 124000
2021-02-26 18:45 6.96 45700 144000 (2019) 41400 (2015) 77700 44900 48000 67600 107000 124000
2021-02-26 17:45 6.86 45200 144000 (2019) 41400 (2015) 77700 44900 48000 67600 107000 124000
2021-02-26 16:45 6.74 44600 144000 (2019) 41400 (2015) 77700 44900 48000 67600 107000 124000
2021-02-26 15:45 6.64 44200 144000 (2019) 41400 (2015) 77700 44900 48000 67600 107000 124000
2021-02-26 14:45 6.56 43800 144000 (2019) 41400 (2015) 77700 44900 48000 67600 107000 124000
2021-02-26 13:45 6.46 43300 144000 (2019) 41400 (2015) 77700 44900 48000 67600 107000 124000
2021-02-26 12:45 6.36 42900 144000 (2019) 41400 (2015) 77700 44900 48000 67600 107000 124000
2021-02-26 11:45 6.26 42400 144000 (2019) 41400 (2015) 77700 44900 48000 67600 107000 124000
2021-02-26 10:45 6.21 42200 144000 (2019) 41400 (2015) 77700 44900 48000 67600 107000 124000
2021-02-26 09:45 6.17 42000 144000 (2019) 41400 (2015) 77700 44900 48000 67600 107000 124000
2021-02-26 08:45 6.08 41600 144000 (2019) 41400 (2015) 77700 44900 48000 67600 107000 124000
2021-02-26 07:45 6.06 41500 144000 (2019) 41400 (2015) 77700 44900 48000 67600 107000 124000
2021-02-26 06:45 6.04 41400 144000 (2019) 41400 (2015) 77700 44900 48000 67600 107000 124000
2021-02-26 05:45 5.98 41200 144000 (2019) 41400 (2015) 77700 44900 48000 67600 107000 124000
2021-02-26 04:45 5.95 41000 144000 (2019) 41400 (2015) 77700 44900 48000 67600 107000 124000
2021-02-26 03:45 5.96 41100 144000 (2019) 41400 (2015) 77700 44900 48000 67600 107000 124000
2021-02-26 02:45 5.95 41000 144000 (2019) 41400 (2015) 77700 44900 48000 67600 107000 124000
2021-02-26 01:45 5.95 41000 144000 (2019) 41400 (2015) 77700 44900 48000 67600 107000 124000
2021-02-26 00:45 5.98 41200 144000 (2019) 41400 (2015) 77700 44900 48000 67600 107000 124000
2021-02-25 23:45 6.00 41200 142000 (2019) 43100 (2015) 77500 46000 48500 68400 105000 122000
2021-02-25 22:45 6.07 41600 142000 (2019) 43100 (2015) 77500 46000 48500 68400 105000 122000
2021-02-25 21:45 6.12 41800 142000 (2019) 43100 (2015) 77500 46000 48500 68400 105000 122000
2021-02-25 20:45 6.14 41900 142000 (2019) 43100 (2015) 77500 46000 48500 68400 105000 122000
2021-02-25 19:45 6.21 42200 142000 (2019) 43100 (2015) 77500 46000 48500 68400 105000 122000
2021-02-25 18:45 6.26 42400 142000 (2019) 43100 (2015) 77500 46000 48500 68400 105000 122000
2021-02-25 17:45 6.34 42800 142000 (2019) 43100 (2015) 77500 46000 48500 68400 105000 122000
2021-02-25 16:45 6.41 43100 142000 (2019) 43100 (2015) 77500 46000 48500 68400 105000 122000
2021-02-25 15:45 6.47 43400 142000 (2019) 43100 (2015) 77500 46000 48500 68400 105000 122000
2021-02-25 14:45 6.56 43800 142000 (2019) 43100 (2015) 77500 46000 48500 68400 105000 122000
2021-02-25 13:45 6.68 44300 142000 (2019) 43100 (2015) 77500 46000 48500 68400 105000 122000
2021-02-25 12:45 6.75 44700 142000 (2019) 43100 (2015) 77500 46000 48500 68400 105000 122000
2021-02-25 11:45 6.81 45000 142000 (2019) 43100 (2015) 77500 46000 48500 68400 105000 122000
2021-02-25 10:45 6.90 45400 142000 (2019) 43100 (2015) 77500 46000 48500 68400 105000 122000
2021-02-25 09:45 6.99 45800 142000 (2019) 43100 (2015) 77500 46000 48500 68400 105000 122000
2021-02-25 08:45 7.09 46300 142000 (2019) 43100 (2015) 77500 46000 48500 68400 105000 122000
2021-02-25 07:45 7.19 46800 142000 (2019) 43100 (2015) 77500 46000 48500 68400 105000 122000
2021-02-25 06:45 7.27 47200 142000 (2019) 43100 (2015) 77500 46000 48500 68400 105000 122000
2021-02-25 05:45 7.36 47600 142000 (2019) 43100 (2015) 77500 46000 48500 68400 105000 122000
2021-02-25 04:45 7.45 48100 142000 (2019) 43100 (2015) 77500 46000 48500 68400 105000 122000
2021-02-25 03:45 7.53 48500 142000 (2019) 43100 (2015) 77500 46000 48500 68400 105000 122000
2021-02-25 02:45 7.62 48900 142000 (2019) 43100 (2015) 77500 46000 48500 68400 105000 122000
2021-02-25 01:45 7.69 49300 142000 (2019) 43100 (2015) 77500 46000 48500 68400 105000 122000
2021-02-25 00:45 7.78 49800 142000 (2019) 43100 (2015) 77500 46000 48500 68400 105000 122000
2021-02-24 23:45 7.86 50200 98400 (2019) 41800 (2015) 67700 43900 45800 66900 88400 93100
2021-02-24 22:45 7.95 50700 98400 (2019) 41800 (2015) 67700 43900 45800 66900 88400 93100
2021-02-24 21:45 8.08 51300 98400 (2019) 41800 (2015) 67700 43900 45800 66900 88400 93100
2021-02-24 20:45 8.03 51100 98400 (2019) 41800 (2015) 67700 43900 45800 66900 88400 93100
2021-02-24 19:45 8.04 51100 98400 (2019) 41800 (2015) 67700 43900 45800 66900 88400 93100
2021-02-24 18:45 8.01 51000 98400 (2019) 41800 (2015) 67700 43900 45800 66900 88400 93100
2021-02-24 17:45 7.98 50800 98400 (2019) 41800 (2015) 67700 43900 45800 66900 88400 93100
2021-02-24 16:45 7.95 50700 98400 (2019) 41800 (2015) 67700 43900 45800 66900 88400 93100
2021-02-24 15:45 7.91 50400 98400 (2019) 41800 (2015) 67700 43900 45800 66900 88400 93100
2021-02-24 14:45 7.88 50300 98400 (2019) 41800 (2015) 67700 43900 45800 66900 88400 93100
2021-02-24 13:45 7.88 50300 98400 (2019) 41800 (2015) 67700 43900 45800 66900 88400 93100
2021-02-24 12:45 7.85 50100 98400 (2019) 41800 (2015) 67700 43900 45800 66900 88400 93100
2021-02-24 11:45 7.87 50200 98400 (2019) 41800 (2015) 67700 43900 45800 66900 88400 93100
2021-02-24 10:45 7.89 50300 98400 (2019) 41800 (2015) 67700 43900 45800 66900 88400 93100
2021-02-24 09:45 7.95 50700 98400 (2019) 41800 (2015) 67700 43900 45800 66900 88400 93100
2021-02-24 08:45 7.96 50700 98400 (2019) 41800 (2015) 67700 43900 45800 66900 88400 93100
2021-02-24 07:45 8.02 51000 98400 (2019) 41800 (2015) 67700 43900 45800 66900 88400 93100
2021-02-24 06:45 8.11 55800 98400 (2019) 41800 (2015) 67700 43900 45800 66900 88400 93100
2021-02-24 05:45 8.21 47900 98400 (2019) 41800 (2015) 67700 43900 45800 66900 88400 93100
2021-02-24 04:45 8.29 48300 98400 (2019) 41800 (2015) 67700 43900 45800 66900 88400 93100
2021-02-24 03:45 8.41 48900 98400 (2019) 41800 (2015) 67700 43900 45800 66900 88400 93100
2021-02-24 02:45 8.52 49500 98400 (2019) 41800 (2015) 67700 43900 45800 66900 88400 93100
2021-02-24 01:45 8.59 49900 98400 (2019) 41800 (2015) 67700 43900 45800 66900 88400 93100
2021-02-24 00:45 8.67 50300 98400 (2019) 41800 (2015) 67700 43900 45800 66900 88400 93100
2021-02-23 23:45 8.81 51000 85100 (2020) 40900 (2015) 62200 44300 47300 61200 77900 81300
2021-02-23 22:45 8.93 51700 85100 (2020) 40900 (2015) 62200 44300 47300 61200 77900 81300
2021-02-23 21:45 9.04 52200 85100 (2020) 40900 (2015) 62200 44300 47300 61200 77900 81300
2021-02-23 20:45 9.16 52900 85100 (2020) 40900 (2015) 62200 44300 47300 61200 77900 81300
2021-02-23 19:45 9.25 53400 85100 (2020) 40900 (2015) 62200 44300 47300 61200 77900 81300
2021-02-23 18:45 9.41 54300 85100 (2020) 40900 (2015) 62200 44300 47300 61200 77900 81300
2021-02-23 17:45 9.55 55000 85100 (2020) 40900 (2015) 62200 44300 47300 61200 77900 81300
2021-02-23 16:45 9.67 55700 85100 (2020) 40900 (2015) 62200 44300 47300 61200 77900 81300
2021-02-23 15:45 9.75 56200 85100 (2020) 40900 (2015) 62200 44300 47300 61200 77900 81300
2021-02-23 14:45 9.96 57400 85100 (2020) 40900 (2015) 62200 44300 47300 61200 77900 81300
2021-02-23 13:45 10.02 57700 85100 (2020) 40900 (2015) 62200 44300 47300 61200 77900 81300
2021-02-23 12:45 10.05 57900 85100 (2020) 40900 (2015) 62200 44300 47300 61200 77900 81300
2021-02-23 11:45 9.76 56200 85100 (2020) 40900 (2015) 62200 44300 47300 61200 77900 81300
2021-02-23 10:45 9.70 55900 85100 (2020) 40900 (2015) 62200 44300 47300 61200 77900 81300
2021-02-23 09:45 9.50 54700 85100 (2020) 40900 (2015) 62200 44300 47300 61200 77900 81300
2021-02-23 08:45 9.21 53200 85100 (2020) 40900 (2015) 62200 44300 47300 61200 77900 81300
2021-02-23 07:45 9.03 52200 85100 (2020) 40900 (2015) 62200 44300 47300 61200 77900 81300
2021-02-23 06:45 8.88 51400 85100 (2020) 40900 (2015) 62200 44300 47300 61200 77900 81300
2021-02-23 05:45 8.83 51100 85100 (2020) 40900 (2015) 62200 44300 47300 61200 77900 81300
2021-02-23 04:45 8.28 48300 85100 (2020) 40900 (2015) 62200 44300 47300 61200 77900 81300
2021-02-23 03:45 7.34 43700 85100 (2020) 40900 (2015) 62200 44300 47300 61200 77900 81300
2021-02-23 02:45 4.38 31600 85100 (2020) 40900 (2015) 62200 44300 47300 61200 77900 81300
2021-02-23 01:45 1.25 21800 85100 (2020) 40900 (2015) 62200 44300 47300 61200 77900 81300
2021-02-23 00:45 1.19 21700 85100 (2020) 40900 (2015) 62200 44300 47300 61200 77900 81300
2021-02-22 23:45 1.12 21500 86800 (2020) 42500 (2015) 62700 45600 48300 62500 75600 80800
2021-02-22 22:45 1.04 21300 86800 (2020) 42500 (2015) 62700 45600 48300 62500 75600 80800
2021-02-22 21:45 0.94 21000 86800 (2020) 42500 (2015) 62700 45600 48300 62500 75600 80800
2021-02-22 20:45 0.85 20800 86800 (2020) 42500 (2015) 62700 45600 48300 62500 75600 80800
2021-02-22 19:45 0.76 20600 86800 (2020) 42500 (2015) 62700 45600 48300 62500 75600 80800
2021-02-22 18:45 0.67 20300 86800 (2020) 42500 (2015) 62700 45600 48300 62500 75600 80800
2021-02-22 17:45 0.97 21100 86800 (2020) 42500 (2015) 62700 45600 48300 62500 75600 80800
2021-02-22 16:45 0.89 20900 86800 (2020) 42500 (2015) 62700 45600 48300 62500 75600 80800
2021-02-22 15:45 0.94 21000 86800 (2020) 42500 (2015) 62700 45600 48300 62500 75600 80800
2021-02-22 14:45 0.92 21000 86800 (2020) 42500 (2015) 62700 45600 48300 62500 75600 80800
2021-02-22 13:45 0.90 20900 86800 (2020) 42500 (2015) 62700 45600 48300 62500 75600 80800
2021-02-22 12:45 0.89 20900 86800 (2020) 42500 (2015) 62700 45600 48300 62500 75600 80800
2021-02-22 11:45 0.86 20800 86800 (2020) 42500 (2015) 62700 45600 48300 62500 75600 80800
2021-02-22 10:45 0.85 20800 86800 (2020) 42500 (2015) 62700 45600 48300 62500 75600 80800
2021-02-22 09:45 0.82 20700 86800 (2020) 42500 (2015) 62700 45600 48300 62500 75600 80800
2021-02-22 08:45 0.81 20700 86800 (2020) 42500 (2015) 62700 45600 48300 62500 75600 80800
2021-02-22 07:45 0.79 20600 86800 (2020) 42500 (2015) 62700 45600 48300 62500 75600 80800
2021-02-22 06:45 0.76 20600 86800 (2020) 42500 (2015) 62700 45600 48300 62500 75600 80800
2021-02-22 05:45 0.74 20500 86800 (2020) 42500 (2015) 62700 45600 48300 62500 75600 80800
2021-02-22 04:45 0.71 20400 86800 (2020) 42500 (2015) 62700 45600 48300 62500 75600 80800
2021-02-22 03:45 0.67 20300 86800 (2020) 42500 (2015) 62700 45600 48300 62500 75600 80800
2021-02-22 02:45 0.62 20200 86800 (2020) 42500 (2015) 62700 45600 48300 62500 75600 80800
2021-02-22 01:45 0.61 20200 86800 (2020) 42500 (2015) 62700 45600 48300 62500 75600 80800
2021-02-22 00:45 0.57 20100 86800 (2020) 42500 (2015) 62700 45600 48300 62500 75600 80800
2021-02-21 23:45 0.48 19900 86100 (2020) 43700 (2015) 61200 45300 46700 59800 74000 79600
2021-02-21 22:45 0.50 19900 86100 (2020) 43700 (2015) 61200 45300 46700 59800 74000 79600
2021-02-21 21:45 0.46 19800 86100 (2020) 43700 (2015) 61200 45300 46700 59800 74000 79600
2021-02-21 20:45 0.43 19700 86100 (2020) 43700 (2015) 61200 45300 46700 59800 74000 79600
2021-02-21 19:45 0.40 19700 86100 (2020) 43700 (2015) 61200 45300 46700 59800 74000 79600
2021-02-21 18:45 0.35 19500 86100 (2020) 43700 (2015) 61200 45300 46700 59800 74000 79600
2021-02-21 17:45 0.34 19500 86100 (2020) 43700 (2015) 61200 45300 46700 59800 74000 79600
2021-02-21 16:45 0.29 19400 86100 (2020) 43700 (2015) 61200 45300 46700 59800 74000 79600
2021-02-21 15:45 0.28 19400 86100 (2020) 43700 (2015) 61200 45300 46700 59800 74000 79600
2021-02-21 14:45 0.24 19300 86100 (2020) 43700 (2015) 61200 45300 46700 59800 74000 79600
2021-02-21 13:45 0.21 19200 86100 (2020) 43700 (2015) 61200 45300 46700 59800 74000 79600
2021-02-21 12:45 0.18 19100 86100 (2020) 43700 (2015) 61200 45300 46700 59800 74000 79600
2021-02-21 11:45 0.19 19200 86100 (2020) 43700 (2015) 61200 45300 46700 59800 74000 79600
2021-02-21 10:45 0.17 19100 86100 (2020) 43700 (2015) 61200 45300 46700 59800 74000 79600
2021-02-21 09:45 0.17 19100 86100 (2020) 43700 (2015) 61200 45300 46700 59800 74000 79600
2021-02-21 08:45 -0.04 18600 86100 (2020) 43700 (2015) 61200 45300 46700 59800 74000 79600
2021-02-21 07:45 -0.01 18700 86100 (2020) 43700 (2015) 61200 45300 46700 59800 74000 79600
2021-02-21 06:45 0.15 19100 86100 (2020) 43700 (2015) 61200 45300 46700 59800 74000 79600
2021-02-21 05:45 0.02 18800 86100 (2020) 43700 (2015) 61200 45300 46700 59800 74000 79600
2021-02-21 04:45 0.05 18800 86100 (2020) 43700 (2015) 61200 45300 46700 59800 74000 79600
2021-02-21 03:45 0.02 18800 86100 (2020) 43700 (2015) 61200 45300 46700 59800 74000 79600
2021-02-21 02:45 0.06 18800 86100 (2020) 43700 (2015) 61200 45300 46700 59800 74000 79600
2021-02-21 01:45 0.08 18900 86100 (2020) 43700 (2015) 61200 45300 46700 59800 74000 79600
2021-02-21 00:45 0.06 18800 86100 (2020) 43700 (2015) 61200 45300 46700 59800 74000 79600
2021-02-20 23:45 0.04 18800 82000 (2020) 36300 (2018) 58400 39200 41800 59600 72500 76900
2021-02-20 22:45 0.05 18800 82000 (2020) 36300 (2018) 58400 39200 41800 59600 72500 76900
2021-02-20 21:45 0.08 18900 82000 (2020) 36300 (2018) 58400 39200 41800 59600 72500 76900
2021-02-20 20:45 0.05 18800 82000 (2020) 36300 (2018) 58400 39200 41800 59600 72500 76900
2021-02-20 19:45 -0.12 18400 82000 (2020) 36300 (2018) 58400 39200 41800 59600 72500 76900
2021-02-20 18:45 0.07 18900 82000 (2020) 36300 (2018) 58400 39200 41800 59600 72500 76900
2021-02-20 17:45 0.08 18900 82000 (2020) 36300 (2018) 58400 39200 41800 59600 72500 76900
2021-02-20 16:45 0.06 18800 82000 (2020) 36300 (2018) 58400 39200 41800 59600 72500 76900
2021-02-20 15:45 18700 82000 (2020) 36300 (2018) 58400 39200 41800 59600 72500 76900
2021-02-20 14:45 0.01 18700 82000 (2020) 36300 (2018) 58400 39200 41800 59600 72500 76900
2021-02-20 13:45 -0.28 18100 82000 (2020) 36300 (2018) 58400 39200 41800 59600 72500 76900
2021-02-20 12:45 -0.09 18500 82000 (2020) 36300 (2018) 58400 39200 41800 59600 72500 76900
2021-02-20 11:45 -0.04 18600 82000 (2020) 36300 (2018) 58400 39200 41800 59600 72500 76900
2021-02-20 10:45 -0.31 18000 82000 (2020) 36300 (2018) 58400 39200 41800 59600 72500 76900
2021-02-20 09:45 -0.31 18000 82000 (2020) 36300 (2018) 58400 39200 41800 59600 72500 76900
2021-02-20 08:45 0.01 18700 82000 (2020) 36300 (2018) 58400 39200 41800 59600 72500 76900
2021-02-20 07:45 -0.11 18400 82000 (2020) 36300 (2018) 58400 39200 41800 59600 72500 76900
2021-02-20 06:45 -0.15 18400 82000 (2020) 36300 (2018) 58400 39200 41800 59600 72500 76900
2021-02-20 05:45 -0.16 18300 82000 (2020) 36300 (2018) 58400 39200 41800 59600 72500 76900
2021-02-20 04:45 -0.07 18500 82000 (2020) 36300 (2018) 58400 39200 41800 59600 72500 76900
2021-02-20 03:45 -0.04 18600 82000 (2020) 36300 (2018) 58400 39200 41800 59600 72500 76900
2021-02-20 02:45 -0.20 18200 82000 (2020) 36300 (2018) 58400 39200 41800 59600 72500 76900
2021-02-20 01:45 -0.22 18200 82000 (2020) 36300 (2018) 58400 39200 41800 59600 72500 76900
2021-02-20 00:45 -0.34 17900 82000 (2020) 36300 (2018) 58400 39200 41800 59600 72500 76900
2021-02-19 23:45 -0.28 18100 78400 (2020) 35000 (2018) 57700 38500 41600 59200 72500 75200
2021-02-19 22:45 -0.27 18100 78400 (2020) 35000 (2018) 57700 38500 41600 59200 72500 75200
2021-02-19 21:45 -0.26 18100 78400 (2020) 35000 (2018) 57700 38500 41600 59200 72500 75200
2021-02-19 20:45 -0.26 18100 78400 (2020) 35000 (2018) 57700 38500 41600 59200 72500 75200
2021-02-19 19:45 -0.28 18100 78400 (2020) 35000 (2018) 57700 38500 41600 59200 72500 75200
2021-02-19 18:45 -0.31 18000 78400 (2020) 35000 (2018) 57700 38500 41600 59200 72500 75200
2021-02-19 17:45 -0.31 18000 78400 (2020) 35000 (2018) 57700 38500 41600 59200 72500 75200
2021-02-19 16:45 -0.34 17900 78400 (2020) 35000 (2018) 57700 38500 41600 59200 72500 75200
2021-02-19 15:45 -0.35 17900 78400 (2020) 35000 (2018) 57700 38500 41600 59200 72500 75200
2021-02-19 14:45 -0.31 18000 78400 (2020) 35000 (2018) 57700 38500 41600 59200 72500 75200
2021-02-19 13:45 -0.34 17900 78400 (2020) 35000 (2018) 57700 38500 41600 59200 72500 75200
2021-02-19 12:45 -0.33 17900 78400 (2020) 35000 (2018) 57700 38500 41600 59200 72500 75200
2021-02-19 11:45 -0.23 16300 78400 (2020) 35000 (2018) 57700 38500 41600 59200 72500 75200
2021-02-19 10:45 -0.17 16500 78400 (2020) 35000 (2018) 57700 38500 41600 59200 72500 75200
2021-02-19 09:45 -0.21 16400 78400 (2020) 35000 (2018) 57700 38500 41600 59200 72500 75200
2021-02-19 08:45 -0.14 16500 78400 (2020) 35000 (2018) 57700 38500 41600 59200 72500 75200
2021-02-19 07:45 -0.33 78400 (2020) 35000 (2018) 57700 38500 41600 59200 72500 75200
2021-02-19 06:45 -0.33 78400 (2020) 35000 (2018) 57700 38500 41600 59200 72500 75200
2021-02-19 06:30 16300 78400 (2020) 35000 (2018) 57700 38500 41600 59200 72500 75200
2021-02-19 05:45 -0.34 78400 (2020) 35000 (2018) 57700 38500 41600 59200 72500 75200
2021-02-19 05:30 16300 78400 (2020) 35000 (2018) 57700 38500 41600 59200 72500 75200
2021-02-19 04:45 -0.05 16700 78400 (2020) 35000 (2018) 57700 38500 41600 59200 72500 75200
2021-02-19 03:45 -0.17 16500 78400 (2020) 35000 (2018) 57700 38500 41600 59200 72500 75200
2021-02-19 02:45 -0.16 16500 78400 (2020) 35000 (2018) 57700 38500 41600 59200 72500 75200
2021-02-19 01:45 -0.23 16300 78400 (2020) 35000 (2018) 57700 38500 41600 59200 72500 75200
2021-02-19 00:45 -0.16 16500 78400 (2020) 35000 (2018) 57700 38500 41600 59200 72500 75200
2021-02-18 23:45 -0.13 16500 78300 (2020) 34600 (2018) 58000 38700 42300 58000 75300 76700
2021-02-18 22:45 -0.17 16500 78300 (2020) 34600 (2018) 58000 38700 42300 58000 75300 76700
2021-02-18 21:45 -0.17 16500 78300 (2020) 34600 (2018) 58000 38700 42300 58000 75300 76700
2021-02-18 20:45 -0.12 16600 78300 (2020) 34600 (2018) 58000 38700 42300 58000 75300 76700
2021-02-18 19:45 -0.18 16400 78300 (2020) 34600 (2018) 58000 38700 42300 58000 75300 76700
2021-02-18 18:45 -0.17 16500 78300 (2020) 34600 (2018) 58000 38700 42300 58000 75300 76700
2021-02-18 17:45 -0.19 16400 78300 (2020) 34600 (2018) 58000 38700 42300 58000 75300 76700
2021-02-18 16:45 -0.19 16400 78300 (2020) 34600 (2018) 58000 38700 42300 58000 75300 76700
2021-02-18 15:45 -0.23 16300 78300 (2020) 34600 (2018) 58000 38700 42300 58000 75300 76700
2021-02-18 14:45 -0.20 22200 78300 (2020) 34600 (2018) 58000 38700 42300 58000 75300 76700
2021-02-18 13:45 -0.29 21900 78300 (2020) 34600 (2018) 58000 38700 42300 58000 75300 76700
2021-02-18 12:45 -0.29 21900 78300 (2020) 34600 (2018) 58000 38700 42300 58000 75300 76700
2021-02-18 11:45 -0.29 21900 78300 (2020) 34600 (2018) 58000 38700 42300 58000 75300 76700
2021-02-18 10:45 -0.20 22200 78300 (2020) 34600 (2018) 58000 38700 42300 58000 75300 76700
2021-02-18 09:45 -0.16 22300 78300 (2020) 34600 (2018) 58000 38700 42300 58000 75300 76700
2021-02-18 08:45 -0.27 22000 78300 (2020) 34600 (2018) 58000 38700 42300 58000 75300 76700
2021-02-17 12:45 81200 (2019) 35200 (2018) 58600 40000 44100 54700 79400 80200
2021-02-17 11:30 0.11 23000 81200 (2019) 35200 (2018) 58600 40000 44100 54700 79400 80200
2021-02-17 10:45 0.22 23300 81200 (2019) 35200 (2018) 58600 40000 44100 54700 79400 80200
2021-02-17 09:45 0.30 23600 81200 (2019) 35200 (2018) 58600 40000 44100 54700 79400 80200
2021-02-17 08:45 0.40 23800 81200 (2019) 35200 (2018) 58600 40000 44100 54700 79400 80200
2021-02-17 07:45 0.46 24000 81200 (2019) 35200 (2018) 58600 40000 44100 54700 79400 80200
2021-02-17 06:45 0.50 24100 81200 (2019) 35200 (2018) 58600 40000 44100 54700 79400 80200
2021-02-17 05:45 0.46 24000 81200 (2019) 35200 (2018) 58600 40000 44100 54700 79400 80200
2021-02-17 04:45 0.47 24000 81200 (2019) 35200 (2018) 58600 40000 44100 54700 79400 80200
2021-02-17 03:45 0.66 24600 81200 (2019) 35200 (2018) 58600 40000 44100 54700 79400 80200
2021-02-17 02:45 0.94 25400 81200 (2019) 35200 (2018) 58600 40000 44100 54700 79400 80200
2021-02-17 01:45 1.28 26500 81200 (2019) 35200 (2018) 58600 40000 44100 54700 79400 80200
2021-02-17 00:45 1.74 27900 81200 (2019) 35200 (2018) 58600 40000 44100 54700 79400 80200
2021-02-16 23:45 2.31 29800 83600 (2019) 35700 (2018) 59600 38900 41600 56800 81900 82700
2021-02-16 22:45 3.61 34600 83600 (2019) 35700 (2018) 59600 38900 41600 56800 81900 82700
2021-02-16 21:45 3.88 35600 83600 (2019) 35700 (2018) 59600 38900 41600 56800 81900 82700
2021-02-16 20:45 3.86 35500 83600 (2019) 35700 (2018) 59600 38900 41600 56800 81900 82700
2021-02-16 19:45 3.92 35800 83600 (2019) 35700 (2018) 59600 38900 41600 56800 81900 82700
2021-02-16 18:45 3.97 36000 83600 (2019) 35700 (2018) 59600 38900 41600 56800 81900 82700
2021-02-16 17:45 4.02 36200 83600 (2019) 35700 (2018) 59600 38900 41600 56800 81900 82700
2021-02-16 16:45 4.07 36400 83600 (2019) 35700 (2018) 59600 38900 41600 56800 81900 82700
2021-02-16 15:45 4.00 36100 83600 (2019) 35700 (2018) 59600 38900 41600 56800 81900 82700
2021-02-16 14:45 3.73 35000 83600 (2019) 35700 (2018) 59600 38900 41600 56800 81900 82700
2021-02-16 13:45 3.59 34500 83600 (2019) 35700 (2018) 59600 38900 41600 56800 81900 82700
2021-02-16 12:45 3.70 34900 83600 (2019) 35700 (2018) 59600 38900 41600 56800 81900 82700
2021-02-16 11:45 3.82 35400 83600 (2019) 35700 (2018) 59600 38900 41600 56800 81900 82700
2021-02-16 10:45 3.83 35400 83600 (2019) 35700 (2018) 59600 38900 41600 56800 81900 82700
2021-02-16 09:45 3.84 35500 83600 (2019) 35700 (2018) 59600 38900 41600 56800 81900 82700
2021-02-16 08:45 3.49 34100 83600 (2019) 35700 (2018) 59600 38900 41600 56800 81900 82700
2021-02-16 05:45 3.27 33300 83600 (2019) 35700 (2018) 59600 38900 41600 56800 81900 82700
2021-02-16 04:45 3.81 35400 83600 (2019) 35700 (2018) 59600 38900 41600 56800 81900 82700
2021-02-16 03:45 4.03 36200 83600 (2019) 35700 (2018) 59600 38900 41600 56800 81900 82700
2021-02-16 02:45 4.14 36700 83600 (2019) 35700 (2018) 59600 38900 41600 56800 81900 82700
2021-02-16 01:45 3.34 33500 83600 (2019) 35700 (2018) 59600 38900 41600 56800 81900 82700
2021-02-16 00:45 3.01 32300 83600 (2019) 35700 (2018) 59600 38900 41600 56800 81900 82700
2021-02-15 23:45 3.48 34100 85700 (2020) 36000 (2018) 61200 39100 41800 59800 82900 84200
2021-02-15 22:45 4.26 37200 85700 (2020) 36000 (2018) 61200 39100 41800 59800 82900 84200
2021-02-15 21:45 3.61 34600 85700 (2020) 36000 (2018) 61200 39100 41800 59800 82900 84200
2021-02-15 20:45 3.41 33800 85700 (2020) 36000 (2018) 61200 39100 41800 59800 82900 84200
2021-02-15 19:45 3.52 34200 85700 (2020) 36000 (2018) 61200 39100 41800 59800 82900 84200
2021-02-15 18:45 3.66 34800 85700 (2020) 36000 (2018) 61200 39100 41800 59800 82900 84200
2021-02-15 17:45 3.83 35400 85700 (2020) 36000 (2018) 61200 39100 41800 59800 82900 84200
2021-02-15 16:45 3.84 35500 85700 (2020) 36000 (2018) 61200 39100 41800 59800 82900 84200
2021-02-15 15:45 3.78 35200 85700 (2020) 36000 (2018) 61200 39100 41800 59800 82900 84200
2021-02-15 14:45 3.75 35100 85700 (2020) 36000 (2018) 61200 39100 41800 59800 82900 84200
2021-02-15 13:45 3.62 34600 85700 (2020) 36000 (2018) 61200 39100 41800 59800 82900 84200
2021-02-15 12:45 3.41 33800 85700 (2020) 36000 (2018) 61200 39100 41800 59800 82900 84200
2021-02-15 11:45 3.48 34100 85700 (2020) 36000 (2018) 61200 39100 41800 59800 82900 84200
2021-02-15 10:45 3.63 34700 85700 (2020) 36000 (2018) 61200 39100 41800 59800 82900 84200
2021-02-15 09:45 3.63 34700 85700 (2020) 36000 (2018) 61200 39100 41800 59800 82900 84200
2021-02-15 08:45 3.35 33600 85700 (2020) 36000 (2018) 61200 39100 41800 59800 82900 84200
2021-02-15 07:45 3.48 34100 85700 (2020) 36000 (2018) 61200 39100 41800 59800 82900 84200
2021-02-15 06:45 3.70 34900 85700 (2020) 36000 (2018) 61200 39100 41800 59800 82900 84200
2021-02-15 05:45 3.71 35000 85700 (2020) 36000 (2018) 61200 39100 41800 59800 82900 84200
2021-02-15 04:45 3.58 34500 85700 (2020) 36000 (2018) 61200 39100 41800 59800 82900 84200
2021-02-15 03:45 3.62 34600 85700 (2020) 36000 (2018) 61200 39100 41800 59800 82900 84200
2021-02-15 02:45 3.73 35000 85700 (2020) 36000 (2018) 61200 39100 41800 59800 82900 84200
2021-02-15 01:45 3.57 34400 85700 (2020) 36000 (2018) 61200 39100 41800 59800 82900 84200
2021-02-15 00:45 3.69 34900 85700 (2020) 36000 (2018) 61200 39100 41800 59800 82900 84200
2021-02-14 23:45 3.97 36000 88200 (2020) 36100 (2018) 62500 39500 42500 60700 85500 86800
2021-02-14 22:45 3.66 34800 88200 (2020) 36100 (2018) 62500 39500 42500 60700 85500 86800
2021-02-14 21:45 3.61 34600 88200 (2020) 36100 (2018) 62500 39500 42500 60700 85500 86800
2021-02-14 20:45 3.80 35300 88200 (2020) 36100 (2018) 62500 39500 42500 60700 85500 86800
2021-02-14 19:45 3.74 35100 88200 (2020) 36100 (2018) 62500 39500 42500 60700 85500 86800
2021-02-14 18:45 3.68 34800 88200 (2020) 36100 (2018) 62500 39500 42500 60700 85500 86800
2021-02-14 17:45 3.69 34900 88200 (2020) 36100 (2018) 62500 39500 42500 60700 85500 86800
2021-02-14 16:45 3.86 35500 88200 (2020) 36100 (2018) 62500 39500 42500 60700 85500 86800
2021-02-14 15:45 3.93 35800 88200 (2020) 36100 (2018) 62500 39500 42500 60700 85500 86800
2021-02-14 14:45 3.72 35000 88200 (2020) 36100 (2018) 62500 39500 42500 60700 85500 86800
2021-02-14 13:45 3.53 34300 88200 (2020) 36100 (2018) 62500 39500 42500 60700 85500 86800
2021-02-14 12:45 3.59 34500 88200 (2020) 36100 (2018) 62500 39500 42500 60700 85500 86800
2021-02-14 11:45 3.65 34700 88200 (2020) 36100 (2018) 62500 39500 42500 60700 85500 86800
2021-02-14 10:45 3.74 35100 88200 (2020) 36100 (2018) 62500 39500 42500 60700 85500 86800
2021-02-14 09:45 3.59 34500 88200 (2020) 36100 (2018) 62500 39500 42500 60700 85500 86800
2021-02-14 08:45 3.59 34500 88200 (2020) 36100 (2018) 62500 39500 42500 60700 85500 86800
2021-02-14 07:45 3.83 35400 88200 (2020) 36100 (2018) 62500 39500 42500 60700 85500 86800
2021-02-14 06:45 3.84 35500 88200 (2020) 36100 (2018) 62500 39500 42500 60700 85500 86800
2021-02-14 05:45 3.86 35500 88200 (2020) 36100 (2018) 62500 39500 42500 60700 85500 86800
2021-02-14 04:45 3.75 35100 88200 (2020) 36100 (2018) 62500 39500 42500 60700 85500 86800
2021-02-14 03:45 3.78 35200 88200 (2020) 36100 (2018) 62500 39500 42500 60700 85500 86800
2021-02-14 02:45 3.71 35000 88200 (2020) 36100 (2018) 62500 39500 42500 60700 85500 86800
2021-02-14 01:45 3.76 35200 88200 (2020) 36100 (2018) 62500 39500 42500 60700 85500 86800
2021-02-14 00:45 3.76 35200 88200 (2020) 36100 (2018) 62500 39500 42500 60700 85500 86800
2021-02-13 23:45 3.77 35200 88400 (2020) 36300 (2018) 62200 39800 42900 59200 85700 87000
2021-02-13 22:45 3.78 35200 88400 (2020) 36300 (2018) 62200 39800 42900 59200 85700 87000
2021-02-13 21:45 3.82 35400 88400 (2020) 36300 (2018) 62200 39800 42900 59200 85700 87000
2021-02-13 20:45 3.85 35500 88400 (2020) 36300 (2018) 62200 39800 42900 59200 85700 87000
2021-02-13 19:45 3.87 35600 88400 (2020) 36300 (2018) 62200 39800 42900 59200 85700 87000
2021-02-13 18:45 3.89 35700 88400 (2020) 36300 (2018) 62200 39800 42900 59200 85700 87000
2021-02-13 17:45 3.91 35700 88400 (2020) 36300 (2018) 62200 39800 42900 59200 85700 87000
2021-02-13 16:45 3.88 35600 88400 (2020) 36300 (2018) 62200 39800 42900 59200 85700 87000
2021-02-13 15:45 3.89 35700 88400 (2020) 36300 (2018) 62200 39800 42900 59200 85700 87000
2021-02-13 14:45 3.90 35700 88400 (2020) 36300 (2018) 62200 39800 42900 59200 85700 87000
2021-02-13 13:45 3.90 35700 88400 (2020) 36300 (2018) 62200 39800 42900 59200 85700 87000
2021-02-13 12:45 3.87 35600 88400 (2020) 36300 (2018) 62200 39800 42900 59200 85700 87000
2021-02-13 11:45 3.89 35700 88400 (2020) 36300 (2018) 62200 39800 42900 59200 85700 87000
2021-02-13 10:45 3.89 35700 88400 (2020) 36300 (2018) 62200 39800 42900 59200 85700 87000
2021-02-13 09:45 3.91 35700 88400 (2020) 36300 (2018) 62200 39800 42900 59200 85700 87000
2021-02-13 08:45 3.92 35800 88400 (2020) 36300 (2018) 62200 39800 42900 59200 85700 87000
2021-02-13 07:45 3.91 35700 88400 (2020) 36300 (2018) 62200 39800 42900 59200 85700 87000
2021-02-13 06:45 3.92 35800 88400 (2020) 36300 (2018) 62200 39800 42900 59200 85700 87000
2021-02-13 05:45 3.96 35900 88400 (2020) 36300 (2018) 62200 39800 42900 59200 85700 87000
2021-02-13 04:45 3.94 35900 88400 (2020) 36300 (2018) 62200 39800 42900 59200 85700 87000
2021-02-13 03:45 3.96 35900 88400 (2020) 36300 (2018) 62200 39800 42900 59200 85700 87000
2021-02-13 02:45 3.95 35900 88400 (2020) 36300 (2018) 62200 39800 42900 59200 85700 87000
2021-02-13 01:45 3.95 35900 88400 (2020) 36300 (2018) 62200 39800 42900 59200 85700 87000
2021-02-13 00:45 3.97 36000 88400 (2020) 36300 (2018) 62200 39800 42900 59200 85700 87000
2021-02-12 23:45 3.98 36000 90300 (2020) 36700 (2018) 60800 40300 43400 60000 76600 83000
2021-02-12 22:45 3.98 36000 90300 (2020) 36700 (2018) 60800 40300 43400 60000 76600 83000
2021-02-12 21:45 4.00 36100 90300 (2020) 36700 (2018) 60800 40300 43400 60000 76600 83000
2021-02-12 20:45 4.02 36200 90300 (2020) 36700 (2018) 60800 40300 43400 60000 76600 83000
2021-02-12 19:45 4.03 36200 90300 (2020) 36700 (2018) 60800 40300 43400 60000 76600 83000
2021-02-12 18:45 4.04 36300 90300 (2020) 36700 (2018) 60800 40300 43400 60000 76600 83000
2021-02-12 17:45 4.07 36400 90300 (2020) 36700 (2018) 60800 40300 43400 60000 76600 83000
2021-02-12 16:45 4.07 36400 90300 (2020) 36700 (2018) 60800 40300 43400 60000 76600 83000
2021-02-12 15:45 4.09 36500 90300 (2020) 36700 (2018) 60800 40300 43400 60000 76600 83000
2021-02-12 14:45 4.11 36500 90300 (2020) 36700 (2018) 60800 40300 43400 60000 76600 83000
2021-02-12 13:45 4.11 36500 90300 (2020) 36700 (2018) 60800 40300 43400 60000 76600 83000
2021-02-12 12:45 4.15 36700 90300 (2020) 36700 (2018) 60800 40300 43400 60000 76600 83000
2021-02-12 11:45 4.13 36600 90300 (2020) 36700 (2018) 60800 40300 43400 60000 76600 83000
2021-02-12 10:45 4.14 36700 90300 (2020) 36700 (2018) 60800 40300 43400 60000 76600 83000
2021-02-12 09:45 4.16 36700 90300 (2020) 36700 (2018) 60800 40300 43400 60000 76600 83000
2021-02-12 08:45 4.18 36800 90300 (2020) 36700 (2018) 60800 40300 43400 60000 76600 83000
2021-02-12 07:45 4.19 36900 90300 (2020) 36700 (2018) 60800 40300 43400 60000 76600 83000
2021-02-12 06:45 4.20 36900 90300 (2020) 36700 (2018) 60800 40300 43400 60000 76600 83000
2021-02-12 05:45 4.23 37000 90300 (2020) 36700 (2018) 60800 40300 43400 60000 76600 83000
2021-02-12 04:45 4.25 37100 90300 (2020) 36700 (2018) 60800 40300 43400 60000 76600 83000
2021-02-12 03:45 4.27 37200 90300 (2020) 36700 (2018) 60800 40300 43400 60000 76600 83000
2021-02-12 02:45 4.27 37200 90300 (2020) 36700 (2018) 60800 40300 43400 60000 76600 83000
2021-02-12 01:45 4.27 37200 90300 (2020) 36700 (2018) 60800 40300 43400 60000 76600 83000
2021-02-12 00:45 4.28 37200 90300 (2020) 36700 (2018) 60800 40300 43400 60000 76600 83000
2021-02-11 23:45 4.29 37300 95900 (2020) 36600 (2018) 61400 40300 43600 60600 75700 85100
2021-02-11 22:45 4.32 37400 95900 (2020) 36600 (2018) 61400 40300 43600 60600 75700 85100
2021-02-11 21:45 4.34 37500 95900 (2020) 36600 (2018) 61400 40300 43600 60600 75700 85100
2021-02-11 20:45 4.35 37500 95900 (2020) 36600 (2018) 61400 40300 43600 60600 75700 85100
2021-02-11 19:45 4.37 37600 95900 (2020) 36600 (2018) 61400 40300 43600 60600 75700 85100
2021-02-11 18:45 4.39 37700 95900 (2020) 36600 (2018) 61400 40300 43600 60600 75700 85100
2021-02-11 17:45 4.41 37800 95900 (2020) 36600 (2018) 61400 40300 43600 60600 75700 85100
2021-02-11 16:45 4.41 37800 95900 (2020) 36600 (2018) 61400 40300 43600 60600 75700 85100
2021-02-11 15:45 4.46 38000 95900 (2020) 36600 (2018) 61400 40300 43600 60600 75700 85100
2021-02-11 14:45 4.46 38000 95900 (2020) 36600 (2018) 61400 40300 43600 60600 75700 85100
2021-02-11 13:45 4.47 38000 95900 (2020) 36600 (2018) 61400 40300 43600 60600 75700 85100
2021-02-11 12:45 4.49 38100 95900 (2020) 36600 (2018) 61400 40300 43600 60600 75700 85100
2021-02-11 11:45 4.50 38100 95900 (2020) 36600 (2018) 61400 40300 43600 60600 75700 85100
2021-02-11 10:45 4.52 38200 95900 (2020) 36600 (2018) 61400 40300 43600 60600 75700 85100
2021-02-11 09:45 4.53 38300 95900 (2020) 36600 (2018) 61400 40300 43600 60600 75700 85100
2021-02-11 08:45 4.54 38300 95900 (2020) 36600 (2018) 61400 40300 43600 60600 75700 85100
2021-02-11 07:45 4.55 38400 95900 (2020) 36600 (2018) 61400 40300 43600 60600 75700 85100
2021-02-11 06:45 4.57 38400 95900 (2020) 36600 (2018) 61400 40300 43600 60600 75700 85100
2021-02-11 05:45 4.57 38400 95900 (2020) 36600 (2018) 61400 40300 43600 60600 75700 85100
2021-02-11 04:45 4.59 38500 95900 (2020) 36600 (2018) 61400 40300 43600 60600 75700 85100
2021-02-11 03:45 4.59 38500 95900 (2020) 36600 (2018) 61400 40300 43600 60600 75700 85100
2021-02-11 02:45 4.61 38600 95900 (2020) 36600 (2018) 61400 40300 43600 60600 75700 85100
2021-02-11 01:45 4.60 38600 95900 (2020) 36600 (2018) 61400 40300 43600 60600 75700 85100
2021-02-11 00:45 4.63 38700 95900 (2020) 36600 (2018) 61400 40300 43600 60600 75700 85100
2021-02-10 23:45 4.63 38700 100000 (2020) 36400 (2018) 62200 39700 42500 57400 83200 91000
2021-02-10 22:45 4.64 38700 100000 (2020) 36400 (2018) 62200 39700 42500 57400 83200 91000
2021-02-10 21:45 4.63 38700 100000 (2020) 36400 (2018) 62200 39700 42500 57400 83200 91000
2021-02-10 20:45 4.64 38700 100000 (2020) 36400 (2018) 62200 39700 42500 57400 83200 91000
2021-02-10 19:45 4.65 38800 100000 (2020) 36400 (2018) 62200 39700 42500 57400 83200 91000
2021-02-10 18:45 4.66 38800 100000 (2020) 36400 (2018) 62200 39700 42500 57400 83200 91000
2021-02-10 17:45 4.66 38800 100000 (2020) 36400 (2018) 62200 39700 42500 57400 83200 91000
2021-02-10 16:45 4.68 38900 100000 (2020) 36400 (2018) 62200 39700 42500 57400 83200 91000
2021-02-10 15:45 4.69 38900 100000 (2020) 36400 (2018) 62200 39700 42500 57400 83200 91000
2021-02-10 14:45 4.69 38900 100000 (2020) 36400 (2018) 62200 39700 42500 57400 83200 91000
2021-02-10 13:45 4.71 39000 100000 (2020) 36400 (2018) 62200 39700 42500 57400 83200 91000
2021-02-10 12:45 4.72 39100 100000 (2020) 36400 (2018) 62200 39700 42500 57400 83200 91000
2021-02-10 11:45 4.72 39100 100000 (2020) 36400 (2018) 62200 39700 42500 57400 83200 91000
2021-02-10 10:45 4.73 39100 100000 (2020) 36400 (2018) 62200 39700 42500 57400 83200 91000
2021-02-10 09:45 4.73 39100 100000 (2020) 36400 (2018) 62200 39700 42500 57400 83200 91000
2021-02-10 08:45 4.74 39200 100000 (2020) 36400 (2018) 62200 39700 42500 57400 83200 91000
2021-02-10 07:45 4.75 39200 100000 (2020) 36400 (2018) 62200 39700 42500 57400 83200 91000
2021-02-10 06:45 4.75 39200 100000 (2020) 36400 (2018) 62200 39700 42500 57400 83200 91000
2021-02-10 05:45 4.76 39200 100000 (2020) 36400 (2018) 62200 39700 42500 57400 83200 91000
2021-02-10 04:45 4.76 39200 100000 (2020) 36400 (2018) 62200 39700 42500 57400 83200 91000
2021-02-10 03:45 4.77 39300 100000 (2020) 36400 (2018) 62200 39700 42500 57400 83200 91000
2021-02-10 02:45 4.79 39400 100000 (2020) 36400 (2018) 62200 39700 42500 57400 83200 91000
2021-02-10 01:45 4.75 39200 100000 (2020) 36400 (2018) 62200 39700 42500 57400 83200 91000
2021-02-10 00:45 4.79 39400 100000 (2020) 36400 (2018) 62200 39700 42500 57400 83200 91000
2021-02-09 23:45 4.80 39400 101000 (2020) 37000 (2018) 64900 38300 39500 58300 96400 98500
2021-02-09 22:45 4.79 39400 101000 (2020) 37000 (2018) 64900 38300 39500 58300 96400 98500
2021-02-09 21:45 4.81 39500 101000 (2020) 37000 (2018) 64900 38300 39500 58300 96400 98500
2021-02-09 20:45 4.81 39500 101000 (2020) 37000 (2018) 64900 38300 39500 58300 96400 98500
2021-02-09 19:45 4.83 39500 101000 (2020) 37000 (2018) 64900 38300 39500 58300 96400 98500
2021-02-09 18:45 4.85 39600 101000 (2020) 37000 (2018) 64900 38300 39500 58300 96400 98500
2021-02-09 17:45 4.86 39700 101000 (2020) 37000 (2018) 64900 38300 39500 58300 96400 98500
2021-02-09 16:45 4.90 39800 101000 (2020) 37000 (2018) 64900 38300 39500 58300 96400 98500
2021-02-09 15:45 4.93 40000 101000 (2020) 37000 (2018) 64900 38300 39500 58300 96400 98500
2021-02-09 14:45 4.93 40000 101000 (2020) 37000 (2018) 64900 38300 39500 58300 96400 98500
2021-02-09 13:45 4.96 40100 101000 (2020) 37000 (2018) 64900 38300 39500 58300 96400 98500
2021-02-09 12:45 4.99 40200 101000 (2020) 37000 (2018) 64900 38300 39500 58300 96400 98500
2021-02-09 11:45 5.01 40300 101000 (2020) 37000 (2018) 64900 38300 39500 58300 96400 98500
2021-02-09 10:45 5.01 40300 101000 (2020) 37000 (2018) 64900 38300 39500 58300 96400 98500
2021-02-09 09:45 5.05 40500 101000 (2020) 37000 (2018) 64900 38300 39500 58300 96400 98500
2021-02-09 08:45 5.09 40700 101000 (2020) 37000 (2018) 64900 38300 39500 58300 96400 98500
2021-02-09 07:45 5.09 40700 101000 (2020) 37000 (2018) 64900 38300 39500 58300 96400 98500
2021-02-09 06:45 5.10 40700 101000 (2020) 37000 (2018) 64900 38300 39500 58300 96400 98500
2021-02-09 05:45 5.14 40900 101000 (2020) 37000 (2018) 64900 38300 39500 58300 96400 98500
2021-02-09 04:45 5.17 41000 101000 (2020) 37000 (2018) 64900 38300 39500 58300 96400 98500
2021-02-09 03:45 5.21 41200 101000 (2020) 37000 (2018) 64900 38300 39500 58300 96400 98500
2021-02-09 02:45 5.24 41300 101000 (2020) 37000 (2018) 64900 38300 39500 58300 96400 98500
2021-02-09 01:45 5.26 41400 101000 (2020) 37000 (2018) 64900 38300 39500 58300 96400 98500
2021-02-09 00:45 5.30 41600 101000 (2020) 37000 (2018) 64900 38300 39500 58300 96400 98500
2021-02-08 23:45 5.32 41700 122000 (2019) 38000 (2018) 71600 39400 40600 61200 110000 116000
2021-02-08 22:45 5.35 41800 122000 (2019) 38000 (2018) 71600 39400 40600 61200 110000 116000
2021-02-08 21:45 5.39 42000 122000 (2019) 38000 (2018) 71600 39400 40600 61200 110000 116000
2021-02-08 20:45 5.42 42100 122000 (2019) 38000 (2018) 71600 39400 40600 61200 110000 116000
2021-02-08 19:45 5.44 42200 122000 (2019) 38000 (2018) 71600 39400 40600 61200 110000 116000
2021-02-08 18:45 5.47 42400 122000 (2019) 38000 (2018) 71600 39400 40600 61200 110000 116000
2021-02-08 17:45 5.52 42600 122000 (2019) 38000 (2018) 71600 39400 40600 61200 110000 116000
2021-02-08 16:45 5.56 42800 122000 (2019) 38000 (2018) 71600 39400 40600 61200 110000 116000
2021-02-08 15:45 5.59 42900 122000 (2019) 38000 (2018) 71600 39400 40600 61200 110000 116000
2021-02-08 14:45 5.62 43000 122000 (2019) 38000 (2018) 71600 39400 40600 61200 110000 116000
2021-02-08 13:45 5.65 43200 122000 (2019) 38000 (2018) 71600 39400 40600 61200 110000 116000
2021-02-08 12:45 5.66 43200 122000 (2019) 38000 (2018) 71600 39400 40600 61200 110000 116000
2021-02-08 11:45 5.74 43600 122000 (2019) 38000 (2018) 71600 39400 40600 61200 110000 116000
2021-02-08 10:45 5.74 43600 122000 (2019) 38000 (2018) 71600 39400 40600 61200 110000 116000
2021-02-08 09:45 5.78 43800 122000 (2019) 38000 (2018) 71600 39400 40600 61200 110000 116000
2021-02-08 08:45 5.79 43800 122000 (2019) 38000 (2018) 71600 39400 40600 61200 110000 116000
2021-02-08 07:45 5.83 44000 122000 (2019) 38000 (2018) 71600 39400 40600 61200 110000 116000
2021-02-08 06:45 5.86 44200 122000 (2019) 38000 (2018) 71600 39400 40600 61200 110000 116000
2021-02-08 05:45 5.88 44300 122000 (2019) 38000 (2018) 71600 39400 40600 61200 110000 116000
2021-02-08 04:45 5.90 44300 122000 (2019) 38000 (2018) 71600 39400 40600 61200 110000 116000
2021-02-08 03:45 5.92 44400 122000 (2019) 38000 (2018) 71600 39400 40600 61200 110000 116000
2021-02-08 02:45 5.94 44500 122000 (2019) 38000 (2018) 71600 39400 40600 61200 110000 116000
2021-02-08 01:45 5.95 44600 122000 (2019) 38000 (2018) 71600 39400 40600 61200 110000 116000
2021-02-08 00:45 5.96 44600 122000 (2019) 38000 (2018) 71600 39400 40600 61200 110000 116000
2021-02-07 23:45 5.97 44700 134000 (2019) 38100 (2018) 76800 40700 43000 65600 118000 126000
2021-02-07 22:45 5.97 44700 134000 (2019) 38100 (2018) 76800 40700 43000 65600 118000 126000
2021-02-07 21:45 5.99 44800 134000 (2019) 38100 (2018) 76800 40700 43000 65600 118000 126000
2021-02-07 20:45 6.02 44900 134000 (2019) 38100 (2018) 76800 40700 43000 65600 118000 126000
2021-02-07 19:45 6.00 44800 134000 (2019) 38100 (2018) 76800 40700 43000 65600 118000 126000
2021-02-07 18:45 6.01 44900 134000 (2019) 38100 (2018) 76800 40700 43000 65600 118000 126000
2021-02-07 17:45 6.02 44900 134000 (2019) 38100 (2018) 76800 40700 43000 65600 118000 126000
2021-02-07 16:45 6.00 44800 134000 (2019) 38100 (2018) 76800 40700 43000 65600 118000 126000
2021-02-07 15:45 6.03 45000 134000 (2019) 38100 (2018) 76800 40700 43000 65600 118000 126000
2021-02-07 14:45 6.03 45000 134000 (2019) 38100 (2018) 76800 40700 43000 65600 118000 126000
2021-02-07 13:45 6.03 45000 134000 (2019) 38100 (2018) 76800 40700 43000 65600 118000 126000
2021-02-07 12:45 6.02 44900 134000 (2019) 38100 (2018) 76800 40700 43000 65600 118000 126000
2021-02-07 10:45 6.03 45000 134000 (2019) 38100 (2018) 76800 40700 43000 65600 118000 126000
2021-02-07 09:45 6.02 44900 134000 (2019) 38100 (2018) 76800 40700 43000 65600 118000 126000
2021-02-07 08:45 6.02 44900 134000 (2019) 38100 (2018) 76800 40700 43000 65600 118000 126000
2021-02-07 07:45 6.03 45000 134000 (2019) 38100 (2018) 76800 40700 43000 65600 118000 126000
2021-02-07 06:45 6.02 44900 134000 (2019) 38100 (2018) 76800 40700 43000 65600 118000 126000
2021-02-07 05:45 6.01 44900 134000 (2019) 38100 (2018) 76800 40700 43000 65600 118000 126000
2021-02-07 04:45 6.00 44800 134000 (2019) 38100 (2018) 76800 40700 43000 65600 118000 126000
2021-02-07 03:45 6.00 44800 134000 (2019) 38100 (2018) 76800 40700 43000 65600 118000 126000
2021-02-07 02:45 6.01 44900 134000 (2019) 38100 (2018) 76800 40700 43000 65600 118000 126000
2021-02-07 01:45 5.99 44800 134000 (2019) 38100 (2018) 76800 40700 43000 65600 118000 126000
2021-02-07 00:45 5.99 44800 134000 (2019) 38100 (2018) 76800 40700 43000 65600 118000 126000
2021-02-06 23:45 5.99 44800 121000 (2020) 37900 (2018) 77200 42100 45700 70100 117000 119000
2021-02-06 22:45 6.00 44800 121000 (2020) 37900 (2018) 77200 42100 45700 70100 117000 119000
2021-02-06 21:45 6.00 44800 121000 (2020) 37900 (2018) 77200 42100 45700 70100 117000 119000
2021-02-06 20:45 6.02 44900 121000 (2020) 37900 (2018) 77200 42100 45700 70100 117000 119000
2021-02-06 19:45 5.98 44700 121000 (2020) 37900 (2018) 77200 42100 45700 70100 117000 119000
2021-02-06 18:45 6.00 44800 121000 (2020) 37900 (2018) 77200 42100 45700 70100 117000 119000
2021-02-06 17:45 5.99 44800 121000 (2020) 37900 (2018) 77200 42100 45700 70100 117000 119000
2021-02-06 16:45 6.00 44800 121000 (2020) 37900 (2018) 77200 42100 45700 70100 117000 119000
2021-02-06 15:45 6.02 44900 121000 (2020) 37900 (2018) 77200 42100 45700 70100 117000 119000
2021-02-06 14:45 6.01 44900 121000 (2020) 37900 (2018) 77200 42100 45700 70100 117000 119000
2021-02-06 13:45 6.03 45000 121000 (2020) 37900 (2018) 77200 42100 45700 70100 117000 119000
2021-02-06 12:45 6.04 45000 121000 (2020) 37900 (2018) 77200 42100 45700 70100 117000 119000
2021-02-06 11:45 6.05 45100 121000 (2020) 37900 (2018) 77200 42100 45700 70100 117000 119000
2021-02-06 10:45 6.05 45100 121000 (2020) 37900 (2018) 77200 42100 45700 70100 117000 119000
2021-02-06 09:45 6.07 45200 121000 (2020) 37900 (2018) 77200 42100 45700 70100 117000 119000
2021-02-06 08:45 6.08 45200 121000 (2020) 37900 (2018) 77200 42100 45700 70100 117000 119000
2021-02-06 07:45 6.09 45300 121000 (2020) 37900 (2018) 77200 42100 45700 70100 117000 119000
2021-02-06 06:45 6.13 45400 121000 (2020) 37900 (2018) 77200 42100 45700 70100 117000 119000
2021-02-06 05:45 6.13 45400 121000 (2020) 37900 (2018) 77200 42100 45700 70100 117000 119000
2021-02-06 04:45 6.14 45500 121000 (2020) 37900 (2018) 77200 42100 45700 70100 117000 119000
2021-02-06 03:45 6.16 45600 121000 (2020) 37900 (2018) 77200 42100 45700 70100 117000 119000
2021-02-06 02:45 6.17 45600 121000 (2020) 37900 (2018) 77200 42100 45700 70100 117000 119000
2021-02-06 01:45 6.20 45800 121000 (2020) 37900 (2018) 77200 42100 45700 70100 117000 119000
2021-02-06 00:45 6.20 45800 121000 (2020) 37900 (2018) 77200 42100 45700 70100 117000 119000
2021-02-05 23:45 6.23 45900 121000 (2020) 38400 (2018) 76300 42400 45800 75200 105000 113000
2021-02-05 22:45 6.25 46000 121000 (2020) 38400 (2018) 76300 42400 45800 75200 105000 113000
2021-02-05 21:45 6.27 46100 121000 (2020) 38400 (2018) 76300 42400 45800 75200 105000 113000
2021-02-05 20:45 6.29 46200 121000 (2020) 38400 (2018) 76300 42400 45800 75200 105000 113000
2021-02-05 19:45 6.33 46400 121000 (2020) 38400 (2018) 76300 42400 45800 75200 105000 113000
2021-02-05 18:45 6.35 46500 121000 (2020) 38400 (2018) 76300 42400 45800 75200 105000 113000
2021-02-05 17:45 6.36 46600 121000 (2020) 38400 (2018) 76300 42400 45800 75200 105000 113000
2021-02-05 16:45 6.39 46700 121000 (2020) 38400 (2018) 76300 42400 45800 75200 105000 113000
2021-02-05 15:45 6.42 46800 121000 (2020) 38400 (2018) 76300 42400 45800 75200 105000 113000
2021-02-05 14:45 6.45 47000 121000 (2020) 38400 (2018) 76300 42400 45800 75200 105000 113000
2021-02-05 13:45 6.48 47100 121000 (2020) 38400 (2018) 76300 42400 45800 75200 105000 113000
2021-02-05 12:45 6.51 47300 121000 (2020) 38400 (2018) 76300 42400 45800 75200 105000 113000
2021-02-05 11:45 6.54 47400 121000 (2020) 38400 (2018) 76300 42400 45800 75200 105000 113000
2021-02-05 10:45 6.58 47600 121000 (2020) 38400 (2018) 76300 42400 45800 75200 105000 113000
2021-02-05 09:45 6.61 47800 121000 (2020) 38400 (2018) 76300 42400 45800 75200 105000 113000
2021-02-05 08:45 6.66 48000 121000 (2020) 38400 (2018) 76300 42400 45800 75200 105000 113000
2021-02-05 07:45 6.69 48200 121000 (2020) 38400 (2018) 76300 42400 45800 75200 105000 113000
2021-02-05 06:45 6.71 48300 121000 (2020) 38400 (2018) 76300 42400 45800 75200 105000 113000
2021-02-05 05:45 6.76 48500 121000 (2020) 38400 (2018) 76300 42400 45800 75200 105000 113000
2021-02-05 04:45 6.83 48900 121000 (2020) 38400 (2018) 76300 42400 45800 75200 105000 113000
2021-02-05 03:45 6.83 48900 121000 (2020) 38400 (2018) 76300 42400 45800 75200 105000 113000
2021-02-05 02:45 6.91 49300 121000 (2020) 38400 (2018) 76300 42400 45800 75200 105000 113000
2021-02-05 01:45 6.93 49400 121000 (2020) 38400 (2018) 76300 42400 45800 75200 105000 113000
2021-02-05 00:45 6.98 49700 121000 (2020) 38400 (2018) 76300 42400 45800 75200 105000 113000
2021-02-04 23:45 7.01 49800 109000 (2020) 39300 (2018) 69900 43300 46700 64500 97100 103000
2021-02-04 22:45 7.08 50200 109000 (2020) 39300 (2018) 69900 43300 46700 64500 97100 103000
2021-02-04 21:45 7.13 50400 109000 (2020) 39300 (2018) 69900 43300 46700 64500 97100 103000
2021-02-04 20:45 7.14 50500 109000 (2020) 39300 (2018) 69900 43300 46700 64500 97100 103000
2021-02-04 19:45 7.21 50900 109000 (2020) 39300 (2018) 69900 43300 46700 64500 97100 103000
2021-02-04 18:45 7.23 51000 109000 (2020) 39300 (2018) 69900 43300 46700 64500 97100 103000
2021-02-04 17:45 7.27 51200 109000 (2020) 39300 (2018) 69900 43300 46700 64500 97100 103000
2021-02-04 16:45 7.37 51700 109000 (2020) 39300 (2018) 69900 43300 46700 64500 97100 103000
2021-02-04 15:45 7.40 51900 109000 (2020) 39300 (2018) 69900 43300 46700 64500 97100 103000
2021-02-04 14:45 7.42 52000 109000 (2020) 39300 (2018) 69900 43300 46700 64500 97100 103000
2021-02-04 13:45 7.49 52300 109000 (2020) 39300 (2018) 69900 43300 46700 64500 97100 103000
2021-02-04 12:45 7.52 52500 109000 (2020) 39300 (2018) 69900 43300 46700 64500 97100 103000
2021-02-04 11:45 7.63 53100 109000 (2020) 39300 (2018) 69900 43300 46700 64500 97100 103000
2021-02-04 10:45 7.69 53400 109000 (2020) 39300 (2018) 69900 43300 46700 64500 97100 103000
2021-02-04 09:45 7.75 53800 109000 (2020) 39300 (2018) 69900 43300 46700 64500 97100 103000
2021-02-04 08:45 7.80 54000 109000 (2020) 39300 (2018) 69900 43300 46700 64500 97100 103000
2021-02-04 07:45 7.84 54300 109000 (2020) 39300 (2018) 69900 43300 46700 64500 97100 103000
2021-02-04 06:45 7.94 54800 109000 (2020) 39300 (2018) 69900 43300 46700 64500 97100 103000
2021-02-04 05:45 8.01 55200 109000 (2020) 39300 (2018) 69900 43300 46700 64500 97100 103000
2021-02-04 04:45 8.05 55400 109000 (2020) 39300 (2018) 69900 43300 46700 64500 97100 103000
2021-02-04 03:45 8.13 55900 109000 (2020) 39300 (2018) 69900 43300 46700 64500 97100 103000
2021-02-04 02:45 8.20 56300 109000 (2020) 39300 (2018) 69900 43300 46700 64500 97100 103000
2021-02-04 01:45 8.26 56600 109000 (2020) 39300 (2018) 69900 43300 46700 64500 97100 103000
2021-02-04 00:45 8.35 57100 109000 (2020) 39300 (2018) 69900 43300 46700 64500 97100 103000
2021-02-03 23:45 8.43 57600 97500 (2020) 40300 (2018) 64100 44100 47400 61400 80200 88300
2021-02-03 22:45 8.50 58000 97500 (2020) 40300 (2018) 64100 44100 47400 61400 80200 88300
2021-02-03 21:45 8.57 58400 97500 (2020) 40300 (2018) 64100 44100 47400 61400 80200 88300
2021-02-03 20:45 8.64 58800 97500 (2020) 40300 (2018) 64100 44100 47400 61400 80200 88300
2021-02-03 19:45 8.74 59400 97500 (2020) 40300 (2018) 64100 44100 47400 61400 80200 88300
2021-02-03 18:45 8.81 59800 97500 (2020) 40300 (2018) 64100 44100 47400 61400 80200 88300
2021-02-03 17:45 8.87 60200 97500 (2020) 40300 (2018) 64100 44100 47400 61400 80200 88300
2021-02-03 16:45 8.92 60500 97500 (2020) 40300 (2018) 64100 44100 47400 61400 80200 88300
2021-02-03 15:45 9.01 61000 97500 (2020) 40300 (2018) 64100 44100 47400 61400 80200 88300
2021-02-03 14:45 9.09 61500 97500 (2020) 40300 (2018) 64100 44100 47400 61400 80200 88300
2021-02-03 13:45 9.16 61900 97500 (2020) 40300 (2018) 64100 44100 47400 61400 80200 88300
2021-02-03 12:45 9.25 62500 97500 (2020) 40300 (2018) 64100 44100 47400 61400 80200 88300
2021-02-03 11:45 9.35 63100 97500 (2020) 40300 (2018) 64100 44100 47400 61400 80200 88300
2021-02-03 10:45 9.43 63600 97500 (2020) 40300 (2018) 64100 44100 47400 61400 80200 88300
2021-02-03 09:45 9.44 63700 97500 (2020) 40300 (2018) 64100 44100 47400 61400 80200 88300
2021-02-03 08:45 9.56 64400 97500 (2020) 40300 (2018) 64100 44100 47400 61400 80200 88300
2021-02-03 07:45 9.62 64800 97500 (2020) 40300 (2018) 64100 44100 47400 61400 80200 88300
2021-02-03 06:45 9.70 65300 97500 (2020) 40300 (2018) 64100 44100 47400 61400 80200 88300
2021-02-03 05:45 9.79 65900 97500 (2020) 40300 (2018) 64100 44100 47400 61400 80200 88300
2021-02-03 04:45 9.85 66300 97500 (2020) 40300 (2018) 64100 44100 47400 61400 80200 88300
2021-02-03 03:45 9.91 66700 97500 (2020) 40300 (2018) 64100 44100 47400 61400 80200 88300
2021-02-03 02:45 9.98 67100 97500 (2020) 40300 (2018) 64100 44100 47400 61400 80200 88300
2021-02-03 01:45 10.03 67500 97500 (2020) 40300 (2018) 64100 44100 47400 61400 80200 88300
2021-02-03 00:45 10.10 67900 97500 (2020) 40300 (2018) 64100 44100 47400 61400 80200 88300
2021-02-02 23:45 10.12 68100 89800 (2020) 40600 (2018) 61800 44200 47400 59600 76000 82400
2021-02-02 22:45 10.23 68800 89800 (2020) 40600 (2018) 61800 44200 47400 59600 76000 82400
2021-02-02 21:45 10.25 68900 89800 (2020) 40600 (2018) 61800 44200 47400 59600 76000 82400
2021-02-02 20:45 10.31 69300 89800 (2020) 40600 (2018) 61800 44200 47400 59600 76000 82400
2021-02-02 19:45 10.34 69500 89800 (2020) 40600 (2018) 61800 44200 47400 59600 76000 82400
2021-02-02 18:45 10.38 69800 89800 (2020) 40600 (2018) 61800 44200 47400 59600 76000 82400
2021-02-02 17:45 10.42 70100 89800 (2020) 40600 (2018) 61800 44200 47400 59600 76000 82400
2021-02-02 16:45 10.45 70300 89800 (2020) 40600 (2018) 61800 44200 47400 59600 76000 82400
2021-02-02 15:45 10.45 70300 89800 (2020) 40600 (2018) 61800 44200 47400 59600 76000 82400
2021-02-02 14:45 10.49 70500 89800 (2020) 40600 (2018) 61800 44200 47400 59600 76000 82400
2021-02-02 13:45 10.51 70700 89800 (2020) 40600 (2018) 61800 44200 47400 59600 76000 82400
2021-02-02 12:45 10.53 70800 89800 (2020) 40600 (2018) 61800 44200 47400 59600 76000 82400
2021-02-02 11:45 10.50 70600 89800 (2020) 40600 (2018) 61800 44200 47400 59600 76000 82400
2021-02-02 10:45 10.53 70800 89800 (2020) 40600 (2018) 61800 44200 47400 59600 76000 82400
2021-02-02 09:45 10.54 70900 89800 (2020) 40600 (2018) 61800 44200 47400 59600 76000 82400
2021-02-02 08:45 10.48 70500 89800 (2020) 40600 (2018) 61800 44200 47400 59600 76000 82400
2021-02-02 07:45 10.47 70400 89800 (2020) 40600 (2018) 61800 44200 47400 59600 76000 82400
2021-02-02 06:45 10.45 70300 89800 (2020) 40600 (2018) 61800 44200 47400 59600 76000 82400
2021-02-02 05:45 10.44 70200 89800 (2020) 40600 (2018) 61800 44200 47400 59600 76000 82400
2021-02-02 04:45 10.40 69900 89800 (2020) 40600 (2018) 61800 44200 47400 59600 76000 82400
2021-02-02 03:45 10.33 69500 89800 (2020) 40600 (2018) 61800 44200 47400 59600 76000 82400
2021-02-02 02:45 10.29 69200 89800 (2020) 40600 (2018) 61800 44200 47400 59600 76000 82400
2021-02-02 01:45 10.20 68600 89800 (2020) 40600 (2018) 61800 44200 47400 59600 76000 82400
2021-02-02 00:45 10.14 68200 89800 (2020) 40600 (2018) 61800 44200 47400 59600 76000 82400
2021-02-01 23:45 10.06 67700 85300 (2020) 40300 (2018) 60700 42200 43900 59300 77600 81200
2021-02-01 22:45 9.93 66800 85300 (2020) 40300 (2018) 60700 42200 43900 59300 77600 81200
2021-02-01 21:45 9.86 66400 85300 (2020) 40300 (2018) 60700 42200 43900 59300 77600 81200
2021-02-01 20:45 9.74 65600 85300 (2020) 40300 (2018) 60700 42200 43900 59300 77600 81200
2021-02-01 19:45 9.57 64500 85300 (2020) 40300 (2018) 60700 42200 43900 59300 77600 81200
2021-02-01 18:45 9.49 64000 85300 (2020) 40300 (2018) 60700 42200 43900 59300 77600 81200
2021-02-01 17:45 9.36 63200 85300 (2020) 40300 (2018) 60700 42200 43900 59300 77600 81200
2021-02-01 16:45 9.26 62600 85300 (2020) 40300 (2018) 60700 42200 43900 59300 77600 81200
2021-02-01 15:45 9.16 61900 85300 (2020) 40300 (2018) 60700 42200 43900 59300 77600 81200
2021-02-01 14:45 8.99 60900 85300 (2020) 40300 (2018) 60700 42200 43900 59300 77600 81200
2021-02-01 13:45 8.89 60300 85300 (2020) 40300 (2018) 60700 42200 43900 59300 77600 81200
2021-02-01 12:45 8.76 59500 85300 (2020) 40300 (2018) 60700 42200 43900 59300 77600 81200
2021-02-01 11:45 8.65 58900 85300 (2020) 40300 (2018) 60700 42200 43900 59300 77600 81200
2021-02-01 10:45 8.56 58300 85300 (2020) 40300 (2018) 60700 42200 43900 59300 77600 81200
2021-02-01 09:45 8.45 57700 85300 (2020) 40300 (2018) 60700 42200 43900 59300 77600 81200
2021-02-01 08:45 8.33 57000 85300 (2020) 40300 (2018) 60700 42200 43900 59300 77600 81200
2021-02-01 07:45 8.22 56400 85300 (2020) 40300 (2018) 60700 42200 43900 59300 77600 81200
2021-02-01 06:45 8.16 56000 85300 (2020) 40300 (2018) 60700 42200 43900 59300 77600 81200
2021-02-01 05:45 8.04 55400 85300 (2020) 40300 (2018) 60700 42200 43900 59300 77600 81200
2021-02-01 04:45 7.96 54900 85300 (2020) 40300 (2018) 60700 42200 43900 59300 77600 81200
2021-02-01 03:45 7.89 54500 85300 (2020) 40300 (2018) 60700 42200 43900 59300 77600 81200
2021-02-01 02:45 7.78 53900 85300 (2020) 40300 (2018) 60700 42200 43900 59300 77600 81200
2021-02-01 01:45 7.72 53600 85300 (2020) 40300 (2018) 60700 42200 43900 59300 77600 81200
2021-02-01 00:45 7.56 52700 85300 (2020) 40300 (2018) 60700 42200 43900 59300 77600 81200
2021-01-31 23:45 7.59 52900 82800 (2020) 39800 (2018) 60300 40800 41700 60100 78300 80400
2021-01-31 22:45 7.51 52500 82800 (2020) 39800 (2018) 60300 40800 41700 60100 78300 80400
2021-01-31 21:45 7.49 52300 82800 (2020) 39800 (2018) 60300 40800 41700 60100 78300 80400
2021-01-31 20:45 7.43 52000 82800 (2020) 39800 (2018) 60300 40800 41700 60100 78300 80400
2021-01-31 19:45 7.33 51500 82800 (2020) 39800 (2018) 60300 40800 41700 60100 78300 80400
2021-01-31 18:45 7.29 51300 82800 (2020) 39800 (2018) 60300 40800 41700 60100 78300 80400
2021-01-31 17:45 7.26 51100 82800 (2020) 39800 (2018) 60300 40800 41700 60100 78300 80400
2021-01-31 16:45 7.19 50800 82800 (2020) 39800 (2018) 60300 40800 41700 60100 78300 80400
2021-01-31 15:45 7.18 50700 82800 (2020) 39800 (2018) 60300 40800 41700 60100 78300 80400
2021-01-31 14:45 7.08 50200 82800 (2020) 39800 (2018) 60300 40800 41700 60100 78300 80400
2021-01-31 13:45 7.02 49900 82800 (2020) 39800 (2018) 60300 40800 41700 60100 78300 80400
2021-01-31 12:45 6.96 49600 82800 (2020) 39800 (2018) 60300 40800 41700 60100 78300 80400
2021-01-31 11:45 6.92 49400 82800 (2020) 39800 (2018) 60300 40800 41700 60100 78300 80400
2021-01-31 10:45 6.89 49200 82800 (2020) 39800 (2018) 60300 40800 41700 60100 78300 80400
2021-01-31 09:45 6.81 48800 82800 (2020) 39800 (2018) 60300 40800 41700 60100 78300 80400
2021-01-31 08:45 6.74 48400 82800 (2020) 39800 (2018) 60300 40800 41700 60100 78300 80400
2021-01-31 07:45 6.62 47800 82800 (2020) 39800 (2018) 60300 40800 41700 60100 78300 80400
2021-01-31 06:45 6.52 47300 82800 (2020) 39800 (2018) 60300 40800 41700 60100 78300 80400
2021-01-31 05:45 6.45 47000 82800 (2020) 39800 (2018) 60300 40800 41700 60100 78300 80400
2021-01-31 04:45 6.30 46300 82800 (2020) 39800 (2018) 60300 40800 41700 60100 78300 80400
2021-01-31 03:45 6.23 45900 82800 (2020) 39800 (2018) 60300 40800 41700 60100 78300 80400
2021-01-31 02:45 6.07 45200 82800 (2020) 39800 (2018) 60300 40800 41700 60100 78300 80400
2021-01-31 01:45 6.03 45000 82800 (2020) 39800 (2018) 60300 40800 41700 60100 78300 80400
2021-01-31 00:45 5.87 44200 82800 (2020) 39800 (2018) 60300 40800 41700 60100 78300 80400
2021-01-30 23:45 5.72 43500 82500 (2020) 39800 (2018) 60500 40400 41000 60500 79100 80700
2021-01-30 22:45 5.69 43400 82500 (2020) 39800 (2018) 60500 40400 41000 60500 79100 80700
2021-01-30 21:45 5.61 43000 82500 (2020) 39800 (2018) 60500 40400 41000 60500 79100 80700
2021-01-30 20:45 5.44 42200 82500 (2020) 39800 (2018) 60500 40400 41000 60500 79100 80700
2021-01-30 19:45 5.30 41600 82500 (2020) 39800 (2018) 60500 40400 41000 60500 79100 80700
2021-01-30 18:45 5.15 40900 82500 (2020) 39800 (2018) 60500 40400 41000 60500 79100 80700
2021-01-30 17:45 4.97 40100 82500 (2020) 39800 (2018) 60500 40400 41000 60500 79100 80700
2021-01-30 16:45 4.83 39500 82500 (2020) 39800 (2018) 60500 40400 41000 60500 79100 80700
2021-01-30 15:45 4.73 39100 82500 (2020) 39800 (2018) 60500 40400 41000 60500 79100 80700
2021-01-30 14:45 4.64 38700 82500 (2020) 39800 (2018) 60500 40400 41000 60500 79100 80700
2021-01-30 13:45 4.60 38600 82500 (2020) 39800 (2018) 60500 40400 41000 60500 79100 80700
2021-01-30 12:45 4.65 38800 82500 (2020) 39800 (2018) 60500 40400 41000 60500 79100 80700
2021-01-30 11:45 4.64 38700 82500 (2020) 39800 (2018) 60500 40400 41000 60500 79100 80700
2021-01-30 10:45 4.63 38700 82500 (2020) 39800 (2018) 60500 40400 41000 60500 79100 80700
2021-01-30 09:45 4.62 38600 82500 (2020) 39800 (2018) 60500 40400 41000 60500 79100 80700
2021-01-30 08:45 4.58 38500 82500 (2020) 39800 (2018) 60500 40400 41000 60500 79100 80700
2021-01-30 07:45 4.65 38800 82500 (2020) 39800 (2018) 60500 40400 41000 60500 79100 80700
2021-01-30 06:45 4.70 39000 82500 (2020) 39800 (2018) 60500 40400 41000 60500 79100 80700
2021-01-30 05:45 4.76 39200 82500 (2020) 39800 (2018) 60500 40400 41000 60500 79100 80700
2021-01-30 04:45 4.78 39300 82500 (2020) 39800 (2018) 60500 40400 41000 60500 79100 80700
2021-01-30 03:45 4.79 39400 82500 (2020) 39800 (2018) 60500 40400 41000 60500 79100 80700
2021-01-30 02:45 4.82 39500 82500 (2020) 39800 (2018) 60500 40400 41000 60500 79100 80700
2021-01-30 01:45 4.85 39600 82500 (2020) 39800 (2018) 60500 40400 41000 60500 79100 80700
2021-01-30 00:45 4.86 39700 82500 (2020) 39800 (2018) 60500 40400 41000 60500 79100 80700
2021-01-29 23:45 4.91 39900 84300 (2020) 40400 (2018) 61000 40700 40900 61300 79100 81500
2021-01-29 22:45 4.92 39900 84300 (2020) 40400 (2018) 61000 40700 40900 61300 79100 81500
2021-01-29 21:45 4.94 40000 84300 (2020) 40400 (2018) 61000 40700 40900 61300 79100 81500
2021-01-29 20:45 4.97 40100 84300 (2020) 40400 (2018) 61000 40700 40900 61300 79100 81500
2021-01-29 19:45 4.98 40200 84300 (2020) 40400 (2018) 61000 40700 40900 61300 79100 81500
2021-01-29 18:45 5.02 40400 84300 (2020) 40400 (2018) 61000 40700 40900 61300 79100 81500
2021-01-29 17:45 5.05 40500 84300 (2020) 40400 (2018) 61000 40700 40900 61300 79100 81500
2021-01-29 16:45 5.07 40600 84300 (2020) 40400 (2018) 61000 40700 40900 61300 79100 81500
2021-01-29 15:45 5.07 40600 84300 (2020) 40400 (2018) 61000 40700 40900 61300 79100 81500
2021-01-29 14:45 5.10 40700 84300 (2020) 40400 (2018) 61000 40700 40900 61300 79100 81500
2021-01-29 13:45 5.10 40700 84300 (2020) 40400 (2018) 61000 40700 40900 61300 79100 81500
2021-01-29 12:45 5.17 41000 84300 (2020) 40400 (2018) 61000 40700 40900 61300 79100 81500
2021-01-29 11:45 5.20 41200 84300 (2020) 40400 (2018) 61000 40700 40900 61300 79100 81500
2021-01-29 10:45 5.24 41300 84300 (2020) 40400 (2018) 61000 40700 40900 61300 79100 81500
2021-01-29 09:45 5.27 41500 84300 (2020) 40400 (2018) 61000 40700 40900 61300 79100 81500
2021-01-29 08:45 5.30 41600 84300 (2020) 40400 (2018) 61000 40700 40900 61300 79100 81500
2021-01-29 07:45 5.33 41700 84300 (2020) 40400 (2018) 61000 40700 40900 61300 79100 81500
2021-01-29 06:45 5.34 41800 84300 (2020) 40400 (2018) 61000 40700 40900 61300 79100 81500
2021-01-29 05:45 5.37 41900 84300 (2020) 40400 (2018) 61000 40700 40900 61300 79100 81500
2021-01-29 04:45 5.39 42000 84300 (2020) 40400 (2018) 61000 40700 40900 61300 79100 81500
2021-01-29 03:45 5.43 42200 84300 (2020) 40400 (2018) 61000 40700 40900 61300 79100 81500
2021-01-29 02:45 5.43 42200 84300 (2020) 40400 (2018) 61000 40700 40900 61300 79100 81500
2021-01-29 01:45 5.47 42400 84300 (2020) 40400 (2018) 61000 40700 40900 61300 79100 81500
2021-01-29 00:45 5.48 42400 84300 (2020) 40400 (2018) 61000 40700 40900 61300 79100 81500
2021-01-28 23:45 5.49 42500 84700 (2020) 40500 (2015) 61000 40600 40600 62500 77300 80800
2021-01-28 22:45 5.53 42600 84700 (2020) 40500 (2015) 61000 40600 40600 62500 77300 80800
2021-01-28 21:45 5.52 42600 84700 (2020) 40500 (2015) 61000 40600 40600 62500 77300 80800
2021-01-28 20:45 5.54 42700 84700 (2020) 40500 (2015) 61000 40600 40600 62500 77300 80800
2021-01-28 19:45 5.56 42800 84700 (2020) 40500 (2015) 61000 40600 40600 62500 77300 80800
2021-01-28 18:45 5.57 42800 84700 (2020) 40500 (2015) 61000 40600 40600 62500 77300 80800
2021-01-28 17:45 5.57 42800 84700 (2020) 40500 (2015) 61000 40600 40600 62500 77300 80800
2021-01-28 16:45 5.54 42700 84700 (2020) 40500 (2015) 61000 40600 40600 62500 77300 80800
2021-01-28 15:45 5.53 42600 84700 (2020) 40500 (2015) 61000 40600 40600 62500 77300 80800
2021-01-28 14:45 5.53 42600 84700 (2020) 40500 (2015) 61000 40600 40600 62500 77300 80800
2021-01-28 13:45 5.56 42800 84700 (2020) 40500 (2015) 61000 40600 40600 62500 77300 80800
2021-01-28 12:45 5.53 42600 84700 (2020) 40500 (2015) 61000 40600 40600 62500 77300 80800
2021-01-28 11:45 5.55 42700 84700 (2020) 40500 (2015) 61000 40600 40600 62500 77300 80800
2021-01-28 10:45 5.53 42600 84700 (2020) 40500 (2015) 61000 40600 40600 62500 77300 80800
2021-01-28 09:45 5.50 42500 84700 (2020) 40500 (2015) 61000 40600 40600 62500 77300 80800
2021-01-28 08:45 5.49 42500 84700 (2020) 40500 (2015) 61000 40600 40600 62500 77300 80800
2021-01-28 07:45 5.47 42400 84700 (2020) 40500 (2015) 61000 40600 40600 62500 77300 80800
2021-01-28 06:45 5.44 42200 84700 (2020) 40500 (2015) 61000 40600 40600 62500 77300 80800
2021-01-28 05:45 5.42 42100 84700 (2020) 40500 (2015) 61000 40600 40600 62500 77300 80800
2021-01-28 04:45 5.40 42000 84700 (2020) 40500 (2015) 61000 40600 40600 62500 77300 80800
2021-01-28 03:45 5.33 41700 84700 (2020) 40500 (2015) 61000 40600 40600 62500 77300 80800
2021-01-28 02:45 5.29 41600 84700 (2020) 40500 (2015) 61000 40600 40600 62500 77300 80800
2021-01-28 01:45 5.27 41500 84700 (2020) 40500 (2015) 61000 40600 40600 62500 77300 80800
2021-01-28 00:45 5.23 41300 84700 (2020) 40500 (2015) 61000 40600 40600 62500 77300 80800
2021-01-27 23:45 5.18 41100 81400 (2020) 39900 (2015) 60700 40100 40300 63200 77300 79200
2021-01-27 22:45 5.14 40900 81400 (2020) 39900 (2015) 60700 40100 40300 63200 77300 79200
2021-01-27 21:45 5.08 40600 81400 (2020) 39900 (2015) 60700 40100 40300 63200 77300 79200
2021-01-27 20:45 5.04 40500 81400 (2020) 39900 (2015) 60700 40100 40300 63200 77300 79200
2021-01-27 19:45 5.00 40300 81400 (2020) 39900 (2015) 60700 40100 40300 63200 77300 79200
2021-01-27 18:45 4.94 40000 81400 (2020) 39900 (2015) 60700 40100 40300 63200 77300 79200
2021-01-27 17:45 4.90 39800 81400 (2020) 39900 (2015) 60700 40100 40300 63200 77300 79200
2021-01-27 16:45 4.87 39700 81400 (2020) 39900 (2015) 60700 40100 40300 63200 77300 79200
2021-01-27 15:45 4.81 39500 81400 (2020) 39900 (2015) 60700 40100 40300 63200 77300 79200
2021-01-27 14:45 4.78 39300 81400 (2020) 39900 (2015) 60700 40100 40300 63200 77300 79200
2021-01-27 13:45 4.73 39100 81400 (2020) 39900 (2015) 60700 40100 40300 63200 77300 79200
2021-01-27 12:45 4.71 39000 81400 (2020) 39900 (2015) 60700 40100 40300 63200 77300 79200
2021-01-27 11:45 4.66 38800 81400 (2020) 39900 (2015) 60700 40100 40300 63200 77300 79200
2021-01-27 10:45 4.63 38700 81400 (2020) 39900 (2015) 60700 40100 40300 63200 77300 79200
2021-01-27 09:45 4.59 38500 81400 (2020) 39900 (2015) 60700 40100 40300 63200 77300 79200
2021-01-27 08:45 4.56 38400 81400 (2020) 39900 (2015) 60700 40100 40300 63200 77300 79200
2021-01-27 07:45 4.54 38300 81400 (2020) 39900 (2015) 60700 40100 40300 63200 77300 79200
2021-01-27 06:45 4.52 38200 81400 (2020) 39900 (2015) 60700 40100 40300 63200 77300 79200
2021-01-27 05:45 4.51 38200 81400 (2020) 39900 (2015) 60700 40100 40300 63200 77300 79200
2021-01-27 04:45 4.49 38100 81400 (2020) 39900 (2015) 60700 40100 40300 63200 77300 79200
2021-01-27 03:45 4.48 38100 81400 (2020) 39900 (2015) 60700 40100 40300 63200 77300 79200
2021-01-27 02:45 4.47 38000 81400 (2020) 39900 (2015) 60700 40100 40300 63200 77300 79200
2021-01-27 01:45 4.47 38000 81400 (2020) 39900 (2015) 60700 40100 40300 63200 77300 79200
2021-01-27 00:45 4.47 38000 81400 (2020) 39900 (2015) 60700 40100 40300 63200 77300 79200
2021-01-26 23:45 4.46 38000 80000 (2019) 39500 (2015) 60600 39500 39500 63100 78600 79300
2021-01-26 22:45 4.47 38000 80000 (2019) 39500 (2015) 60600 39500 39500 63100 78600 79300
2021-01-26 21:45 4.47 38000 80000 (2019) 39500 (2015) 60600 39500 39500 63100 78600 79300
2021-01-26 20:45 4.48 38100 80000 (2019) 39500 (2015) 60600 39500 39500 63100 78600 79300
2021-01-26 19:45 4.45 37900 80000 (2019) 39500 (2015) 60600 39500 39500 63100 78600 79300
2021-01-26 18:45 4.49 38100 80000 (2019) 39500 (2015) 60600 39500 39500 63100 78600 79300
2021-01-26 17:45 4.46 38000 80000 (2019) 39500 (2015) 60600 39500 39500 63100 78600 79300
2021-01-26 16:45 4.47 38000 80000 (2019) 39500 (2015) 60600 39500 39500 63100 78600 79300
2021-01-26 15:45 4.46 38000 80000 (2019) 39500 (2015) 60600 39500 39500 63100 78600 79300
2021-01-26 14:45 4.46 38000 80000 (2019) 39500 (2015) 60600 39500 39500 63100 78600 79300
2021-01-26 13:45 4.46 38000 80000 (2019) 39500 (2015) 60600 39500 39500 63100 78600 79300
2021-01-26 12:45 4.44 37900 80000 (2019) 39500 (2015) 60600 39500 39500 63100 78600 79300
2021-01-26 11:45 4.46 38000 80000 (2019) 39500 (2015) 60600 39500 39500 63100 78600 79300
2021-01-26 10:45 4.44 37900 80000 (2019) 39500 (2015) 60600 39500 39500 63100 78600 79300
2021-01-26 09:45 4.40 37700 80000 (2019) 39500 (2015) 60600 39500 39500 63100 78600 79300
2021-01-26 08:45 4.42 37800 80000 (2019) 39500 (2015) 60600 39500 39500 63100 78600 79300
2021-01-26 07:45 4.42 37800 80000 (2019) 39500 (2015) 60600 39500 39500 63100 78600 79300
2021-01-26 06:45 4.39 37700 80000 (2019) 39500 (2015) 60600 39500 39500 63100 78600 79300
2021-01-26 05:45 4.37 37600 80000 (2019) 39500 (2015) 60600 39500 39500 63100 78600 79300
2021-01-26 04:45 4.35 37500 80000 (2019) 39500 (2015) 60600 39500 39500 63100 78600 79300
2021-01-26 03:45 4.33 37400 80000 (2019) 39500 (2015) 60600 39500 39500 63100 78600 79300
2021-01-26 02:45 4.30 37300 80000 (2019) 39500 (2015) 60600 39500 39500 63100 78600 79300
2021-01-26 01:45 4.29 37300 80000 (2019) 39500 (2015) 60600 39500 39500 63100 78600 79300
2021-01-26 00:45 4.27 37200 80000 (2019) 39500 (2015) 60600 39500 39500 63100 78600 79300
2021-01-25 23:45 4.25 37100 84800 (2019) 38200 (2018) 60300 38700 39200 61800 78000 81200
2021-01-25 22:45 4.23 37000 84800 (2019) 38200 (2018) 60300 38700 39200 61800 78000 81200
2021-01-25 21:45 4.21 37000 84800 (2019) 38200 (2018) 60300 38700 39200 61800 78000 81200
2021-01-25 20:45 4.20 36900 84800 (2019) 38200 (2018) 60300 38700 39200 61800 78000 81200
2021-01-25 19:45 4.20 36900 84800 (2019) 38200 (2018) 60300 38700 39200 61800 78000 81200
2021-01-25 18:45 4.16 36700 84800 (2019) 38200 (2018) 60300 38700 39200 61800 78000 81200
2021-01-25 17:45 4.16 36700 84800 (2019) 38200 (2018) 60300 38700 39200 61800 78000 81200
2021-01-25 16:45 4.12 36600 84800 (2019) 38200 (2018) 60300 38700 39200 61800 78000 81200
2021-01-25 15:45 4.06 36300 84800 (2019) 38200 (2018) 60300 38700 39200 61800 78000 81200
2021-01-25 14:45 4.03 36200 84800 (2019) 38200 (2018) 60300 38700 39200 61800 78000 81200
2021-01-25 13:45 4.00 36100 84800 (2019) 38200 (2018) 60300 38700 39200 61800 78000 81200
2021-01-25 12:45 3.99 36100 84800 (2019) 38200 (2018) 60300 38700 39200 61800 78000 81200
2021-01-25 11:45 3.86 35500 84800 (2019) 38200 (2018) 60300 38700 39200 61800 78000 81200
2021-01-25 10:45 3.87 35600 84800 (2019) 38200 (2018) 60300 38700 39200 61800 78000 81200
2021-01-25 09:45 3.95 35900 84800 (2019) 38200 (2018) 60300 38700 39200 61800 78000 81200
2021-01-25 08:45 3.90 35700 84800 (2019) 38200 (2018) 60300 38700 39200 61800 78000 81200
2021-01-25 07:45 3.90 35700 84800 (2019) 38200 (2018) 60300 38700 39200 61800 78000 81200
2021-01-25 06:45 3.85 35500 84800 (2019) 38200 (2018) 60300 38700 39200 61800 78000 81200
2021-01-25 05:45 3.83 35400 84800 (2019) 38200 (2018) 60300 38700 39200 61800 78000 81200
2021-01-25 04:45 3.83 35400 84800 (2019) 38200 (2018) 60300 38700 39200 61800 78000 81200
2021-01-25 03:45 3.79 35300 84800 (2019) 38200 (2018) 60300 38700 39200 61800 78000 81200
2021-01-25 02:45 3.85 35500 84800 (2019) 38200 (2018) 60300 38700 39200 61800 78000 81200
2021-01-25 01:45 3.85 35500 84800 (2019) 38200 (2018) 60300 38700 39200 61800 78000 81200
2021-01-25 00:45 3.79 35300 84800 (2019) 38200 (2018) 60300 38700 39200 61800 78000 81200
2021-01-24 23:45 3.85 35500 92400 (2019) 37500 (2018) 61200 38100 38600 60800 80400 86000
2021-01-24 22:45 3.85 35500 92400 (2019) 37500 (2018) 61200 38100 38600 60800 80400 86000
2021-01-24 21:45 3.84 35500 92400 (2019) 37500 (2018) 61200 38100 38600 60800 80400 86000
2021-01-24 20:45 3.85 35500 92400 (2019) 37500 (2018) 61200 38100 38600 60800 80400 86000
2021-01-24 19:45 3.85 35500 92400 (2019) 37500 (2018) 61200 38100 38600 60800 80400 86000
2021-01-24 18:45 3.86 35500 92400 (2019) 37500 (2018) 61200 38100 38600 60800 80400 86000
2021-01-24 17:45 3.86 35500 92400 (2019) 37500 (2018) 61200 38100 38600 60800 80400 86000
2021-01-24 16:45 3.86 35500 92400 (2019) 37500 (2018) 61200 38100 38600 60800 80400 86000
2021-01-24 15:45 3.87 35600 92400 (2019) 37500 (2018) 61200 38100 38600 60800 80400 86000
2021-01-24 14:45 3.87 35600 92400 (2019) 37500 (2018) 61200 38100 38600 60800 80400 86000
2021-01-24 13:45 3.87 35600 92400 (2019) 37500 (2018) 61200 38100 38600 60800 80400 86000
2021-01-24 12:45 3.88 35600 92400 (2019) 37500 (2018) 61200 38100 38600 60800 80400 86000
2021-01-24 11:45 3.88 35600 92400 (2019) 37500 (2018) 61200 38100 38600 60800 80400 86000
2021-01-24 10:45 3.87 35600 92400 (2019) 37500 (2018) 61200 38100 38600 60800 80400 86000
2021-01-24 09:45 3.89 35700 92400 (2019) 37500 (2018) 61200 38100 38600 60800 80400 86000
2021-01-24 08:45 3.89 35700 92400 (2019) 37500 (2018) 61200 38100 38600 60800 80400 86000
2021-01-24 07:45 3.89 35700 92400 (2019) 37500 (2018) 61200 38100 38600 60800 80400 86000
2021-01-24 06:45 3.89 35700 92400 (2019) 37500 (2018) 61200 38100 38600 60800 80400 86000
2021-01-24 05:45 3.91 35700 92400 (2019) 37500 (2018) 61200 38100 38600 60800 80400 86000
2021-01-24 04:45 3.92 35800 92400 (2019) 37500 (2018) 61200 38100 38600 60800 80400 86000
2021-01-24 03:45 3.91 35700 92400 (2019) 37500 (2018) 61200 38100 38600 60800 80400 86000
2021-01-24 02:45 3.93 35800 92400 (2019) 37500 (2018) 61200 38100 38600 60800 80400 86000
2021-01-24 01:45 3.92 35800 92400 (2019) 37500 (2018) 61200 38100 38600 60800 80400 86000
2021-01-24 00:45 3.93 35800 92400 (2019) 37500 (2018) 61200 38100 38600 60800 80400 86000
2021-01-23 23:45 3.96 35900 91100 (2019) 37800 (2018) 61300 38000 38200 61000 81700 86100
2021-01-23 22:45 3.92 35800 91100 (2019) 37800 (2018) 61300 38000 38200 61000 81700 86100
2021-01-23 21:45 3.96 35900 91100 (2019) 37800 (2018) 61300 38000 38200 61000 81700 86100
2021-01-23 20:45 3.96 35900 91100 (2019) 37800 (2018) 61300 38000 38200 61000 81700 86100
2021-01-23 19:45 3.90 35700 91100 (2019) 37800 (2018) 61300 38000 38200 61000 81700 86100
2021-01-23 18:45 3.91 35700 91100 (2019) 37800 (2018) 61300 38000 38200 61000 81700 86100
2021-01-23 17:45 3.92 35800 91100 (2019) 37800 (2018) 61300 38000 38200 61000 81700 86100
2021-01-23 16:45 3.88 35600 91100 (2019) 37800 (2018) 61300 38000 38200 61000 81700 86100
2021-01-23 15:45 3.87 35600 91100 (2019) 37800 (2018) 61300 38000 38200 61000 81700 86100
2021-01-23 14:45 3.91 35700 91100 (2019) 37800 (2018) 61300 38000 38200 61000 81700 86100
2021-01-23 13:45 3.91 35700 91100 (2019) 37800 (2018) 61300 38000 38200 61000 81700 86100
2021-01-23 12:45 3.91 35700 91100 (2019) 37800 (2018) 61300 38000 38200 61000 81700 86100
2021-01-23 11:45 3.91 35700 91100 (2019) 37800 (2018) 61300 38000 38200 61000 81700 86100
2021-01-23 10:45 3.99 36100 91100 (2019) 37800 (2018) 61300 38000 38200 61000 81700 86100
2021-01-23 09:45 4.01 36100 91100 (2019) 37800 (2018) 61300 38000 38200 61000 81700 86100
2021-01-23 08:45 4.03 36200 91100 (2019) 37800 (2018) 61300 38000 38200 61000 81700 86100
2021-01-23 07:45 4.05 36300 91100 (2019) 37800 (2018) 61300 38000 38200 61000 81700 86100
2021-01-23 06:45 4.07 36400 91100 (2019) 37800 (2018) 61300 38000 38200 61000 81700 86100
2021-01-23 05:45 4.08 36400 91100 (2019) 37800 (2018) 61300 38000 38200 61000 81700 86100
2021-01-23 04:45 4.08 36400 91100 (2019) 37800 (2018) 61300 38000 38200 61000 81700 86100
2021-01-23 03:45 4.09 36500 91100 (2019) 37800 (2018) 61300 38000 38200 61000 81700 86100
2021-01-23 02:45 4.10 36500 91100 (2019) 37800 (2018) 61300 38000 38200 61000 81700 86100
2021-01-23 01:45 4.09 36500 91100 (2019) 37800 (2018) 61300 38000 38200 61000 81700 86100
2021-01-23 00:45 4.12 36600 91100 (2019) 37800 (2018) 61300 38000 38200 61000 81700 86100
2021-01-22 23:45 4.12 36600 85900 (2019) 37700 (2015) 61700 37900 38100 63500 82500 84100
2021-01-22 22:45 4.13 36600 85900 (2019) 37700 (2015) 61700 37900 38100 63500 82500 84100
2021-01-22 21:45 4.13 36600 85900 (2019) 37700 (2015) 61700 37900 38100 63500 82500 84100
2021-01-22 20:45 4.15 36700 85900 (2019) 37700 (2015) 61700 37900 38100 63500 82500 84100
2021-01-22 19:45 4.15 36700 85900 (2019) 37700 (2015) 61700 37900 38100 63500 82500 84100
2021-01-22 18:45 4.16 36700 85900 (2019) 37700 (2015) 61700 37900 38100 63500 82500 84100
2021-01-22 17:45 4.17 36800 85900 (2019) 37700 (2015) 61700 37900 38100 63500 82500 84100
2021-01-22 16:45 4.17 36800 85900 (2019) 37700 (2015) 61700 37900 38100 63500 82500 84100
2021-01-22 15:45 4.18 36800 85900 (2019) 37700 (2015) 61700 37900 38100 63500 82500 84100
2021-01-22 14:45 4.19 36900 85900 (2019) 37700 (2015) 61700 37900 38100 63500 82500 84100
2021-01-22 13:45 4.20 36900 85900 (2019) 37700 (2015) 61700 37900 38100 63500 82500 84100
2021-01-22 12:45 4.20 36900 85900 (2019) 37700 (2015) 61700 37900 38100 63500 82500 84100
2021-01-22 11:45 4.25 37100 85900 (2019) 37700 (2015) 61700 37900 38100 63500 82500 84100
2021-01-22 10:45 4.24 37100 85900 (2019) 37700 (2015) 61700 37900 38100 63500 82500 84100
2021-01-22 09:45 4.25 37100 85900 (2019) 37700 (2015) 61700 37900 38100 63500 82500 84100
2021-01-22 08:45 4.26 37200 85900 (2019) 37700 (2015) 61700 37900 38100 63500 82500 84100
2021-01-22 07:45 4.27 37200 85900 (2019) 37700 (2015) 61700 37900 38100 63500 82500 84100
2021-01-22 06:45 4.28 37200 85900 (2019) 37700 (2015) 61700 37900 38100 63500 82500 84100
2021-01-22 05:45 4.29 37300 85900 (2019) 37700 (2015) 61700 37900 38100 63500 82500 84100
2021-01-22 04:45 4.29 37300 85900 (2019) 37700 (2015) 61700 37900 38100 63500 82500 84100
2021-01-22 03:45 4.32 37400 85900 (2019) 37700 (2015) 61700 37900 38100 63500 82500 84100
2021-01-22 02:45 4.32 37400 85900 (2019) 37700 (2015) 61700 37900 38100 63500 82500 84100
2021-01-22 01:45 4.33 37400 85900 (2019) 37700 (2015) 61700 37900 38100 63500 82500 84100
2021-01-22 00:45 4.32 37400 85900 (2019) 37700 (2015) 61700 37900 38100 63500 82500 84100
2021-01-21 23:45 4.35 37500 97100 (2019) 36900 (2018) 64900 37000 37100 65000 90500 93600
2021-01-21 22:45 4.35 37500 97100 (2019) 36900 (2018) 64900 37000 37100 65000 90500 93600
2021-01-21 21:45 4.36 37600 97100 (2019) 36900 (2018) 64900 37000 37100 65000 90500 93600
2021-01-21 20:45 4.37 37600 97100 (2019) 36900 (2018) 64900 37000 37100 65000 90500 93600
2021-01-21 19:45 4.39 37700 97100 (2019) 36900 (2018) 64900 37000 37100 65000 90500 93600
2021-01-21 18:45 4.40 37700 97100 (2019) 36900 (2018) 64900 37000 37100 65000 90500 93600
2021-01-21 17:45 4.37 37600 97100 (2019) 36900 (2018) 64900 37000 37100 65000 90500 93600
2021-01-21 16:45 4.38 37600 97100 (2019) 36900 (2018) 64900 37000 37100 65000 90500 93600
2021-01-21 15:45 4.40 37700 97100 (2019) 36900 (2018) 64900 37000 37100 65000 90500 93600
2021-01-21 14:45 4.40 37700 97100 (2019) 36900 (2018) 64900 37000 37100 65000 90500 93600
2021-01-21 13:45 4.39 37700 97100 (2019) 36900 (2018) 64900 37000 37100 65000 90500 93600
2021-01-21 12:45 4.40 37700 97100 (2019) 36900 (2018) 64900 37000 37100 65000 90500 93600
2021-01-21 11:45 4.42 37800 97100 (2019) 36900 (2018) 64900 37000 37100 65000 90500 93600
2021-01-21 10:45 4.40 37700 97100 (2019) 36900 (2018) 64900 37000 37100 65000 90500 93600
2021-01-21 09:45 4.42 37800 97100 (2019) 36900 (2018) 64900 37000 37100 65000 90500 93600
2021-01-21 08:45 4.43 37900 97100 (2019) 36900 (2018) 64900 37000 37100 65000 90500 93600
2021-01-21 07:45 4.44 37900 97100 (2019) 36900 (2018) 64900 37000 37100 65000 90500 93600
2021-01-21 06:45 4.45 37900 97100 (2019) 36900 (2018) 64900 37000 37100 65000 90500 93600
2021-01-21 05:45 4.47 38000 97100 (2019) 36900 (2018) 64900 37000 37100 65000 90500 93600
2021-01-21 04:45 4.49 38100 97100 (2019) 36900 (2018) 64900 37000 37100 65000 90500 93600
2021-01-21 03:45 4.48 38100 97100 (2019) 36900 (2018) 64900 37000 37100 65000 90500 93600
2021-01-21 02:45 4.48 38100 97100 (2019) 36900 (2018) 64900 37000 37100 65000 90500 93600
2021-01-21 01:45 4.48 38100 97100 (2019) 36900 (2018) 64900 37000 37100 65000 90500 93600
2021-01-21 00:45 4.50 38100 97100 (2019) 36900 (2018) 64900 37000 37100 65000 90500 93600
2021-01-20 23:45 4.49 38100 108000 (2019) 36200 (2018) 68400 36300 36400 63000 105000 106000
2021-01-20 22:45 4.49 38100 108000 (2019) 36200 (2018) 68400 36300 36400 63000 105000 106000
2021-01-20 21:45 4.47 38000 108000 (2019) 36200 (2018) 68400 36300 36400 63000 105000 106000
2021-01-20 20:45 4.49 38100 108000 (2019) 36200 (2018) 68400 36300 36400 63000 105000 106000
2021-01-20 19:45 4.49 38100 108000 (2019) 36200 (2018) 68400 36300 36400 63000 105000 106000
2021-01-20 18:45 4.50 38100 108000 (2019) 36200 (2018) 68400 36300 36400 63000 105000 106000
2021-01-20 17:45 4.48 38100 108000 (2019) 36200 (2018) 68400 36300 36400 63000 105000 106000
2021-01-20 16:45 4.49 38100 108000 (2019) 36200 (2018) 68400 36300 36400 63000 105000 106000
2021-01-20 15:45 4.50 38100 108000 (2019) 36200 (2018) 68400 36300 36400 63000 105000 106000
2021-01-20 14:45 4.49 38100 108000 (2019) 36200 (2018) 68400 36300 36400 63000 105000 106000
2021-01-20 13:45 4.51 38200 108000 (2019) 36200 (2018) 68400 36300 36400 63000 105000 106000
2021-01-20 12:45 4.48 38100 108000 (2019) 36200 (2018) 68400 36300 36400 63000 105000 106000
2021-01-20 11:45 4.50 38100 108000 (2019) 36200 (2018) 68400 36300 36400 63000 105000 106000
2021-01-20 10:45 4.51 38200 108000 (2019) 36200 (2018) 68400 36300 36400 63000 105000 106000
2021-01-20 09:45 4.50 38100 108000 (2019) 36200 (2018) 68400 36300 36400 63000 105000 106000
2021-01-20 08:45 4.48 38100 108000 (2019) 36200 (2018) 68400 36300 36400 63000 105000 106000
2021-01-20 07:45 4.51 38200 108000 (2019) 36200 (2018) 68400 36300 36400 63000 105000 106000
2021-01-20 06:45 4.48 38100 108000 (2019) 36200 (2018) 68400 36300 36400 63000 105000 106000
2021-01-20 05:45 4.47 38000 108000 (2019) 36200 (2018) 68400 36300 36400 63000 105000 106000
2021-01-20 04:45 4.49 38100 108000 (2019) 36200 (2018) 68400 36300 36400 63000 105000 106000
2021-01-20 03:45 4.48 38100 108000 (2019) 36200 (2018) 68400 36300 36400 63000 105000 106000
2021-01-20 02:45 4.48 38100 108000 (2019) 36200 (2018) 68400 36300 36400 63000 105000 106000
2021-01-20 01:45 4.48 38100 108000 (2019) 36200 (2018) 68400 36300 36400 63000 105000 106000
2021-01-20 00:45 4.49 38100 108000 (2019) 36200 (2018) 68400 36300 36400 63000 105000 106000
2021-01-19 23:45 4.48 38100 121000 (2020) 36100 (2015) 68800 36200 36300 59900 105000 112000
2021-01-19 22:45 4.49 38100 121000 (2020) 36100 (2015) 68800 36200 36300 59900 105000 112000
2021-01-19 21:45 4.48 38100 121000 (2020) 36100 (2015) 68800 36200 36300 59900 105000 112000
2021-01-19 20:45 4.48 38100 121000 (2020) 36100 (2015) 68800 36200 36300 59900 105000 112000
2021-01-19 19:45 4.47 38000 121000 (2020) 36100 (2015) 68800 36200 36300 59900 105000 112000
2021-01-19 18:45 4.49 38100 121000 (2020) 36100 (2015) 68800 36200 36300 59900 105000 112000
2021-01-19 17:45 4.46 38000 121000 (2020) 36100 (2015) 68800 36200 36300 59900 105000 112000
2021-01-19 16:45 4.46 38000 121000 (2020) 36100 (2015) 68800 36200 36300 59900 105000 112000
2021-01-19 15:45 4.49 38100 121000 (2020) 36100 (2015) 68800 36200 36300 59900 105000 112000
2021-01-19 14:45 4.49 38100 121000 (2020) 36100 (2015) 68800 36200 36300 59900 105000 112000
2021-01-19 13:45 4.47 38000 121000 (2020) 36100 (2015) 68800 36200 36300 59900 105000 112000
2021-01-19 12:45 4.48 38100 121000 (2020) 36100 (2015) 68800 36200 36300 59900 105000 112000
2021-01-19 11:45 4.48 38100 121000 (2020) 36100 (2015) 68800 36200 36300 59900 105000 112000
2021-01-19 10:45 4.49 38100 121000 (2020) 36100 (2015) 68800 36200 36300 59900 105000 112000
2021-01-19 09:45 4.49 38100 121000 (2020) 36100 (2015) 68800 36200 36300 59900 105000 112000
2021-01-19 08:45 4.47 38000 121000 (2020) 36100 (2015) 68800 36200 36300 59900 105000 112000
2021-01-19 07:45 4.48 38100 121000 (2020) 36100 (2015) 68800 36200 36300 59900 105000 112000
2021-01-19 06:45 4.49 38100 121000 (2020) 36100 (2015) 68800 36200 36300 59900 105000 112000
2021-01-19 05:45 4.47 38000 121000 (2020) 36100 (2015) 68800 36200 36300 59900 105000 112000
2021-01-19 04:45 4.48 38100 121000 (2020) 36100 (2015) 68800 36200 36300 59900 105000 112000
2021-01-19 03:45 4.48 38100 121000 (2020) 36100 (2015) 68800 36200 36300 59900 105000 112000
2021-01-19 02:45 4.50 38100 121000 (2020) 36100 (2015) 68800 36200 36300 59900 105000 112000
2021-01-19 01:45 4.51 38200 121000 (2020) 36100 (2015) 68800 36200 36300 59900 105000 112000
2021-01-19 00:45 4.52 38200 121000 (2020) 36100 (2015) 68800 36200 36300 59900 105000 112000
2021-01-18 23:45 4.48 38100 115000 (2020) 36000 (2015) 66700 37200 38200 60300 96000 105000
2021-01-18 22:45 4.50 38100 115000 (2020) 36000 (2015) 66700 37200 38200 60300 96000 105000
2021-01-18 21:45 4.50 38100 115000 (2020) 36000 (2015) 66700 37200 38200 60300 96000 105000
2021-01-18 20:45 4.50 38100 115000 (2020) 36000 (2015) 66700 37200 38200 60300 96000 105000
2021-01-18 19:45 4.50 38100 115000 (2020) 36000 (2015) 66700 37200 38200 60300 96000 105000
2021-01-18 18:45 4.50 38100 115000 (2020) 36000 (2015) 66700 37200 38200 60300 96000 105000
2021-01-18 17:45 4.49 38100 115000 (2020) 36000 (2015) 66700 37200 38200 60300 96000 105000
2021-01-18 16:45 4.49 38100 115000 (2020) 36000 (2015) 66700 37200 38200 60300 96000 105000
2021-01-18 15:45 4.48 38100 115000 (2020) 36000 (2015) 66700 37200 38200 60300 96000 105000
2021-01-18 14:45 4.49 38100 115000 (2020) 36000 (2015) 66700 37200 38200 60300 96000 105000
2021-01-18 13:45 4.49 38100 115000 (2020) 36000 (2015) 66700 37200 38200 60300 96000 105000
2021-01-18 12:45 4.48 38100 115000 (2020) 36000 (2015) 66700 37200 38200 60300 96000 105000
2021-01-18 11:45 4.49 38100 115000 (2020) 36000 (2015) 66700 37200 38200 60300 96000 105000
2021-01-18 10:45 4.50 38100 115000 (2020) 36000 (2015) 66700 37200 38200 60300 96000 105000
2021-01-18 09:45 4.49 38100 115000 (2020) 36000 (2015) 66700 37200 38200 60300 96000 105000
2021-01-18 08:45 4.49 38100 115000 (2020) 36000 (2015) 66700 37200 38200 60300 96000 105000
2021-01-18 07:45 4.49 38100 115000 (2020) 36000 (2015) 66700 37200 38200 60300 96000 105000
2021-01-18 06:45 4.49 38100 115000 (2020) 36000 (2015) 66700 37200 38200 60300 96000 105000
2021-01-18 05:45 4.49 38100 115000 (2020) 36000 (2015) 66700 37200 38200 60300 96000 105000
2021-01-18 04:45 4.49 38100 115000 (2020) 36000 (2015) 66700 37200 38200 60300 96000 105000
2021-01-18 03:45 4.49 38100 115000 (2020) 36000 (2015) 66700 37200 38200 60300 96000 105000
2021-01-18 02:45 4.48 38100 115000 (2020) 36000 (2015) 66700 37200 38200 60300 96000 105000
2021-01-18 01:45 4.48 38100 115000 (2020) 36000 (2015) 66700 37200 38200 60300 96000 105000
2021-01-18 00:45 4.48 38100 115000 (2020) 36000 (2015) 66700 37200 38200 60300 96000 105000
2021-01-17 23:45 4.49 38100 97800 (2020) 35800 (2015) 64300 37700 39400 62400 89600 93400
2021-01-17 22:45 4.47 38000 97800 (2020) 35800 (2015) 64300 37700 39400 62400 89600 93400
2021-01-17 21:45 4.47 38000 97800 (2020) 35800 (2015) 64300 37700 39400 62400 89600 93400
2021-01-17 20:45 4.47 38000 97800 (2020) 35800 (2015) 64300 37700 39400 62400 89600 93400
2021-01-17 19:45 4.47 38000 97800 (2020) 35800 (2015) 64300 37700 39400 62400 89600 93400
2021-01-17 18:45 4.47 38000 97800 (2020) 35800 (2015) 64300 37700 39400 62400 89600 93400
2021-01-17 17:45 4.48 38100 97800 (2020) 35800 (2015) 64300 37700 39400 62400 89600 93400
2021-01-17 16:45 4.45 37900 97800 (2020) 35800 (2015) 64300 37700 39400 62400 89600 93400
2021-01-17 15:45 4.44 37900 97800 (2020) 35800 (2015) 64300 37700 39400 62400 89600 93400
2021-01-17 14:45 4.46 38000 97800 (2020) 35800 (2015) 64300 37700 39400 62400 89600 93400
2021-01-17 13:45 4.44 37900 97800 (2020) 35800 (2015) 64300 37700 39400 62400 89600 93400
2021-01-17 12:45 4.43 37900 97800 (2020) 35800 (2015) 64300 37700 39400 62400 89600 93400
2021-01-17 11:45 4.43 37900 97800 (2020) 35800 (2015) 64300 37700 39400 62400 89600 93400
2021-01-17 10:45 4.43 37900 97800 (2020) 35800 (2015) 64300 37700 39400 62400 89600 93400
2021-01-17 09:45 4.45 37900 97800 (2020) 35800 (2015) 64300 37700 39400 62400 89600 93400
2021-01-17 08:45 4.44 37900 97800 (2020) 35800 (2015) 64300 37700 39400 62400 89600 93400
2021-01-17 07:45 4.45 37900 97800 (2020) 35800 (2015) 64300 37700 39400 62400 89600 93400
2021-01-17 06:45 4.44 37900 97800 (2020) 35800 (2015) 64300 37700 39400 62400 89600 93400
2021-01-17 05:45 4.44 37900 97800 (2020) 35800 (2015) 64300 37700 39400 62400 89600 93400
2021-01-17 04:45 4.44 37900 97800 (2020) 35800 (2015) 64300 37700 39400 62400 89600 93400
2021-01-17 03:45 4.36 37600 97800 (2020) 35800 (2015) 64300 37700 39400 62400 89600 93400
2021-01-17 02:45 4.44 37900 97800 (2020) 35800 (2015) 64300 37700 39400 62400 89600 93400
2021-01-17 01:45 4.43 37900 97800 (2020) 35800 (2015) 64300 37700 39400 62400 89600 93400
2021-01-16 22:45 4.42 37800 99400 (2020) 34300 (2015) 65000 37000 39300 63900 90500 94700
2021-01-16 21:45 4.44 37900 99400 (2020) 34300 (2015) 65000 37000 39300 63900 90500 94700
2021-01-16 20:45 4.44 37900 99400 (2020) 34300 (2015) 65000 37000 39300 63900 90500 94700
2021-01-16 19:45 4.45 37900 99400 (2020) 34300 (2015) 65000 37000 39300 63900 90500 94700
2021-01-16 18:45 4.44 37900 99400 (2020) 34300 (2015) 65000 37000 39300 63900 90500 94700
2021-01-16 17:45 4.44 37900 99400 (2020) 34300 (2015) 65000 37000 39300 63900 90500 94700
2021-01-16 16:45 4.42 37800 99400 (2020) 34300 (2015) 65000 37000 39300 63900 90500 94700
2021-01-16 15:45 4.42 37800 99400 (2020) 34300 (2015) 65000 37000 39300 63900 90500 94700
2021-01-16 14:45 4.42 37800 99400 (2020) 34300 (2015) 65000 37000 39300 63900 90500 94700
2021-01-16 13:45 4.41 37800 99400 (2020) 34300 (2015) 65000 37000 39300 63900 90500 94700
2021-01-16 12:45 4.42 37800 99400 (2020) 34300 (2015) 65000 37000 39300 63900 90500 94700
2021-01-16 11:45 4.42 37800 99400 (2020) 34300 (2015) 65000 37000 39300 63900 90500 94700
2021-01-16 10:45 4.41 37800 99400 (2020) 34300 (2015) 65000 37000 39300 63900 90500 94700
2021-01-16 09:45 4.41 37800 99400 (2020) 34300 (2015) 65000 37000 39300 63900 90500 94700
2021-01-16 08:45 4.41 37800 99400 (2020) 34300 (2015) 65000 37000 39300 63900 90500 94700
2021-01-16 07:45 4.42 37800 99400 (2020) 34300 (2015) 65000 37000 39300 63900 90500 94700
2021-01-16 06:45 4.40 37700 99400 (2020) 34300 (2015) 65000 37000 39300 63900 90500 94700
2021-01-16 05:45 4.41 37800 99400 (2020) 34300 (2015) 65000 37000 39300 63900 90500 94700
2021-01-16 04:45 4.40 37700 99400 (2020) 34300 (2015) 65000 37000 39300 63900 90500 94700
2021-01-16 03:45 4.38 37600 99400 (2020) 34300 (2015) 65000 37000 39300 63900 90500 94700
2021-01-16 02:45 4.40 37700 99400 (2020) 34300 (2015) 65000 37000 39300 63900 90500 94700
2021-01-16 01:45 4.38 37600 99400 (2020) 34300 (2015) 65000 37000 39300 63900 90500 94700
2021-01-16 00:45 4.38 37600 99400 (2020) 34300 (2015) 65000 37000 39300 63900 90500 94700
2021-01-15 23:45 4.38 37600 103000 (2020) 32700 (2015) 65800 35700 38300 65100 92400 97400
2021-01-15 22:45 4.39 37700 103000 (2020) 32700 (2015) 65800 35700 38300 65100 92400 97400
2021-01-15 21:45 4.36 37600 103000 (2020) 32700 (2015) 65800 35700 38300 65100 92400 97400
2021-01-15 20:45 4.36 37600 103000 (2020) 32700 (2015) 65800 35700 38300 65100 92400 97400
2021-01-15 19:45 4.36 37600 103000 (2020) 32700 (2015) 65800 35700 38300 65100 92400 97400
2021-01-15 18:45 4.34 37500 103000 (2020) 32700 (2015) 65800 35700 38300 65100 92400 97400
2021-01-15 17:45 4.36 37600 103000 (2020) 32700 (2015) 65800 35700 38300 65100 92400 97400
2021-01-15 16:45 4.36 37600 103000 (2020) 32700 (2015) 65800 35700 38300 65100 92400 97400
2021-01-15 15:45 4.36 37600 103000 (2020) 32700 (2015) 65800 35700 38300 65100 92400 97400
2021-01-15 14:45 4.34 37500 103000 (2020) 32700 (2015) 65800 35700 38300 65100 92400 97400
2021-01-15 13:45 4.34 37500 103000 (2020) 32700 (2015) 65800 35700 38300 65100 92400 97400
2021-01-15 12:45 4.35 37500 103000 (2020) 32700 (2015) 65800 35700 38300 65100 92400 97400
2021-01-15 11:45 4.35 37500 103000 (2020) 32700 (2015) 65800 35700 38300 65100 92400 97400
2021-01-15 10:45 4.32 37400 103000 (2020) 32700 (2015) 65800 35700 38300 65100 92400 97400
2021-01-15 09:45 4.36 37600 103000 (2020) 32700 (2015) 65800 35700 38300 65100 92400 97400
2021-01-15 08:45 4.32 37400 103000 (2020) 32700 (2015) 65800 35700 38300 65100 92400 97400
2021-01-15 07:45 4.34 37500 103000 (2020) 32700 (2015) 65800 35700 38300 65100 92400 97400
2021-01-15 06:45 4.32 37400 103000 (2020) 32700 (2015) 65800 35700 38300 65100 92400 97400
2021-01-15 05:45 4.34 37500 103000 (2020) 32700 (2015) 65800 35700 38300 65100 92400 97400
2021-01-15 04:45 4.35 37500 103000 (2020) 32700 (2015) 65800 35700 38300 65100 92400 97400
2021-01-15 03:45 4.32 37400 103000 (2020) 32700 (2015) 65800 35700 38300 65100 92400 97400
2021-01-15 02:45 4.32 37400 103000 (2020) 32700 (2015) 65800 35700 38300 65100 92400 97400
2021-01-15 01:45 4.32 37400 103000 (2020) 32700 (2015) 65800 35700 38300 65100 92400 97400
2021-01-15 00:45 4.34 37500 103000 (2020) 32700 (2015) 65800 35700 38300 65100 92400 97400
2021-01-14 23:45 4.33 37400 115000 (2020) 32000 (2015) 68700 34700 37000 65900 99600 107000
2021-01-14 22:45 4.33 37400 115000 (2020) 32000 (2015) 68700 34700 37000 65900 99600 107000
2021-01-14 21:45 4.31 37400 115000 (2020) 32000 (2015) 68700 34700 37000 65900 99600 107000
2021-01-14 20:45 4.33 37400 115000 (2020) 32000 (2015) 68700 34700 37000 65900 99600 107000
2021-01-14 19:45 4.33 37400 115000 (2020) 32000 (2015) 68700 34700 37000 65900 99600 107000
2021-01-14 18:45 4.31 37400 115000 (2020) 32000 (2015) 68700 34700 37000 65900 99600 107000
2021-01-14 17:45 4.31 37400 115000 (2020) 32000 (2015) 68700 34700 37000 65900 99600 107000
2021-01-14 16:45 4.32 37400 115000 (2020) 32000 (2015) 68700 34700 37000 65900 99600 107000
2021-01-14 15:45 4.29 37300 115000 (2020) 32000 (2015) 68700 34700 37000 65900 99600 107000
2021-01-14 14:45 4.29 37300 115000 (2020) 32000 (2015) 68700 34700 37000 65900 99600 107000
2021-01-14 13:45 4.28 37200 115000 (2020) 32000 (2015) 68700 34700 37000 65900 99600 107000
2021-01-14 12:45 4.28 37200 115000 (2020) 32000 (2015) 68700 34700 37000 65900 99600 107000
2021-01-14 11:45 4.07 36400 115000 (2020) 32000 (2015) 68700 34700 37000 65900 99600 107000
2021-01-14 10:45 4.17 36800 115000 (2020) 32000 (2015) 68700 34700 37000 65900 99600 107000
2021-01-14 09:45 4.17 36800 115000 (2020) 32000 (2015) 68700 34700 37000 65900 99600 107000
2021-01-14 08:45 4.27 37200 115000 (2020) 32000 (2015) 68700 34700 37000 65900 99600 107000
2021-01-14 07:45 4.29 37300 115000 (2020) 32000 (2015) 68700 34700 37000 65900 99600 107000
2021-01-14 06:45 4.29 37300 115000 (2020) 32000 (2015) 68700 34700 37000 65900 99600 107000
2021-01-14 05:45 4.28 37200 115000 (2020) 32000 (2015) 68700 34700 37000 65900 99600 107000
2021-01-14 04:45 4.27 37200 115000 (2020) 32000 (2015) 68700 34700 37000 65900 99600 107000
2021-01-14 03:45 4.27 37200 115000 (2020) 32000 (2015) 68700 34700 37000 65900 99600 107000
2021-01-14 02:45 4.26 37200 115000 (2020) 32000 (2015) 68700 34700 37000 65900 99600 107000
2021-01-14 01:45 4.27 37200 115000 (2020) 32000 (2015) 68700 34700 37000 65900 99600 107000
2021-01-14 00:45 4.26 37200 115000 (2020) 32000 (2015) 68700 34700 37000 65900 99600 107000
2021-01-13 23:45 4.24 37100 152000 (2020) 32200 (2015) 77400 34800 37000 67200 118000 134000
2021-01-13 22:45 4.25 37100 152000 (2020) 32200 (2015) 77400 34800 37000 67200 118000 134000
2021-01-13 21:45 4.23 37000 152000 (2020) 32200 (2015) 77400 34800 37000 67200 118000 134000
2021-01-13 20:45 4.23 37000 152000 (2020) 32200 (2015) 77400 34800 37000 67200 118000 134000
2021-01-13 19:45 4.22 37000 152000 (2020) 32200 (2015) 77400 34800 37000 67200 118000 134000
2021-01-13 18:45 4.23 37000 152000 (2020) 32200 (2015) 77400 34800 37000 67200 118000 134000
2021-01-13 17:45 4.22 37000 152000 (2020) 32200 (2015) 77400 34800 37000 67200 118000 134000
2021-01-13 16:45 4.21 37000 152000 (2020) 32200 (2015) 77400 34800 37000 67200 118000 134000
2021-01-13 15:45 4.18 36800 152000 (2020) 32200 (2015) 77400 34800 37000 67200 118000 134000
2021-01-13 14:45 4.19 36900 152000 (2020) 32200 (2015) 77400 34800 37000 67200 118000 134000
2021-01-13 13:45 4.19 36900 152000 (2020) 32200 (2015) 77400 34800 37000 67200 118000 134000
2021-01-13 12:45 4.20 36900 152000 (2020) 32200 (2015) 77400 34800 37000 67200 118000 134000
2021-01-13 11:45 4.18 36800 152000 (2020) 32200 (2015) 77400 34800 37000 67200 118000 134000
2021-01-13 10:45 4.18 36800 152000 (2020) 32200 (2015) 77400 34800 37000 67200 118000 134000
2021-01-13 09:45 4.17 36800 152000 (2020) 32200 (2015) 77400 34800 37000 67200 118000 134000
2021-01-13 08:45 4.15 36700 152000 (2020) 32200 (2015) 77400 34800 37000 67200 118000 134000
2021-01-13 07:45 4.18 36800 152000 (2020) 32200 (2015) 77400 34800 37000 67200 118000 134000
2021-01-13 06:45 4.19 36900 152000 (2020) 32200 (2015) 77400 34800 37000 67200 118000 134000
2021-01-13 05:45 4.18 36800 152000 (2020) 32200 (2015) 77400 34800 37000 67200 118000 134000
2021-01-13 04:45 4.19 36900 152000 (2020) 32200 (2015) 77400 34800 37000 67200 118000 134000
2021-01-13 03:45 4.17 36800 152000 (2020) 32200 (2015) 77400 34800 37000 67200 118000 134000
2021-01-13 02:45 4.19 36900 152000 (2020) 32200 (2015) 77400 34800 37000 67200 118000 134000
2021-01-13 01:45 4.18 36800 152000 (2020) 32200 (2015) 77400 34800 37000 67200 118000 134000
2021-01-13 00:45 4.18 36800 152000 (2020) 32200 (2015) 77400 34800 37000 67200 118000 134000
2021-01-12 23:45 4.17 36800 169000 (2020) 33700 (2015) 84800 35900 37800 69900 138000 152000
2021-01-12 22:45 4.18 36800 169000 (2020) 33700 (2015) 84800 35900 37800 69900 138000 152000
2021-01-12 21:45 4.17 36800 169000 (2020) 33700 (2015) 84800 35900 37800 69900 138000 152000
2021-01-12 20:45 4.16 36700 169000 (2020) 33700 (2015) 84800 35900 37800 69900 138000 152000
2021-01-12 19:45 4.16 36700 169000 (2020) 33700 (2015) 84800 35900 37800 69900 138000 152000
2021-01-12 18:45 4.16 36700 169000 (2020) 33700 (2015) 84800 35900 37800 69900 138000 152000
2021-01-12 17:45 4.17 36800 169000 (2020) 33700 (2015) 84800 35900 37800 69900 138000 152000
2021-01-12 16:45 4.14 36700 169000 (2020) 33700 (2015) 84800 35900 37800 69900 138000 152000
2021-01-12 15:45 4.14 36700 169000 (2020) 33700 (2015) 84800 35900 37800 69900 138000 152000
2021-01-12 14:45 4.15 36700 169000 (2020) 33700 (2015) 84800 35900 37800 69900 138000 152000
2021-01-12 13:45 4.15 36700 169000 (2020) 33700 (2015) 84800 35900 37800 69900 138000 152000
2021-01-12 12:45 4.16 36700 169000 (2020) 33700 (2015) 84800 35900 37800 69900 138000 152000
2021-01-12 11:45 4.17 36800 169000 (2020) 33700 (2015) 84800 35900 37800 69900 138000 152000
2021-01-12 10:45 4.17 36800 169000 (2020) 33700 (2015) 84800 35900 37800 69900 138000 152000
2021-01-12 09:45 4.17 36800 169000 (2020) 33700 (2015) 84800 35900 37800 69900 138000 152000
2021-01-12 08:45 4.17 36800 169000 (2020) 33700 (2015) 84800 35900 37800 69900 138000 152000
2021-01-12 07:45 4.18 36800 169000 (2020) 33700 (2015) 84800 35900 37800 69900 138000 152000
2021-01-12 06:45 4.18 36800 169000 (2020) 33700 (2015) 84800 35900 37800 69900 138000 152000
2021-01-12 05:45 4.20 36900 169000 (2020) 33700 (2015) 84800 35900 37800 69900 138000 152000
2021-01-12 04:45 4.20 36900 169000 (2020) 33700 (2015) 84800 35900 37800 69900 138000 152000
2021-01-12 03:45 4.19 36900 169000 (2020) 33700 (2015) 84800 35900 37800 69900 138000 152000
2021-01-12 02:45 4.23 37000 169000 (2020) 33700 (2015) 84800 35900 37800 69900 138000 152000
2021-01-12 01:45 4.21 37000 169000 (2020) 33700 (2015) 84800 35900 37800 69900 138000 152000
2021-01-12 00:45 4.24 37100 169000 (2020) 33700 (2015) 84800 35900 37800 69900 138000 152000
2021-01-11 23:45 4.24 37100 143000 (2020) 34600 (2015) 83100 36600 38400 70600 141000 142000
2021-01-11 22:45 4.24 37100 143000 (2020) 34600 (2015) 83100 36600 38400 70600 141000 142000
2021-01-11 21:45 4.25 37100 143000 (2020) 34600 (2015) 83100 36600 38400 70600 141000 142000
2021-01-11 20:45 4.26 37200 143000 (2020) 34600 (2015) 83100 36600 38400 70600 141000 142000
2021-01-11 19:45 4.26 37200 143000 (2020) 34600 (2015) 83100 36600 38400 70600 141000 142000
2021-01-11 18:45 4.27 37200 143000 (2020) 34600 (2015) 83100 36600 38400 70600 141000 142000
2021-01-11 17:45 4.29 37300 143000 (2020) 34600 (2015) 83100 36600 38400 70600 141000 142000
2021-01-11 16:45 4.28 37200 143000 (2020) 34600 (2015) 83100 36600 38400 70600 141000 142000
2021-01-11 15:45 4.28 37200 143000 (2020) 34600 (2015) 83100 36600 38400 70600 141000 142000
2021-01-11 14:45 4.26 37200 143000 (2020) 34600 (2015) 83100 36600 38400 70600 141000 142000
2021-01-11 13:45 4.29 37300 143000 (2020) 34600 (2015) 83100 36600 38400 70600 141000 142000
2021-01-11 12:45 4.32 37400 143000 (2020) 34600 (2015) 83100 36600 38400 70600 141000 142000
2021-01-11 11:45 4.30 37300 143000 (2020) 34600 (2015) 83100 36600 38400 70600 141000 142000
2021-01-11 10:45 4.33 37400 143000 (2020) 34600 (2015) 83100 36600 38400 70600 141000 142000
2021-01-11 09:45 4.31 37400 143000 (2020) 34600 (2015) 83100 36600 38400 70600 141000 142000
2021-01-11 08:45 4.32 37400 143000 (2020) 34600 (2015) 83100 36600 38400 70600 141000 142000
2021-01-11 07:45 4.34 37500 143000 (2020) 34600 (2015) 83100 36600 38400 70600 141000 142000
2021-01-11 06:45 4.34 37500 143000 (2020) 34600 (2015) 83100 36600 38400 70600 141000 142000
2021-01-11 05:45 4.36 37600 143000 (2020) 34600 (2015) 83100 36600 38400 70600 141000 142000
2021-01-11 04:45 4.36 37600 143000 (2020) 34600 (2015) 83100 36600 38400 70600 141000 142000
2021-01-11 03:45 4.36 37600 143000 (2020) 34600 (2015) 83100 36600 38400 70600 141000 142000
2021-01-11 02:45 4.37 37600 143000 (2020) 34600 (2015) 83100 36600 38400 70600 141000 142000
2021-01-11 01:45 4.37 37600 143000 (2020) 34600 (2015) 83100 36600 38400 70600 141000 142000
2021-01-11 00:45 4.38 37600 143000 (2020) 34600 (2015) 83100 36600 38400 70600 141000 142000
2021-01-10 23:45 4.37 37600 145000 (2016) 34600 (2015) 74500 36500 38100 65500 109000 126000
2021-01-10 22:45 4.38 37600 145000 (2016) 34600 (2015) 74500 36500 38100 65500 109000 126000
2021-01-10 21:45 4.38 37600 145000 (2016) 34600 (2015) 74500 36500 38100 65500 109000 126000
2021-01-10 20:45 4.40 37700 145000 (2016) 34600 (2015) 74500 36500 38100 65500 109000 126000
2021-01-10 19:45 4.38 37600 145000 (2016) 34600 (2015) 74500 36500 38100 65500 109000 126000
2021-01-10 18:45 4.39 37700 145000 (2016) 34600 (2015) 74500 36500 38100 65500 109000 126000
2021-01-10 17:45 4.40 37700 145000 (2016) 34600 (2015) 74500 36500 38100 65500 109000 126000
2021-01-10 16:45 4.41 37800 145000 (2016) 34600 (2015) 74500 36500 38100 65500 109000 126000
2021-01-10 15:45 4.41 37800 145000 (2016) 34600 (2015) 74500 36500 38100 65500 109000 126000
2021-01-10 14:45 4.40 37700 145000 (2016) 34600 (2015) 74500 36500 38100 65500 109000 126000
2021-01-10 13:45 4.40 37700 145000 (2016) 34600 (2015) 74500 36500 38100 65500 109000 126000
2021-01-10 12:45 4.40 37700 145000 (2016) 34600 (2015) 74500 36500 38100 65500 109000 126000
2021-01-10 11:45 4.40 37700 145000 (2016) 34600 (2015) 74500 36500 38100 65500 109000 126000
2021-01-10 10:45 4.42 37800 145000 (2016) 34600 (2015) 74500 36500 38100 65500 109000 126000
2021-01-10 09:45 4.41 37800 145000 (2016) 34600 (2015) 74500 36500 38100 65500 109000 126000
2021-01-10 08:45 4.40 37700 145000 (2016) 34600 (2015) 74500 36500 38100 65500 109000 126000
2021-01-10 07:45 4.41 37800 145000 (2016) 34600 (2015) 74500 36500 38100 65500 109000 126000
2021-01-10 06:45 4.41 37800 145000 (2016) 34600 (2015) 74500 36500 38100 65500 109000 126000
2021-01-10 05:45 4.41 37800 145000 (2016) 34600 (2015) 74500 36500 38100 65500 109000 126000
2021-01-10 04:45 4.40 37700 145000 (2016) 34600 (2015) 74500 36500 38100 65500 109000 126000
2021-01-10 03:45 4.41 37800 145000 (2016) 34600 (2015) 74500 36500 38100 65500 109000 126000
2021-01-10 02:45 4.42 37800 145000 (2016) 34600 (2015) 74500 36500 38100 65500 109000 126000
2021-01-10 01:45 4.40 37700 145000 (2016) 34600 (2015) 74500 36500 38100 65500 109000 126000
2021-01-10 00:45 4.39 37700 145000 (2016) 34600 (2015) 74500 36500 38100 65500 109000 126000
2021-01-09 23:45 4.39 37700 122000 (2016) 34400 (2015) 69500 36200 37800 65300 98600 110000
2021-01-09 22:45 4.39 37700 122000 (2016) 34400 (2015) 69500 36200 37800 65300 98600 110000
2021-01-09 20:45 4.39 37700 122000 (2016) 34400 (2015) 69500 36200 37800 65300 98600 110000
2021-01-09 19:45 4.40 37700 122000 (2016) 34400 (2015) 69500 36200 37800 65300 98600 110000
2021-01-09 18:45 4.39 37700 122000 (2016) 34400 (2015) 69500 36200 37800 65300 98600 110000
2021-01-09 17:45 4.40 37700 122000 (2016) 34400 (2015) 69500 36200 37800 65300 98600 110000
2021-01-09 16:45 4.40 37700 122000 (2016) 34400 (2015) 69500 36200 37800 65300 98600 110000
2021-01-09 15:45 4.38 37600 122000 (2016) 34400 (2015) 69500 36200 37800 65300 98600 110000
2021-01-09 14:45 4.40 37700 122000 (2016) 34400 (2015) 69500 36200 37800 65300 98600 110000
2021-01-09 13:45 4.39 37700 122000 (2016) 34400 (2015) 69500 36200 37800 65300 98600 110000
2021-01-09 12:45 4.36 37600 122000 (2016) 34400 (2015) 69500 36200 37800 65300 98600 110000
2021-01-09 11:45 4.38 37600 122000 (2016) 34400 (2015) 69500 36200 37800 65300 98600 110000
2021-01-09 10:45 4.38 37600 122000 (2016) 34400 (2015) 69500 36200 37800 65300 98600 110000
2021-01-09 09:45 4.38 37600 122000 (2016) 34400 (2015) 69500 36200 37800 65300 98600 110000
2021-01-09 08:45 4.37 37600 122000 (2016) 34400 (2015) 69500 36200 37800 65300 98600 110000
2021-01-09 07:45 4.37 37600 122000 (2016) 34400 (2015) 69500 36200 37800 65300 98600 110000
2021-01-09 06:45 4.39 37700 122000 (2016) 34400 (2015) 69500 36200 37800 65300 98600 110000
2021-01-09 05:45 4.39 37700 122000 (2016) 34400 (2015) 69500 36200 37800 65300 98600 110000
2021-01-09 04:45 4.40 37700 122000 (2016) 34400 (2015) 69500 36200 37800 65300 98600 110000
2021-01-09 03:45 4.40 37700 122000 (2016) 34400 (2015) 69500 36200 37800 65300 98600 110000
2021-01-09 02:45 4.41 37800 122000 (2016) 34400 (2015) 69500 36200 37800 65300 98600 110000
2021-01-09 01:45 4.40 37700 122000 (2016) 34400 (2015) 69500 36200 37800 65300 98600 110000
2021-01-09 00:45 4.42 37800 122000 (2016) 34400 (2015) 69500 36200 37800 65300 98600 110000
2021-01-08 23:45 4.42 37800 88600 (2016) 33900 (2015) 63400 35700 37200 66200 87600 88100
2021-01-08 22:45 4.44 37900 88600 (2016) 33900 (2015) 63400 35700 37200 66200 87600 88100
2021-01-08 21:45 4.43 37900 88600 (2016) 33900 (2015) 63400 35700 37200 66200 87600 88100
2021-01-08 20:45 4.45 37900 88600 (2016) 33900 (2015) 63400 35700 37200 66200 87600 88100
2021-01-08 19:45 4.45 37900 88600 (2016) 33900 (2015) 63400 35700 37200 66200 87600 88100
2021-01-08 18:45 4.46 38000 88600 (2016) 33900 (2015) 63400 35700 37200 66200 87600 88100
2021-01-08 17:45 4.47 38000 88600 (2016) 33900 (2015) 63400 35700 37200 66200 87600 88100
2021-01-08 16:45 4.48 38100 88600 (2016) 33900 (2015) 63400 35700 37200 66200 87600 88100
2021-01-08 15:45 4.48 38100 88600 (2016) 33900 (2015) 63400 35700 37200 66200 87600 88100
2021-01-08 14:45 4.50 38100 88600 (2016) 33900 (2015) 63400 35700 37200 66200 87600 88100
2021-01-08 13:45 4.50 38100 88600 (2016) 33900 (2015) 63400 35700 37200 66200 87600 88100
2021-01-08 12:45 4.51 38200 88600 (2016) 33900 (2015) 63400 35700 37200 66200 87600 88100
2021-01-08 11:45 4.53 38300 88600 (2016) 33900 (2015) 63400 35700 37200 66200 87600 88100
2021-01-08 10:45 4.51 38200 88600 (2016) 33900 (2015) 63400 35700 37200 66200 87600 88100
2021-01-08 09:45 4.53 38300 88600 (2016) 33900 (2015) 63400 35700 37200 66200 87600 88100
2021-01-08 08:45 4.55 38400 88600 (2016) 33900 (2015) 63400 35700 37200 66200 87600 88100
2021-01-08 07:45 4.53 38300 88600 (2016) 33900 (2015) 63400 35700 37200 66200 87600 88100
2021-01-08 06:45 4.54 38300 88600 (2016) 33900 (2015) 63400 35700 37200 66200 87600 88100
2021-01-08 05:45 4.54 38300 88600 (2016) 33900 (2015) 63400 35700 37200 66200 87600 88100
2021-01-08 04:45 4.56 38400 88600 (2016) 33900 (2015) 63400 35700 37200 66200 87600 88100
2021-01-08 03:45 4.57 38400 88600 (2016) 33900 (2015) 63400 35700 37200 66200 87600 88100
2021-01-08 02:45 4.57 38400 88600 (2016) 33900 (2015) 63400 35700 37200 66200 87600 88100
2021-01-08 01:45 4.55 38400 88600 (2016) 33900 (2015) 63400 35700 37200 66200 87600 88100
2021-01-08 00:45 4.58 38500 88600 (2016) 33900 (2015) 63400 35700 37200 66200 87600 88100
2021-01-07 23:45 4.57 38400 87600 (2020) 33900 (2015) 62300 35500 36900 64400 86000 86700
2021-01-07 22:45 4.56 38400 87600 (2020) 33900 (2015) 62300 35500 36900 64400 86000 86700
2021-01-07 21:45 4.58 38500 87600 (2020) 33900 (2015) 62300 35500 36900 64400 86000 86700
2021-01-07 20:45 4.59 38500 87600 (2020) 33900 (2015) 62300 35500 36900 64400 86000 86700
2021-01-07 19:45 4.59 38500 87600 (2020) 33900 (2015) 62300 35500 36900 64400 86000 86700
2021-01-07 18:45 4.58 38500 87600 (2020) 33900 (2015) 62300 35500 36900 64400 86000 86700
2021-01-07 17:45 4.59 38500 87600 (2020) 33900 (2015) 62300 35500 36900 64400 86000 86700
2021-01-07 16:45 4.60 38600 87600 (2020) 33900 (2015) 62300 35500 36900 64400 86000 86700
2021-01-07 15:45 4.59 38500 87600 (2020) 33900 (2015) 62300 35500 36900 64400 86000 86700
2021-01-07 14:45 4.61 38600 87600 (2020) 33900 (2015) 62300 35500 36900 64400 86000 86700
2021-01-07 13:45 4.60 38600 87600 (2020) 33900 (2015) 62300 35500 36900 64400 86000 86700
2021-01-07 12:45 4.61 38600 87600 (2020) 33900 (2015) 62300 35500 36900 64400 86000 86700
2021-01-07 11:45 4.59 38500 87600 (2020) 33900 (2015) 62300 35500 36900 64400 86000 86700
2021-01-07 10:45 4.61 38600 87600 (2020) 33900 (2015) 62300 35500 36900 64400 86000 86700
2021-01-07 09:45 4.57 38400 87600 (2020) 33900 (2015) 62300 35500 36900 64400 86000 86700
2021-01-07 08:45 4.57 38400 87600 (2020) 33900 (2015) 62300 35500 36900 64400 86000 86700
2021-01-07 07:45 4.58 38500 87600 (2020) 33900 (2015) 62300 35500 36900 64400 86000 86700
2021-01-07 06:45 4.59 38500 87600 (2020) 33900 (2015) 62300 35500 36900 64400 86000 86700
2021-01-07 05:45 4.59 38500 87600 (2020) 33900 (2015) 62300 35500 36900 64400 86000 86700
2021-01-07 04:45 4.57 38400 87600 (2020) 33900 (2015) 62300 35500 36900 64400 86000 86700
2021-01-07 03:45 4.58 38500 87600 (2020) 33900 (2015) 62300 35500 36900 64400 86000 86700
2021-01-07 02:45 4.58 38500 87600 (2020) 33900 (2015) 62300 35500 36900 64400 86000 86700
2021-01-07 01:45 4.58 38500 87600 (2020) 33900 (2015) 62300 35500 36900 64400 86000 86700
2021-01-07 00:45 4.57 38400 87600 (2020) 33900 (2015) 62300 35500 36900 64400 86000 86700
2021-01-06 23:45 4.58 38500 92300 (2019) 35000 (2015) 63900 36200 37200 65000 89100 90600
2021-01-06 22:45 4.56 38400 92300 (2019) 35000 (2015) 63900 36200 37200 65000 89100 90600
2021-01-06 21:45 4.57 38400 92300 (2019) 35000 (2015) 63900 36200 37200 65000 89100 90600
2021-01-06 20:45 4.58 38500 92300 (2019) 35000 (2015) 63900 36200 37200 65000 89100 90600
2021-01-06 19:45 4.58 38500 92300 (2019) 35000 (2015) 63900 36200 37200 65000 89100 90600
2021-01-06 18:45 4.56 38400 92300 (2019) 35000 (2015) 63900 36200 37200 65000 89100 90600
2021-01-06 17:45 4.57 38400 92300 (2019) 35000 (2015) 63900 36200 37200 65000 89100 90600
2021-01-06 16:45 4.58 38500 92300 (2019) 35000 (2015) 63900 36200 37200 65000 89100 90600
2021-01-06 15:45 4.57 38400 92300 (2019) 35000 (2015) 63900 36200 37200 65000 89100 90600
2021-01-06 14:45 4.50 38100 92300 (2019) 35000 (2015) 63900 36200 37200 65000 89100 90600
2021-01-06 13:45 4.53 38300 92300 (2019) 35000 (2015) 63900 36200 37200 65000 89100 90600
2021-01-06 12:45 4.52 38200 92300 (2019) 35000 (2015) 63900 36200 37200 65000 89100 90600
2021-01-06 11:45 4.46 38000 92300 (2019) 35000 (2015) 63900 36200 37200 65000 89100 90600
2021-01-06 10:45 4.55 38400 92300 (2019) 35000 (2015) 63900 36200 37200 65000 89100 90600
2021-01-06 09:45 4.55 38400 92300 (2019) 35000 (2015) 63900 36200 37200 65000 89100 90600
2021-01-06 08:45 4.56 38400 92300 (2019) 35000 (2015) 63900 36200 37200 65000 89100 90600
2021-01-06 07:45 4.58 38500 92300 (2019) 35000 (2015) 63900 36200 37200 65000 89100 90600
2021-01-06 06:45 4.59 38500 92300 (2019) 35000 (2015) 63900 36200 37200 65000 89100 90600
2021-01-06 05:45 4.59 38500 92300 (2019) 35000 (2015) 63900 36200 37200 65000 89100 90600
2021-01-06 04:45 4.59 38500 92300 (2019) 35000 (2015) 63900 36200 37200 65000 89100 90600
2021-01-06 03:45 4.59 38500 92300 (2019) 35000 (2015) 63900 36200 37200 65000 89100 90600
2021-01-06 02:45 4.61 38600 92300 (2019) 35000 (2015) 63900 36200 37200 65000 89100 90600
2021-01-06 01:45 4.62 38600 92300 (2019) 35000 (2015) 63900 36200 37200 65000 89100 90600
2021-01-06 00:45 4.63 38700 92300 (2019) 35000 (2015) 63900 36200 37200 65000 89100 90600
2021-01-05 23:45 4.63 38700 103000 (2019) 36200 (2018) 66600 36400 36600 65900 94800 98600
2021-01-05 22:45 4.63 38700 103000 (2019) 36200 (2018) 66600 36400 36600 65900 94800 98600
2021-01-05 21:45 4.65 38800 103000 (2019) 36200 (2018) 66600 36400 36600 65900 94800 98600
2021-01-05 20:45 4.64 38700 103000 (2019) 36200 (2018) 66600 36400 36600 65900 94800 98600
2021-01-05 19:45 4.66 38800 103000 (2019) 36200 (2018) 66600 36400 36600 65900 94800 98600
2021-01-05 18:45 4.67 38900 103000 (2019) 36200 (2018) 66600 36400 36600 65900 94800 98600
2021-01-05 17:45 4.68 38900 103000 (2019) 36200 (2018) 66600 36400 36600 65900 94800 98600
2021-01-05 16:45 4.70 39000 103000 (2019) 36200 (2018) 66600 36400 36600 65900 94800 98600
2021-01-05 15:45 4.72 39100 103000 (2019) 36200 (2018) 66600 36400 36600 65900 94800 98600
2021-01-05 14:45 4.73 39100 103000 (2019) 36200 (2018) 66600 36400 36600 65900 94800 98600
2021-01-05 13:45 4.73 39100 103000 (2019) 36200 (2018) 66600 36400 36600 65900 94800 98600
2021-01-05 12:45 4.73 39100 103000 (2019) 36200 (2018) 66600 36400 36600 65900 94800 98600
2021-01-05 11:45 4.77 39300 103000 (2019) 36200 (2018) 66600 36400 36600 65900 94800 98600
2021-01-05 10:45 4.78 39300 103000 (2019) 36200 (2018) 66600 36400 36600 65900 94800 98600
2021-01-05 09:45 4.80 39400 103000 (2019) 36200 (2018) 66600 36400 36600 65900 94800 98600
2021-01-05 08:45 4.82 39500 103000 (2019) 36200 (2018) 66600 36400 36600 65900 94800 98600
2021-01-05 07:45 4.84 39600 103000 (2019) 36200 (2018) 66600 36400 36600 65900 94800 98600
2021-01-05 06:45 4.85 39600 103000 (2019) 36200 (2018) 66600 36400 36600 65900 94800 98600
2021-01-05 05:45 4.87 39700 103000 (2019) 36200 (2018) 66600 36400 36600 65900 94800 98600
2021-01-05 04:45 4.89 39800 103000 (2019) 36200 (2018) 66600 36400 36600 65900 94800 98600
2021-01-05 03:45 4.90 39800 103000 (2019) 36200 (2018) 66600 36400 36600 65900 94800 98600
2021-01-05 02:45 4.91 39900 103000 (2019) 36200 (2018) 66600 36400 36600 65900 94800 98600
2021-01-05 01:45 4.92 39900 103000 (2019) 36200 (2018) 66600 36400 36600 65900 94800 98600
2021-01-05 00:45 4.94 40000 103000 (2019) 36200 (2018) 66600 36400 36600 65900 94800 98600
2021-01-04 23:45 4.97 40100 115000 (2019) 34500 (2018) 70600 36500 38300 67500 104000 109000
2021-01-04 22:45 4.98 40200 115000 (2019) 34500 (2018) 70600 36500 38300 67500 104000 109000
2021-01-04 21:45 4.99 40200 115000 (2019) 34500 (2018) 70600 36500 38300 67500 104000 109000
2021-01-04 20:45 5.00 40300 115000 (2019) 34500 (2018) 70600 36500 38300 67500 104000 109000
2021-01-04 19:45 5.01 40300 115000 (2019) 34500 (2018) 70600 36500 38300 67500 104000 109000
2021-01-04 18:45 5.01 40300 115000 (2019) 34500 (2018) 70600 36500 38300 67500 104000 109000
2021-01-04 17:45 5.03 40400 115000 (2019) 34500 (2018) 70600 36500 38300 67500 104000 109000
2021-01-04 16:45 5.06 40500 115000 (2019) 34500 (2018) 70600 36500 38300 67500 104000 109000
2021-01-04 15:45 5.05 40500 115000 (2019) 34500 (2018) 70600 36500 38300 67500 104000 109000
2021-01-04 14:45 5.08 40600 115000 (2019) 34500 (2018) 70600 36500 38300 67500 104000 109000
2021-01-04 13:45 5.08 40600 115000 (2019) 34500 (2018) 70600 36500 38300 67500 104000 109000
2021-01-04 12:45 5.09 40700 115000 (2019) 34500 (2018) 70600 36500 38300 67500 104000 109000
2021-01-04 11:45 5.08 40600 115000 (2019) 34500 (2018) 70600 36500 38300 67500 104000 109000
2021-01-04 10:45 5.09 40700 115000 (2019) 34500 (2018) 70600 36500 38300 67500 104000 109000
2021-01-04 09:45 5.10 40700 115000 (2019) 34500 (2018) 70600 36500 38300 67500 104000 109000
2021-01-04 08:45 5.08 40600 115000 (2019) 34500 (2018) 70600 36500 38300 67500 104000 109000
2021-01-04 07:45 5.09 40700 115000 (2019) 34500 (2018) 70600 36500 38300 67500 104000 109000
2021-01-04 06:45 5.09 40700 115000 (2019) 34500 (2018) 70600 36500 38300 67500 104000 109000
2021-01-04 05:45 5.11 40800 115000 (2019) 34500 (2018) 70600 36500 38300 67500 104000 109000
2021-01-04 04:45 5.10 40700 115000 (2019) 34500 (2018) 70600 36500 38300 67500 104000 109000
2021-01-04 03:45 5.08 40600 115000 (2019) 34500 (2018) 70600 36500 38300 67500 104000 109000
2021-01-04 02:45 5.08 40600 115000 (2019) 34500 (2018) 70600 36500 38300 67500 104000 109000
2021-01-04 01:45 5.07 40600 115000 (2019) 34500 (2018) 70600 36500 38300 67500 104000 109000
2021-01-04 00:45 5.06 40500 115000 (2019) 34500 (2018) 70600 36500 38300 67500 104000 109000
2021-01-03 23:45 5.04 40500 141000 (2019) 34000 (2018) 78300 37300 40200 71800 117000 128000
2021-01-03 22:45 5.04 40500 141000 (2019) 34000 (2018) 78300 37300 40200 71800 117000 128000
2021-01-03 21:45 5.02 40400 141000 (2019) 34000 (2018) 78300 37300 40200 71800 117000 128000
2021-01-03 20:45 5.01 40300 141000 (2019) 34000 (2018) 78300 37300 40200 71800 117000 128000
2021-01-03 19:45 4.98 40200 141000 (2019) 34000 (2018) 78300 37300 40200 71800 117000 128000
2021-01-03 18:45 4.98 40200 141000 (2019) 34000 (2018) 78300 37300 40200 71800 117000 128000
2021-01-03 17:45 4.97 40100 141000 (2019) 34000 (2018) 78300 37300 40200 71800 117000 128000
2021-01-03 16:45 4.95 40100 141000 (2019) 34000 (2018) 78300 37300 40200 71800 117000 128000
2021-01-03 15:45 4.94 40000 141000 (2019) 34000 (2018) 78300 37300 40200 71800 117000 128000
2021-01-03 14:45 4.91 39900 141000 (2019) 34000 (2018) 78300 37300 40200 71800 117000 128000
2021-01-03 13:45 4.89 39800 141000 (2019) 34000 (2018) 78300 37300 40200 71800 117000 128000
2021-01-03 12:45 4.86 39700 141000 (2019) 34000 (2018) 78300 37300 40200 71800 117000 128000
2021-01-03 11:45 4.84 39600 141000 (2019) 34000 (2018) 78300 37300 40200 71800 117000 128000
2021-01-03 10:45 4.82 39500 141000 (2019) 34000 (2018) 78300 37300 40200 71800 117000 128000
2021-01-03 09:45 4.82 39500 141000 (2019) 34000 (2018) 78300 37300 40200 71800 117000 128000
2021-01-03 08:45 4.79 39400 141000 (2019) 34000 (2018) 78300 37300 40200 71800 117000 128000
2021-01-03 07:45 4.76 39200 141000 (2019) 34000 (2018) 78300 37300 40200 71800 117000 128000
2021-01-03 06:45 4.76 39200 141000 (2019) 34000 (2018) 78300 37300 40200 71800 117000 128000
2021-01-03 05:45 4.74 39200 141000 (2019) 34000 (2018) 78300 37300 40200 71800 117000 128000
2021-01-03 04:45 4.71 39000 141000 (2019) 34000 (2018) 78300 37300 40200 71800 117000 128000
2021-01-03 03:45 4.70 39000 141000 (2019) 34000 (2018) 78300 37300 40200 71800 117000 128000
2021-01-03 02:45 4.68 38900 141000 (2019) 34000 (2018) 78300 37300 40200 71800 117000 128000
2021-01-03 01:45 4.67 38900 141000 (2019) 34000 (2018) 78300 37300 40200 71800 117000 128000
2021-01-03 00:45 4.65 38800 141000 (2019) 34000 (2018) 78300 37300 40200 71800 117000 128000
2021-01-02 23:45 4.62 38600 171000 (2019) 34500 (2018) 88000 38400 41800 79200 133000 151000
2021-01-02 22:45 4.61 38600 171000 (2019) 34500 (2018) 88000 38400 41800 79200 133000 151000
2021-01-02 21:45 4.59 38500 171000 (2019) 34500 (2018) 88000 38400 41800 79200 133000 151000
2021-01-02 20:45 4.57 38400 171000 (2019) 34500 (2018) 88000 38400 41800 79200 133000 151000
2021-01-02 19:45 4.53 38300 171000 (2019) 34500 (2018) 88000 38400 41800 79200 133000 151000
2021-01-02 18:45 4.53 38300 171000 (2019) 34500 (2018) 88000 38400 41800 79200 133000 151000
2021-01-02 17:45 4.49 38100 171000 (2019) 34500 (2018) 88000 38400 41800 79200 133000 151000
2021-01-02 16:45 4.47 38000 171000 (2019) 34500 (2018) 88000 38400 41800 79200 133000 151000
2021-01-02 15:45 4.44 37900 171000 (2019) 34500 (2018) 88000 38400 41800 79200 133000 151000
2021-01-02 14:45 4.43 37900 171000 (2019) 34500 (2018) 88000 38400 41800 79200 133000 151000
2021-01-02 13:45 4.39 37700 171000 (2019) 34500 (2018) 88000 38400 41800 79200 133000 151000
2021-01-02 12:45 4.38 37600 171000 (2019) 34500 (2018) 88000 38400 41800 79200 133000 151000
2021-01-02 11:45 4.36 37600 171000 (2019) 34500 (2018) 88000 38400 41800 79200 133000 151000
2021-01-02 10:45 4.32 37400 171000 (2019) 34500 (2018) 88000 38400 41800 79200 133000 151000
2021-01-02 09:45 4.29 37300 171000 (2019) 34500 (2018) 88000 38400 41800 79200 133000 151000
2021-01-02 08:45 4.28 37200 171000 (2019) 34500 (2018) 88000 38400 41800 79200 133000 151000
2021-01-02 07:45 4.23 37000 171000 (2019) 34500 (2018) 88000 38400 41800 79200 133000 151000
2021-01-02 06:45 4.21 37000 171000 (2019) 34500 (2018) 88000 38400 41800 79200 133000 151000
2021-01-02 05:45 4.20 36900 171000 (2019) 34500 (2018) 88000 38400 41800 79200 133000 151000
2021-01-02 04:45 4.16 36700 171000 (2019) 34500 (2018) 88000 38400 41800 79200 133000 151000
2021-01-02 03:45 4.14 36700 171000 (2019) 34500 (2018) 88000 38400 41800 79200 133000 151000
2021-01-02 02:45 4.11 36500 171000 (2019) 34500 (2018) 88000 38400 41800 79200 133000 151000
2021-01-02 01:45 4.09 36500 171000 (2019) 34500 (2018) 88000 38400 41800 79200 133000 151000
2021-01-02 00:45 4.06 36300 171000 (2019) 34500 (2018) 88000 38400 41800 79200 133000 151000
2021-01-01 23:45 4.05 36300 184000 (2019) 36300 (2018) 95000 40000 43300 87100 143000 162000
2021-01-01 22:45 4.01 36100 184000 (2019) 36300 (2018) 95000 40000 43300 87100 143000 162000
2021-01-01 21:45 4.00 36100 184000 (2019) 36300 (2018) 95000 40000 43300 87100 143000 162000
2021-01-01 20:45 3.98 36000 184000 (2019) 36300 (2018) 95000 40000 43300 87100 143000 162000
2021-01-01 19:45 3.93 35800 184000 (2019) 36300 (2018) 95000 40000 43300 87100 143000 162000
2021-01-01 18:45 3.92 35800 184000 (2019) 36300 (2018) 95000 40000 43300 87100 143000 162000
2021-01-01 17:45 3.88 35600 184000 (2019) 36300 (2018) 95000 40000 43300 87100 143000 162000
2021-01-01 16:45 3.88 35600 184000 (2019) 36300 (2018) 95000 40000 43300 87100 143000 162000
2021-01-01 15:45 3.85 35500 184000 (2019) 36300 (2018) 95000 40000 43300 87100 143000 162000
2021-01-01 14:45 3.85 35500 184000 (2019) 36300 (2018) 95000 40000 43300 87100 143000 162000
2021-01-01 13:45 3.82 35400 184000 (2019) 36300 (2018) 95000 40000 43300 87100 143000 162000
2021-01-01 12:45 3.80 35300 184000 (2019) 36300 (2018) 95000 40000 43300 87100 143000 162000
2021-01-01 11:45 3.79 35300 184000 (2019) 36300 (2018) 95000 40000 43300 87100 143000 162000
2021-01-01 10:45 3.78 35200 184000 (2019) 36300 (2018) 95000 40000 43300 87100 143000 162000
2021-01-01 09:45 3.79 35300 184000 (2019) 36300 (2018) 95000 40000 43300 87100 143000 162000
2021-01-01 08:45 3.78 35200 184000 (2019) 36300 (2018) 95000 40000 43300 87100 143000 162000
2021-01-01 07:45 3.79 35300 184000 (2019) 36300 (2018) 95000 40000 43300 87100 143000 162000
2021-01-01 06:45 3.79 35300 184000 (2019) 36300 (2018) 95000 40000 43300 87100 143000 162000
2021-01-01 05:45 3.74 35100 184000 (2019) 36300 (2018) 95000 40000 43300 87100 143000 162000
2021-01-01 04:45 3.72 35000 184000 (2019) 36300 (2018) 95000 40000 43300 87100 143000 162000
2021-01-01 03:45 3.72 35000 184000 (2019) 36300 (2018) 95000 40000 43300 87100 143000 162000
2021-01-01 02:45 3.70 34900 184000 (2019) 36300 (2018) 95000 40000 43300 87100 143000 162000
2021-01-01 01:45 3.71 35000 184000 (2019) 36300 (2018) 95000 40000 43300 87100 143000 162000
2021-01-01 00:45 3.73 35000 184000 (2019) 36300 (2018) 95000 40000 43300 87100 143000 162000
2020-12-31 23:45 3.71 35000 161000 (2019) 38800 (2018) 95700 41800 44400 96000 142000 151000
2020-12-31 22:45 3.73 35000 161000 (2019) 38800 (2018) 95700 41800 44400 96000 142000 151000
2020-12-31 21:45 3.74 35100 161000 (2019) 38800 (2018) 95700 41800 44400 96000 142000 151000
2020-12-31 20:45 3.76 35200 161000 (2019) 38800 (2018) 95700 41800 44400 96000 142000 151000
2020-12-31 19:45 3.74 35100 161000 (2019) 38800 (2018) 95700 41800 44400 96000 142000 151000
2020-12-31 18:45 3.78 35200 161000 (2019) 38800 (2018) 95700 41800 44400 96000 142000 151000
2020-12-31 17:45 3.77 35200 161000 (2019) 38800 (2018) 95700 41800 44400 96000 142000 151000
2020-12-31 16:45 3.78 35200 161000 (2019) 38800 (2018) 95700 41800 44400 96000 142000 151000
2020-12-31 15:45 3.79 35300 161000 (2019) 38800 (2018) 95700 41800 44400 96000 142000 151000
2020-12-31 14:45 3.79 35300 161000 (2019) 38800 (2018) 95700 41800 44400 96000 142000 151000
2020-12-31 13:45 3.80 35300 161000 (2019) 38800 (2018) 95700 41800 44400 96000 142000 151000
2020-12-31 12:45 3.80 35300 161000 (2019) 38800 (2018) 95700 41800 44400 96000 142000 151000
2020-12-31 11:45 3.80 35300 161000 (2019) 38800 (2018) 95700 41800 44400 96000 142000 151000
2020-12-31 10:45 3.81 35400 161000 (2019) 38800 (2018) 95700 41800 44400 96000 142000 151000
2020-12-31 09:45 3.83 35400 161000 (2019) 38800 (2018) 95700 41800 44400 96000 142000 151000
2020-12-31 08:45 3.84 35500 161000 (2019) 38800 (2018) 95700 41800 44400 96000 142000 151000
2020-12-31 07:45 3.85 35500 161000 (2019) 38800 (2018) 95700 41800 44400 96000 142000 151000
2020-12-31 06:45 3.85 35500 161000 (2019) 38800 (2018) 95700 41800 44400 96000 142000 151000
2020-12-31 05:45 3.87 35600 161000 (2019) 38800 (2018) 95700 41800 44400 96000 142000 151000
2020-12-31 04:45 3.87 35600 161000 (2019) 38800 (2018) 95700 41800 44400 96000 142000 151000
2020-12-31 03:45 3.86 35500 161000 (2019) 38800 (2018) 95700 41800 44400 96000 142000 151000
2020-12-31 02:45 3.87 35600 161000 (2019) 38800 (2018) 95700 41800 44400 96000 142000 151000
2020-12-31 01:45 3.87 35600 161000 (2019) 38800 (2018) 95700 41800 44400 96000 142000 151000
2020-12-31 00:45 3.87 35600 161000 (2019) 38800 (2018) 95700 41800 44400 96000 142000 151000
2020-12-30 23:45 3.88 35600 165000 (2016) 40800 (2018) 91200 43300 45500 85200 134000 149000
2020-12-30 22:45 3.88 35600 165000 (2016) 40800 (2018) 91200 43300 45500 85200 134000 149000
2020-12-30 21:45 3.89 35700 165000 (2016) 40800 (2018) 91200 43300 45500 85200 134000 149000
2020-12-30 20:45 3.89 35700 165000 (2016) 40800 (2018) 91200 43300 45500 85200 134000 149000
2020-12-30 19:45 3.90 35700 165000 (2016) 40800 (2018) 91200 43300 45500 85200 134000 149000
2020-12-30 18:45 3.89 35700 165000 (2016) 40800 (2018) 91200 43300 45500 85200 134000 149000
2020-12-30 17:45 3.87 35600 165000 (2016) 40800 (2018) 91200 43300 45500 85200 134000 149000
2020-12-30 16:45 3.89 35700 165000 (2016) 40800 (2018) 91200 43300 45500 85200 134000 149000
2020-12-30 15:45 3.90 35700 165000 (2016) 40800 (2018) 91200 43300 45500 85200 134000 149000
2020-12-30 14:45 3.89 35700 165000 (2016) 40800 (2018) 91200 43300 45500 85200 134000 149000
2020-12-30 13:45 3.88 35600 165000 (2016) 40800 (2018) 91200 43300 45500 85200 134000 149000
2020-12-30 12:45 3.87 35600 165000 (2016) 40800 (2018) 91200 43300 45500 85200 134000 149000
2020-12-30 11:45 3.87 35600 165000 (2016) 40800 (2018) 91200 43300 45500 85200 134000 149000
2020-12-30 10:45 3.87 35600 165000 (2016) 40800 (2018) 91200 43300 45500 85200 134000 149000
2020-12-30 09:45 3.87 35600 165000 (2016) 40800 (2018) 91200 43300 45500 85200 134000 149000
2020-12-30 08:45 3.85 35500 165000 (2016) 40800 (2018) 91200 43300 45500 85200 134000 149000
2020-12-30 07:45 3.86 35500 165000 (2016) 40800 (2018) 91200 43300 45500 85200 134000 149000
2020-12-30 06:45 3.85 35500 165000 (2016) 40800 (2018) 91200 43300 45500 85200 134000 149000
2020-12-30 05:45 3.81 35400 165000 (2016) 40800 (2018) 91200 43300 45500 85200 134000 149000
2020-12-30 04:45 3.80 35300 165000 (2016) 40800 (2018) 91200 43300 45500 85200 134000 149000
2020-12-30 03:45 3.84 35500 165000 (2016) 40800 (2018) 91200 43300 45500 85200 134000 149000
2020-12-30 02:45 3.82 35400 165000 (2016) 40800 (2018) 91200 43300 45500 85200 134000 149000
2020-12-30 01:45 3.80 35300 165000 (2016) 40800 (2018) 91200 43300 45500 85200 134000 149000
2020-12-30 00:45 3.81 35400 165000 (2016) 40800 (2018) 91200 43300 45500 85200 134000 149000
2020-12-29 23:45 3.72 35000 185000 (2016) 41800 (2018) 84800 43000 44100 69800 119000 150000
2020-12-29 22:45 3.68 34800 185000 (2016) 41800 (2018) 84800 43000 44100 69800 119000 150000
2020-12-29 21:45 3.78 35200 185000 (2016) 41800 (2018) 84800 43000 44100 69800 119000 150000
2020-12-29 20:45 3.76 35200 185000 (2016) 41800 (2018) 84800 43000 44100 69800 119000 150000
2020-12-29 19:45 3.68 34800 185000 (2016) 41800 (2018) 84800 43000 44100 69800 119000 150000
2020-12-29 18:45 3.72 35000 185000 (2016) 41800 (2018) 84800 43000 44100 69800 119000 150000
2020-12-29 17:45 3.69 34900 185000 (2016) 41800 (2018) 84800 43000 44100 69800 119000 150000
2020-12-29 16:45 3.65 34700 185000 (2016) 41800 (2018) 84800 43000 44100 69800 119000 150000
2020-12-29 15:45 3.65 34700 185000 (2016) 41800 (2018) 84800 43000 44100 69800 119000 150000
2020-12-29 14:45 3.65 34700 185000 (2016) 41800 (2018) 84800 43000 44100 69800 119000 150000
2020-12-29 13:45 3.65 34700 185000 (2016) 41800 (2018) 84800 43000 44100 69800 119000 150000
2020-12-29 12:45 3.62 34600 185000 (2016) 41800 (2018) 84800 43000 44100 69800 119000 150000
2020-12-29 11:45 3.62 34600 185000 (2016) 41800 (2018) 84800 43000 44100 69800 119000 150000
2020-12-29 10:45 3.70 34900 185000 (2016) 41800 (2018) 84800 43000 44100 69800 119000 150000
2020-12-29 09:45 3.71 35000 185000 (2016) 41800 (2018) 84800 43000 44100 69800 119000 150000
2020-12-29 08:45 3.63 34700 185000 (2016) 41800 (2018) 84800 43000 44100 69800 119000 150000
2020-12-29 07:45 3.63 34700 185000 (2016) 41800 (2018) 84800 43000 44100 69800 119000 150000
2020-12-29 06:45 3.68 34800 185000 (2016) 41800 (2018) 84800 43000 44100 69800 119000 150000
2020-12-29 05:45 3.64 34700 185000 (2016) 41800 (2018) 84800 43000 44100 69800 119000 150000
2020-12-29 04:45 3.70 34900 185000 (2016) 41800 (2018) 84800 43000 44100 69800 119000 150000
2020-12-29 03:45 3.70 34900 185000 (2016) 41800 (2018) 84800 43000 44100 69800 119000 150000
2020-12-29 02:45 3.69 34900 185000 (2016) 41800 (2018) 84800 43000 44100 69800 119000 150000
2020-12-29 01:45 3.70 34900 185000 (2016) 41800 (2018) 84800 43000 44100 69800 119000 150000
2020-12-29 00:45 3.69 34900 185000 (2016) 41800 (2018) 84800 43000 44100 69800 119000 150000
2020-12-28 23:45 3.68 34800 165000 (2016) 42800 (2018) 77200 43400 44000 63000 105000 133000
2020-12-28 22:45 3.68 34800 165000 (2016) 42800 (2018) 77200 43400 44000 63000 105000 133000
2020-12-28 21:45 3.68 34800 165000 (2016) 42800 (2018) 77200 43400 44000 63000 105000 133000
2020-12-28 20:45 3.68 34800 165000 (2016) 42800 (2018) 77200 43400 44000 63000 105000 133000
2020-12-28 19:45 3.68 34800 165000 (2016) 42800 (2018) 77200 43400 44000 63000 105000 133000
2020-12-28 18:45 3.66 34800 165000 (2016) 42800 (2018) 77200 43400 44000 63000 105000 133000
2020-12-28 17:45 3.64 34700 165000 (2016) 42800 (2018) 77200 43400 44000 63000 105000 133000
2020-12-28 16:45 3.64 34700 165000 (2016) 42800 (2018) 77200 43400 44000 63000 105000 133000
2020-12-28 15:45 3.63 34700 165000 (2016) 42800 (2018) 77200 43400 44000 63000 105000 133000
2020-12-28 14:45 3.61 34600 165000 (2016) 42800 (2018) 77200 43400 44000 63000 105000 133000
2020-12-28 13:45 3.61 34600 165000 (2016) 42800 (2018) 77200 43400 44000 63000 105000 133000
2020-12-28 12:45 3.61 34600 165000 (2016) 42800 (2018) 77200 43400 44000 63000 105000 133000
2020-12-28 11:45 3.60 34500 165000 (2016) 42800 (2018) 77200 43400 44000 63000 105000 133000
2020-12-28 10:45 3.59 34500 165000 (2016) 42800 (2018) 77200 43400 44000 63000 105000 133000
2020-12-28 09:45 3.59 34500 165000 (2016) 42800 (2018) 77200 43400 44000 63000 105000 133000
2020-12-28 08:45 3.58 34500 165000 (2016) 42800 (2018) 77200 43400 44000 63000 105000 133000
2020-12-28 07:45 3.58 34500 165000 (2016) 42800 (2018) 77200 43400 44000 63000 105000 133000
2020-12-28 06:45 3.58 34500 165000 (2016) 42800 (2018) 77200 43400 44000 63000 105000 133000
2020-12-28 05:45 3.59 34500 165000 (2016) 42800 (2018) 77200 43400 44000 63000 105000 133000
2020-12-28 04:45 3.57 34400 165000 (2016) 42800 (2018) 77200 43400 44000 63000 105000 133000
2020-12-28 03:45 3.57 34400 165000 (2016) 42800 (2018) 77200 43400 44000 63000 105000 133000
2020-12-28 02:45 3.56 34400 165000 (2016) 42800 (2018) 77200 43400 44000 63000 105000 133000
2020-12-28 01:45 3.55 34300 165000 (2016) 42800 (2018) 77200 43400 44000 63000 105000 133000
2020-12-28 00:45 3.54 34300 165000 (2016) 42800 (2018) 77200 43400 44000 63000 105000 133000
2020-12-27 23:45 3.54 34300 140000 (2016) 43400 (2018) 72200 43500 43600 62500 95500 116000
2020-12-27 22:45 3.52 34200 140000 (2016) 43400 (2018) 72200 43500 43600 62500 95500 116000
2020-12-27 21:45 3.51 34200 140000 (2016) 43400 (2018) 72200 43500 43600 62500 95500 116000
2020-12-27 20:45 3.51 34200 140000 (2016) 43400 (2018) 72200 43500 43600 62500 95500 116000
2020-12-27 19:45 3.36 33600 140000 (2016) 43400 (2018) 72200 43500 43600 62500 95500 116000
2020-12-27 18:45 3.42 33800 140000 (2016) 43400 (2018) 72200 43500 43600 62500 95500 116000
2020-12-27 17:45 3.40 33800 140000 (2016) 43400 (2018) 72200 43500 43600 62500 95500 116000
2020-12-27 16:45 3.42 33800 140000 (2016) 43400 (2018) 72200 43500 43600 62500 95500 116000
2020-12-27 15:45 3.48 34100 140000 (2016) 43400 (2018) 72200 43500 43600 62500 95500 116000
2020-12-27 14:45 3.44 33900 140000 (2016) 43400 (2018) 72200 43500 43600 62500 95500 116000
2020-12-27 13:45 3.48 34100 140000 (2016) 43400 (2018) 72200 43500 43600 62500 95500 116000
2020-12-27 12:45 3.49 34100 140000 (2016) 43400 (2018) 72200 43500 43600 62500 95500 116000
2020-12-27 11:45 3.47 34000 140000 (2016) 43400 (2018) 72200 43500 43600 62500 95500 116000
2020-12-27 10:45 3.43 33900 140000 (2016) 43400 (2018) 72200 43500 43600 62500 95500 116000
2020-12-27 09:45 3.48 34100 140000 (2016) 43400 (2018) 72200 43500 43600 62500 95500 116000
2020-12-27 08:45 3.47 34000 140000 (2016) 43400 (2018) 72200 43500 43600 62500 95500 116000
2020-12-27 07:45 3.48 34100 140000 (2016) 43400 (2018) 72200 43500 43600 62500 95500 116000
2020-12-27 06:45 3.48 34100 140000 (2016) 43400 (2018) 72200 43500 43600 62500 95500 116000
2020-12-27 05:45 3.47 34000 140000 (2016) 43400 (2018) 72200 43500 43600 62500 95500 116000
2020-12-27 04:45 3.47 34000 140000 (2016) 43400 (2018) 72200 43500 43600 62500 95500 116000
2020-12-27 03:45 3.48 34100 140000 (2016) 43400 (2018) 72200 43500 43600 62500 95500 116000
2020-12-27 02:45 3.48 34100 140000 (2016) 43400 (2018) 72200 43500 43600 62500 95500 116000
2020-12-27 01:45 3.48 34100 140000 (2016) 43400 (2018) 72200 43500 43600 62500 95500 116000
2020-12-27 00:45 3.47 34000 140000 (2016) 43400 (2018) 72200 43500 43600 62500 95500 116000
2020-12-26 23:45 3.47 34000 118000 (2016) 43200 (2017) 68500 43500 43700 62700 89700 103000
2020-12-26 22:45 3.47 34000 118000 (2016) 43200 (2017) 68500 43500 43700 62700 89700 103000
2020-12-26 21:45 3.48 34100 118000 (2016) 43200 (2017) 68500 43500 43700 62700 89700 103000
2020-12-26 20:45 3.47 34000 118000 (2016) 43200 (2017) 68500 43500 43700 62700 89700 103000
2020-12-26 19:45 3.47 34000 118000 (2016) 43200 (2017) 68500 43500 43700 62700 89700 103000
2020-12-26 18:45 3.47 34000 118000 (2016) 43200 (2017) 68500 43500 43700 62700 89700 103000
2020-12-26 17:45 3.47 34000 118000 (2016) 43200 (2017) 68500 43500 43700 62700 89700 103000
2020-12-26 16:45 3.48 34100 118000 (2016) 43200 (2017) 68500 43500 43700 62700 89700 103000
2020-12-26 15:45 3.48 34100 118000 (2016) 43200 (2017) 68500 43500 43700 62700 89700 103000
2020-12-26 14:45 3.46 34000 118000 (2016) 43200 (2017) 68500 43500 43700 62700 89700 103000
2020-12-26 13:45 3.47 34000 118000 (2016) 43200 (2017) 68500 43500 43700 62700 89700 103000
2020-12-26 12:45 3.43 33900 118000 (2016) 43200 (2017) 68500 43500 43700 62700 89700 103000
2020-12-26 11:45 3.46 34000 118000 (2016) 43200 (2017) 68500 43500 43700 62700 89700 103000
2020-12-26 10:45 3.47 34000 118000 (2016) 43200 (2017) 68500 43500 43700 62700 89700 103000
2020-12-26 09:45 3.47 34000 118000 (2016) 43200 (2017) 68500 43500 43700 62700 89700 103000
2020-12-26 08:45 3.46 34000 118000 (2016) 43200 (2017) 68500 43500 43700 62700 89700 103000
2020-12-26 07:45 3.45 34000 118000 (2016) 43200 (2017) 68500 43500 43700 62700 89700 103000
2020-12-26 06:45 3.45 34000 118000 (2016) 43200 (2017) 68500 43500 43700 62700 89700 103000
2020-12-26 05:45 3.44 33900 118000 (2016) 43200 (2017) 68500 43500 43700 62700 89700 103000
2020-12-26 04:45 3.46 34000 118000 (2016) 43200 (2017) 68500 43500 43700 62700 89700 103000
2020-12-26 03:45 3.45 34000 118000 (2016) 43200 (2017) 68500 43500 43700 62700 89700 103000
2020-12-26 02:45 3.45 34000 118000 (2016) 43200 (2017) 68500 43500 43700 62700 89700 103000
2020-12-26 01:45 3.47 34000 118000 (2016) 43200 (2017) 68500 43500 43700 62700 89700 103000
2020-12-26 00:45 3.46 34000 118000 (2016) 43200 (2017) 68500 43500 43700 62700 89700 103000
2020-12-25 23:45 3.46 34000 109000 (2016) 42400 (2017) 67100 43400 44200 62700 88100 97800
2020-12-25 22:45 3.47 34000 109000 (2016) 42400 (2017) 67100 43400 44200 62700 88100 97800
2020-12-25 21:45 3.46 34000 109000 (2016) 42400 (2017) 67100 43400 44200 62700 88100 97800
2020-12-25 20:45 3.45 34000 109000 (2016) 42400 (2017) 67100 43400 44200 62700 88100 97800
2020-12-25 19:45 3.47 34000 109000 (2016) 42400 (2017) 67100 43400 44200 62700 88100 97800
2020-12-25 18:45 3.45 34000 109000 (2016) 42400 (2017) 67100 43400 44200 62700 88100 97800
2020-12-25 17:45 3.46 34000 109000 (2016) 42400 (2017) 67100 43400 44200 62700 88100 97800
2020-12-25 16:45 3.46 34000 109000 (2016) 42400 (2017) 67100 43400 44200 62700 88100 97800
2020-12-25 15:45 3.47 34000 109000 (2016) 42400 (2017) 67100 43400 44200 62700 88100 97800
2020-12-25 14:45 3.46 34000 109000 (2016) 42400 (2017) 67100 43400 44200 62700 88100 97800
2020-12-25 13:45 3.46 34000 109000 (2016) 42400 (2017) 67100 43400 44200 62700 88100 97800
2020-12-25 12:45 3.47 34000 109000 (2016) 42400 (2017) 67100 43400 44200 62700 88100 97800
2020-12-25 11:45 3.45 34000 109000 (2016) 42400 (2017) 67100 43400 44200 62700 88100 97800
2020-12-25 10:45 3.47 34000 109000 (2016) 42400 (2017) 67100 43400 44200 62700 88100 97800
2020-12-25 09:45 3.46 34000 109000 (2016) 42400 (2017) 67100 43400 44200 62700 88100 97800
2020-12-25 08:45 3.48 34100 109000 (2016) 42400 (2017) 67100 43400 44200 62700 88100 97800
2020-12-25 07:45 3.49 34100 109000 (2016) 42400 (2017) 67100 43400 44200 62700 88100 97800
2020-12-25 06:45 3.49 34100 109000 (2016) 42400 (2017) 67100 43400 44200 62700 88100 97800
2020-12-25 05:45 3.51 34200 109000 (2016) 42400 (2017) 67100 43400 44200 62700 88100 97800
2020-12-25 04:45 3.49 34100 109000 (2016) 42400 (2017) 67100 43400 44200 62700 88100 97800
2020-12-25 03:45 3.51 34200 109000 (2016) 42400 (2017) 67100 43400 44200 62700 88100 97800
2020-12-25 02:45 3.49 34100 109000 (2016) 42400 (2017) 67100 43400 44200 62700 88100 97800
2020-12-25 01:45 3.51 34200 109000 (2016) 42400 (2017) 67100 43400 44200 62700 88100 97800
2020-12-25 00:45 3.47 34000 109000 (2016) 42400 (2017) 67100 43400 44200 62700 88100 97800
2020-12-24 23:45 3.43 33900 115000 (2016) 41600 (2017) 68300 43200 44600 63200 89800 102000
2020-12-24 22:45 3.42 33800 115000 (2016) 41600 (2017) 68300 43200 44600 63200 89800 102000
2020-12-24 21:45 3.44 33900 115000 (2016) 41600 (2017) 68300 43200 44600 63200 89800 102000
2020-12-24 20:45 3.51 34200 115000 (2016) 41600 (2017) 68300 43200 44600 63200 89800 102000
2020-12-24 19:45 3.49 34100 115000 (2016) 41600 (2017) 68300 43200 44600 63200 89800 102000
2020-12-24 18:45 3.49 34100 115000 (2016) 41600 (2017) 68300 43200 44600 63200 89800 102000
2020-12-24 17:45 3.45 34000 115000 (2016) 41600 (2017) 68300 43200 44600 63200 89800 102000
2020-12-24 16:45 3.36 33600 115000 (2016) 41600 (2017) 68300 43200 44600 63200 89800 102000
2020-12-24 15:45 3.34 33500 115000 (2016) 41600 (2017) 68300 43200 44600 63200 89800 102000
2020-12-24 14:45 3.39 33700 115000 (2016) 41600 (2017) 68300 43200 44600 63200 89800 102000
2020-12-24 13:45 3.35 33600 115000 (2016) 41600 (2017) 68300 43200 44600 63200 89800 102000
2020-12-24 12:45 3.38 33700 115000 (2016) 41600 (2017) 68300 43200 44600 63200 89800 102000
2020-12-24 11:45 3.38 33700 115000 (2016) 41600 (2017) 68300 43200 44600 63200 89800 102000
2020-12-24 10:45 3.47 34000 115000 (2016) 41600 (2017) 68300 43200 44600 63200 89800 102000
2020-12-24 09:45 3.48 34100 115000 (2016) 41600 (2017) 68300 43200 44600 63200 89800 102000
2020-12-24 08:45 3.43 33900 115000 (2016) 41600 (2017) 68300 43200 44600 63200 89800 102000
2020-12-24 07:45 3.43 33900 115000 (2016) 41600 (2017) 68300 43200 44600 63200 89800 102000
2020-12-24 06:45 3.46 34000 115000 (2016) 41600 (2017) 68300 43200 44600 63200 89800 102000
2020-12-24 05:45 3.43 33900 115000 (2016) 41600 (2017) 68300 43200 44600 63200 89800 102000
2020-12-24 04:45 3.44 33900 115000 (2016) 41600 (2017) 68300 43200 44600 63200 89800 102000
2020-12-24 03:45 3.51 34200 115000 (2016) 41600 (2017) 68300 43200 44600 63200 89800 102000
2020-12-24 02:45 3.51 34200 115000 (2016) 41600 (2017) 68300 43200 44600 63200 89800 102000
2020-12-24 01:45 3.51 34200 115000 (2016) 41600 (2017) 68300 43200 44600 63200 89800 102000
2020-12-24 00:45 3.48 34100 115000 (2016) 41600 (2017) 68300 43200 44600 63200 89800 102000
2020-12-23 23:45 3.42 33800 117000 (2016) 41100 (2017) 68600 43000 44700 63500 89800 103000
2020-12-23 22:45 3.51 34200 117000 (2016) 41100 (2017) 68600 43000 44700 63500 89800 103000
2020-12-23 21:45 3.41 33800 117000 (2016) 41100 (2017) 68600 43000 44700 63500 89800 103000
2020-12-23 20:45 3.49 34100 117000 (2016) 41100 (2017) 68600 43000 44700 63500 89800 103000
2020-12-23 19:45 3.44 33900 117000 (2016) 41100 (2017) 68600 43000 44700 63500 89800 103000
2020-12-23 18:45 3.52 34200 117000 (2016) 41100 (2017) 68600 43000 44700 63500 89800 103000
2020-12-23 17:45 3.51 34200 117000 (2016) 41100 (2017) 68600 43000 44700 63500 89800 103000
2020-12-23 16:45 3.45 34000 117000 (2016) 41100 (2017) 68600 43000 44700 63500 89800 103000
2020-12-23 15:45 3.45 34000 117000 (2016) 41100 (2017) 68600 43000 44700 63500 89800 103000
2020-12-23 14:45 3.54 34300 117000 (2016) 41100 (2017) 68600 43000 44700 63500 89800 103000
2020-12-23 13:45 3.52 34200 117000 (2016) 41100 (2017) 68600 43000 44700 63500 89800 103000
2020-12-23 12:45 3.59 34500 117000 (2016) 41100 (2017) 68600 43000 44700 63500 89800 103000
2020-12-23 11:45 3.56 34400 117000 (2016) 41100 (2017) 68600 43000 44700 63500 89800 103000
2020-12-23 10:45 3.58 34500 117000 (2016) 41100 (2017) 68600 43000 44700 63500 89800 103000
2020-12-23 09:45 3.54 34300 117000 (2016) 41100 (2017) 68600 43000 44700 63500 89800 103000
2020-12-23 08:45 3.54 34300 117000 (2016) 41100 (2017) 68600 43000 44700 63500 89800 103000
2020-12-23 07:45 3.58 34500 117000 (2016) 41100 (2017) 68600 43000 44700 63500 89800 103000
2020-12-23 06:45 3.56 34400 117000 (2016) 41100 (2017) 68600 43000 44700 63500 89800 103000
2020-12-23 05:45 3.54 34300 117000 (2016) 41100 (2017) 68600 43000 44700 63500 89800 103000
2020-12-23 04:45 3.55 34300 117000 (2016) 41100 (2017) 68600 43000 44700 63500 89800 103000
2020-12-23 03:45 3.54 34300 117000 (2016) 41100 (2017) 68600 43000 44700 63500 89800 103000
2020-12-23 02:45 3.55 34300 117000 (2016) 41100 (2017) 68600 43000 44700 63500 89800 103000
2020-12-23 01:45 3.57 34400 117000 (2016) 41100 (2017) 68600 43000 44700 63500 89800 103000
2020-12-23 00:45 3.60 34500 117000 (2016) 41100 (2017) 68600 43000 44700 63500 89800 103000
2020-12-22 23:45 3.59 34500 123000 (2016) 42000 (2017) 70000 43500 44900 63500 92500 107000
2020-12-22 22:45 3.59 34500 123000 (2016) 42000 (2017) 70000 43500 44900 63500 92500 107000
2020-12-22 21:45 3.62 34600 123000 (2016) 42000 (2017) 70000 43500 44900 63500 92500 107000
2020-12-22 20:45 3.59 34500 123000 (2016) 42000 (2017) 70000 43500 44900 63500 92500 107000
2020-12-22 19:45 3.59 34500 123000 (2016) 42000 (2017) 70000 43500 44900 63500 92500 107000
2020-12-22 18:45 3.61 34600 123000 (2016) 42000 (2017) 70000 43500 44900 63500 92500 107000
2020-12-22 17:45 3.65 34700 123000 (2016) 42000 (2017) 70000 43500 44900 63500 92500 107000
2020-12-22 16:45 3.58 34500 123000 (2016) 42000 (2017) 70000 43500 44900 63500 92500 107000
2020-12-22 15:45 3.60 34500 123000 (2016) 42000 (2017) 70000 43500 44900 63500 92500 107000
2020-12-22 14:45 3.63 34700 123000 (2016) 42000 (2017) 70000 43500 44900 63500 92500 107000
2020-12-22 13:45 3.65 34700 123000 (2016) 42000 (2017) 70000 43500 44900 63500 92500 107000
2020-12-22 12:45 3.70 34900 123000 (2016) 42000 (2017) 70000 43500 44900 63500 92500 107000
2020-12-22 11:45 3.70 34900 123000 (2016) 42000 (2017) 70000 43500 44900 63500 92500 107000
2020-12-22 10:45 3.71 35000 123000 (2016) 42000 (2017) 70000 43500 44900 63500 92500 107000
2020-12-22 09:45 3.71 35000 123000 (2016) 42000 (2017) 70000 43500 44900 63500 92500 107000
2020-12-22 08:45 3.73 35000 123000 (2016) 42000 (2017) 70000 43500 44900 63500 92500 107000
2020-12-22 07:45 3.73 35000 123000 (2016) 42000 (2017) 70000 43500 44900 63500 92500 107000
2020-12-22 06:45 3.74 35100 123000 (2016) 42000 (2017) 70000 43500 44900 63500 92500 107000
2020-12-22 05:45 3.74 35100 123000 (2016) 42000 (2017) 70000 43500 44900 63500 92500 107000
2020-12-22 04:45 3.74 35100 123000 (2016) 42000 (2017) 70000 43500 44900 63500 92500 107000
2020-12-22 03:45 3.74 35100 123000 (2016) 42000 (2017) 70000 43500 44900 63500 92500 107000
2020-12-22 02:45 3.75 35100 123000 (2016) 42000 (2017) 70000 43500 44900 63500 92500 107000
2020-12-22 01:45 3.76 35200 123000 (2016) 42000 (2017) 70000 43500 44900 63500 92500 107000
2020-12-22 00:45 3.76 35200 123000 (2016) 42000 (2017) 70000 43500 44900 63500 92500 107000
2020-12-21 23:45 3.79 35300 145000 (2016) 42400 (2017) 74200 43700 44800 63700 99900 121000
2020-12-21 22:45 3.80 35300 145000 (2016) 42400 (2017) 74200 43700 44800 63700 99900 121000
2020-12-21 21:45 3.79 35300 145000 (2016) 42400 (2017) 74200 43700 44800 63700 99900 121000
2020-12-21 20:45 3.79 35300 145000 (2016) 42400 (2017) 74200 43700 44800 63700 99900 121000
2020-12-21 19:45 3.80 35300 145000 (2016) 42400 (2017) 74200 43700 44800 63700 99900 121000
2020-12-21 18:45 3.81 35400 145000 (2016) 42400 (2017) 74200 43700 44800 63700 99900 121000
2020-12-21 17:45 3.81 35400 145000 (2016) 42400 (2017) 74200 43700 44800 63700 99900 121000
2020-12-21 16:45 3.80 35300 145000 (2016) 42400 (2017) 74200 43700 44800 63700 99900 121000
2020-12-21 15:45 3.79 35300 145000 (2016) 42400 (2017) 74200 43700 44800 63700 99900 121000
2020-12-21 14:45 3.81 35400 145000 (2016) 42400 (2017) 74200 43700 44800 63700 99900 121000
2020-12-21 13:45 3.73 35000 145000 (2016) 42400 (2017) 74200 43700 44800 63700 99900 121000
2020-12-21 12:45 3.77 35200 145000 (2016) 42400 (2017) 74200 43700 44800 63700 99900 121000
2020-12-21 11:45 3.83 35400 145000 (2016) 42400 (2017) 74200 43700 44800 63700 99900 121000
2020-12-21 10:45 3.75 35100 145000 (2016) 42400 (2017) 74200 43700 44800 63700 99900 121000
2020-12-21 09:45 3.81 35400 145000 (2016) 42400 (2017) 74200 43700 44800 63700 99900 121000
2020-12-21 08:45 3.82 35400 145000 (2016) 42400 (2017) 74200 43700 44800 63700 99900 121000
2020-12-21 07:45 3.83 35400 145000 (2016) 42400 (2017) 74200 43700 44800 63700 99900 121000
2020-12-21 06:45 3.85 35500 145000 (2016) 42400 (2017) 74200 43700 44800 63700 99900 121000
2020-12-21 05:45 3.87 35600 145000 (2016) 42400 (2017) 74200 43700 44800 63700 99900 121000
2020-12-21 04:45 3.86 35500 145000 (2016) 42400 (2017) 74200 43700 44800 63700 99900 121000
2020-12-21 03:45 3.87 35600 145000 (2016) 42400 (2017) 74200 43700 44800 63700 99900 121000
2020-12-21 02:45 3.87 35600 145000 (2016) 42400 (2017) 74200 43700 44800 63700 99900 121000
2020-12-21 01:45 3.89 35700 145000 (2016) 42400 (2017) 74200 43700 44800 63700 99900 121000
2020-12-21 00:45 3.89 35700 145000 (2016) 42400 (2017) 74200 43700 44800 63700 99900 121000
2020-12-20 23:45 3.91 35700 188000 (2016) 42000 (2017) 82000 43500 44800 64900 112000 147000
2020-12-20 22:45 3.90 35700 188000 (2016) 42000 (2017) 82000 43500 44800 64900 112000 147000
2020-12-20 21:45 3.90 35700 188000 (2016) 42000 (2017) 82000 43500 44800 64900 112000 147000
2020-12-20 20:45 3.91 35700 188000 (2016) 42000 (2017) 82000 43500 44800 64900 112000 147000
2020-12-20 19:45 3.90 35700 188000 (2016) 42000 (2017) 82000 43500 44800 64900 112000 147000
2020-12-20 18:45 3.92 35800 188000 (2016) 42000 (2017) 82000 43500 44800 64900 112000 147000
2020-12-20 17:45 3.92 35800 188000 (2016) 42000 (2017) 82000 43500 44800 64900 112000 147000
2020-12-20 16:45 3.92 35800 188000 (2016) 42000 (2017) 82000 43500 44800 64900 112000 147000
2020-12-20 15:45 3.92 35800 188000 (2016) 42000 (2017) 82000 43500 44800 64900 112000 147000
2020-12-20 14:45 3.93 35800 188000 (2016) 42000 (2017) 82000 43500 44800 64900 112000 147000
2020-12-20 13:45 3.93 35800 188000 (2016) 42000 (2017) 82000 43500 44800 64900 112000 147000
2020-12-20 12:45 3.93 35800 188000 (2016) 42000 (2017) 82000 43500 44800 64900 112000 147000
2020-12-20 11:45 3.94 35900 188000 (2016) 42000 (2017) 82000 43500 44800 64900 112000 147000
2020-12-20 10:45 3.95 35900 188000 (2016) 42000 (2017) 82000 43500 44800 64900 112000 147000
2020-12-20 09:45 3.95 35900 188000 (2016) 42000 (2017) 82000 43500 44800 64900 112000 147000
2020-12-20 08:45 3.95 35900 188000 (2016) 42000 (2017) 82000 43500 44800 64900 112000 147000
2020-12-20 07:45 3.97 36000 188000 (2016) 42000 (2017) 82000 43500 44800 64900 112000 147000
2020-12-20 06:45 3.96 35900 188000 (2016) 42000 (2017) 82000 43500 44800 64900 112000 147000
2020-12-20 05:45 3.97 36000 188000 (2016) 42000 (2017) 82000 43500 44800 64900 112000 147000
2020-12-20 04:45 3.97 36000 188000 (2016) 42000 (2017) 82000 43500 44800 64900 112000 147000
2020-12-20 03:45 3.96 35900 188000 (2016) 42000 (2017) 82000 43500 44800 64900 112000 147000
2020-12-20 02:45 3.97 36000 188000 (2016) 42000 (2017) 82000 43500 44800 64900 112000 147000
2020-12-20 01:45 3.99 36100 188000 (2016) 42000 (2017) 82000 43500 44800 64900 112000 147000
2020-12-20 00:45 3.98 36000 188000 (2016) 42000 (2017) 82000 43500 44800 64900 112000 147000
2020-12-19 23:45 3.98 36000 235000 (2016) 41800 (2017) 90700 43300 44700 67100 124000 176000
2020-12-19 22:45 3.98 36000 235000 (2016) 41800 (2017) 90700 43300 44700 67100 124000 176000
2020-12-19 21:45 3.98 36000 235000 (2016) 41800 (2017) 90700 43300 44700 67100 124000 176000
2020-12-19 20:45 3.99 36100 235000 (2016) 41800 (2017) 90700 43300 44700 67100 124000 176000
2020-12-19 19:45 3.98 36000 235000 (2016) 41800 (2017) 90700 43300 44700 67100 124000 176000
2020-12-19 18:45 3.98 36000 235000 (2016) 41800 (2017) 90700 43300 44700 67100 124000 176000
2020-12-19 17:45 3.98 36000 235000 (2016) 41800 (2017) 90700 43300 44700 67100 124000 176000
2020-12-19 16:45 3.98 36000 235000 (2016) 41800 (2017) 90700 43300 44700 67100 124000 176000
2020-12-19 15:45 3.97 36000 235000 (2016) 41800 (2017) 90700 43300 44700 67100 124000 176000
2020-12-19 14:45 3.98 36000 235000 (2016) 41800 (2017) 90700 43300 44700 67100 124000 176000
2020-12-19 13:45 3.98 36000 235000 (2016) 41800 (2017) 90700 43300 44700 67100 124000 176000
2020-12-19 12:45 3.96 35900 235000 (2016) 41800 (2017) 90700 43300 44700 67100 124000 176000
2020-12-19 11:45 3.96 35900 235000 (2016) 41800 (2017) 90700 43300 44700 67100 124000 176000
2020-12-19 10:45 3.96 35900 235000 (2016) 41800 (2017) 90700 43300 44700 67100 124000 176000
2020-12-19 09:45 3.97 36000 235000 (2016) 41800 (2017) 90700 43300 44700 67100 124000 176000
2020-12-19 08:45 3.97 36000 235000 (2016) 41800 (2017) 90700 43300 44700 67100 124000 176000
2020-12-19 07:45 3.99 36100 235000 (2016) 41800 (2017) 90700 43300 44700 67100 124000 176000
2020-12-19 06:45 3.99 36100 235000 (2016) 41800 (2017) 90700 43300 44700 67100 124000 176000
2020-12-19 05:45 3.98 36000 235000 (2016) 41800 (2017) 90700 43300 44700 67100 124000 176000
2020-12-19 04:45 3.99 36100 235000 (2016) 41800 (2017) 90700 43300 44700 67100 124000 176000
2020-12-19 03:45 4.01 36100 235000 (2016) 41800 (2017) 90700 43300 44700 67100 124000 176000
2020-12-19 02:45 4.00 36100 235000 (2016) 41800 (2017) 90700 43300 44700 67100 124000 176000
2020-12-19 01:45 4.00 36100 235000 (2016) 41800 (2017) 90700 43300 44700 67100 124000 176000
2020-12-19 00:45 4.00 36100 235000 (2016) 41800 (2017) 90700 43300 44700 67100 124000 176000
2020-12-18 23:45 4.00 36100 249000 (2016) 41900 (2017) 94100 43500 44800 68600 130000 186000
2020-12-18 22:45 3.99 36100 249000 (2016) 41900 (2017) 94100 43500 44800 68600 130000 186000
2020-12-18 21:45 4.00 36100 249000 (2016) 41900 (2017) 94100 43500 44800 68600 130000 186000
2020-12-18 20:45 3.99 36100 249000 (2016) 41900 (2017) 94100 43500 44800 68600 130000 186000
2020-12-18 19:45 3.99 36100 249000 (2016) 41900 (2017) 94100 43500 44800 68600 130000 186000
2020-12-18 18:45 3.94 35900 249000 (2016) 41900 (2017) 94100 43500 44800 68600 130000 186000
2020-12-18 17:45 3.91 35700 249000 (2016) 41900 (2017) 94100 43500 44800 68600 130000 186000
2020-12-18 16:45 3.89 35700 249000 (2016) 41900 (2017) 94100 43500 44800 68600 130000 186000
2020-12-18 15:45 3.94 35900 249000 (2016) 41900 (2017) 94100 43500 44800 68600 130000 186000
2020-12-18 14:45 3.91 35700 249000 (2016) 41900 (2017) 94100 43500 44800 68600 130000 186000
2020-12-18 13:45 3.92 35800 249000 (2016) 41900 (2017) 94100 43500 44800 68600 130000 186000
2020-12-18 12:45 3.94 35900 249000 (2016) 41900 (2017) 94100 43500 44800 68600 130000 186000
2020-12-18 11:45 3.96 35900 249000 (2016) 41900 (2017) 94100 43500 44800 68600 130000 186000
2020-12-18 10:45 3.99 36100 249000 (2016) 41900 (2017) 94100 43500 44800 68600 130000 186000
2020-12-18 09:45 3.98 36000 249000 (2016) 41900 (2017) 94100 43500 44800 68600 130000 186000
2020-12-18 08:45 3.99 36100 249000 (2016) 41900 (2017) 94100 43500 44800 68600 130000 186000
2020-12-18 07:45 4.01 36100 249000 (2016) 41900 (2017) 94100 43500 44800 68600 130000 186000
2020-12-18 06:45 3.99 36100 249000 (2016) 41900 (2017) 94100 43500 44800 68600 130000 186000
2020-12-18 05:45 3.99 36100 249000 (2016) 41900 (2017) 94100 43500 44800 68600 130000 186000
2020-12-18 04:45 4.01 36100 249000 (2016) 41900 (2017) 94100 43500 44800 68600 130000 186000
2020-12-18 03:45 4.01 36100 249000 (2016) 41900 (2017) 94100 43500 44800 68600 130000 186000
2020-12-18 02:45 4.02 36200 249000 (2016) 41900 (2017) 94100 43500 44800 68600 130000 186000
2020-12-18 01:45 4.02 36200 249000 (2016) 41900 (2017) 94100 43500 44800 68600 130000 186000
2020-12-18 00:45 4.03 36200 249000 (2016) 41900 (2017) 94100 43500 44800 68600 130000 186000
2020-12-17 23:45 4.03 36200 241000 (2016) 41700 (2017) 93700 43300 44700 68700 132000 183000
2020-12-17 22:45 4.04 36300 241000 (2016) 41700 (2017) 93700 43300 44700 68700 132000 183000
2020-12-17 21:45 4.04 36300 241000 (2016) 41700 (2017) 93700 43300 44700 68700 132000 183000
2020-12-17 20:45 4.05 36300 241000 (2016) 41700 (2017) 93700 43300 44700 68700 132000 183000
2020-12-17 19:45 4.04 36300 241000 (2016) 41700 (2017) 93700 43300 44700 68700 132000 183000
2020-12-17 18:45 4.04 36300 241000 (2016) 41700 (2017) 93700 43300 44700 68700 132000 183000
2020-12-17 17:45 4.03 36200 241000 (2016) 41700 (2017) 93700 43300 44700 68700 132000 183000
2020-12-17 16:45 4.03 36200 241000 (2016) 41700 (2017) 93700 43300 44700 68700 132000 183000
2020-12-17 15:45 4.03 36200 241000 (2016) 41700 (2017) 93700 43300 44700 68700 132000 183000
2020-12-17 14:45 4.03 36200 241000 (2016) 41700 (2017) 93700 43300 44700 68700 132000 183000
2020-12-17 13:45 4.01 36100 241000 (2016) 41700 (2017) 93700 43300 44700 68700 132000 183000
2020-12-17 12:45 4.01 36100 241000 (2016) 41700 (2017) 93700 43300 44700 68700 132000 183000
2020-12-17 11:45 4.05 36300 241000 (2016) 41700 (2017) 93700 43300 44700 68700 132000 183000
2020-12-17 10:45 4.07 36400 241000 (2016) 41700 (2017) 93700 43300 44700 68700 132000 183000
2020-12-17 09:45 4.06 36300 241000 (2016) 41700 (2017) 93700 43300 44700 68700 132000 183000
2020-12-17 08:45 4.04 36300 241000 (2016) 41700 (2017) 93700 43300 44700 68700 132000 183000
2020-12-17 07:45 4.08 36400 241000 (2016) 41700 (2017) 93700 43300 44700 68700 132000 183000
2020-12-17 06:45 4.08 36400 241000 (2016) 41700 (2017) 93700 43300 44700 68700 132000 183000
2020-12-17 05:45 4.10 36500 241000 (2016) 41700 (2017) 93700 43300 44700 68700 132000 183000
2020-12-17 04:45 4.10 36500 241000 (2016) 41700 (2017) 93700 43300 44700 68700 132000 183000
2020-12-17 03:45 4.11 36500 241000 (2016) 41700 (2017) 93700 43300 44700 68700 132000 183000
2020-12-17 02:45 4.12 36600 241000 (2016) 41700 (2017) 93700 43300 44700 68700 132000 183000
2020-12-17 01:45 4.10 36500 241000 (2016) 41700 (2017) 93700 43300 44700 68700 132000 183000
2020-12-17 00:45 4.11 36500 241000 (2016) 41700 (2017) 93700 43300 44700 68700 132000 183000
2020-12-16 23:45 4.11 36500 222000 (2016) 41500 (2017) 92200 43000 44400 70800 133000 174000
2020-12-16 22:45 4.12 36600 222000 (2016) 41500 (2017) 92200 43000 44400 70800 133000 174000
2020-12-16 21:45 4.12 36600 222000 (2016) 41500 (2017) 92200 43000 44400 70800 133000 174000
2020-12-16 20:45 4.12 36600 222000 (2016) 41500 (2017) 92200 43000 44400 70800 133000 174000
2020-12-16 19:45 4.11 36500 222000 (2016) 41500 (2017) 92200 43000 44400 70800 133000 174000
2020-12-16 18:45 4.14 36700 222000 (2016) 41500 (2017) 92200 43000 44400 70800 133000 174000
2020-12-16 17:45 4.12 36600 222000 (2016) 41500 (2017) 92200 43000 44400 70800 133000 174000
2020-12-16 16:45 4.12 36600 222000 (2016) 41500 (2017) 92200 43000 44400 70800 133000 174000
2020-12-16 15:45 4.11 36500 222000 (2016) 41500 (2017) 92200 43000 44400 70800 133000 174000
2020-12-16 14:45 4.14 36700 222000 (2016) 41500 (2017) 92200 43000 44400 70800 133000 174000
2020-12-16 13:45 4.13 36600 222000 (2016) 41500 (2017) 92200 43000 44400 70800 133000 174000
2020-12-16 12:45 4.12 36600 222000 (2016) 41500 (2017) 92200 43000 44400 70800 133000 174000
2020-12-16 11:45 4.15 36700 222000 (2016) 41500 (2017) 92200 43000 44400 70800 133000 174000
2020-12-16 10:45 4.16 36700 222000 (2016) 41500 (2017) 92200 43000 44400 70800 133000 174000
2020-12-16 09:45 4.18 36800 222000 (2016) 41500 (2017) 92200 43000 44400 70800 133000 174000
2020-12-16 08:45 4.16 36700 222000 (2016) 41500 (2017) 92200 43000 44400 70800 133000 174000
2020-12-16 07:45 4.19 36900 222000 (2016) 41500 (2017) 92200 43000 44400 70800 133000 174000
2020-12-16 06:45 4.19 36900 222000 (2016) 41500 (2017) 92200 43000 44400 70800 133000 174000
2020-12-16 05:45 4.19 36900 222000 (2016) 41500 (2017) 92200 43000 44400 70800 133000 174000
2020-12-16 04:45 4.19 36900 222000 (2016) 41500 (2017) 92200 43000 44400 70800 133000 174000
2020-12-16 03:45 4.21 37000 222000 (2016) 41500 (2017) 92200 43000 44400 70800 133000 174000
2020-12-16 02:45 4.20 36900 222000 (2016) 41500 (2017) 92200 43000 44400 70800 133000 174000
2020-12-16 01:45 4.22 37000 222000 (2016) 41500 (2017) 92200 43000 44400 70800 133000 174000
2020-12-16 00:45 4.22 37000 222000 (2016) 41500 (2017) 92200 43000 44400 70800 133000 174000
2020-12-15 23:45 4.22 37000 178000 (2016) 41800 (2017) 86700 43700 45300 72400 126000 150000
2020-12-15 22:45 4.24 37100 178000 (2016) 41800 (2017) 86700 43700 45300 72400 126000 150000
2020-12-15 21:45 4.23 37000 178000 (2016) 41800 (2017) 86700 43700 45300 72400 126000 150000
2020-12-15 20:45 4.26 37200 178000 (2016) 41800 (2017) 86700 43700 45300 72400 126000 150000
2020-12-15 19:45 4.26 37200 178000 (2016) 41800 (2017) 86700 43700 45300 72400 126000 150000
2020-12-15 18:45 4.26 37200 178000 (2016) 41800 (2017) 86700 43700 45300 72400 126000 150000
2020-12-15 17:45 4.27 37200 178000 (2016) 41800 (2017) 86700 43700 45300 72400 126000 150000
2020-12-15 16:45 4.27 37200 178000 (2016) 41800 (2017) 86700 43700 45300 72400 126000 150000
2020-12-15 15:45 4.29 37300 178000 (2016) 41800 (2017) 86700 43700 45300 72400 126000 150000
2020-12-15 14:45 4.28 37200 178000 (2016) 41800 (2017) 86700 43700 45300 72400 126000 150000
2020-12-15 13:45 4.29 37300 178000 (2016) 41800 (2017) 86700 43700 45300 72400 126000 150000
2020-12-15 12:45 4.29 37300 178000 (2016) 41800 (2017) 86700 43700 45300 72400 126000 150000
2020-12-15 11:45 4.29 37300 178000 (2016) 41800 (2017) 86700 43700 45300 72400 126000 150000
2020-12-15 10:45 4.29 37300 178000 (2016) 41800 (2017) 86700 43700 45300 72400 126000 150000
2020-12-15 09:45 4.29 37300 178000 (2016) 41800 (2017) 86700 43700 45300 72400 126000 150000
2020-12-15 08:45 4.30 37300 178000 (2016) 41800 (2017) 86700 43700 45300 72400 126000 150000
2020-12-15 07:45 4.29 37300 178000 (2016) 41800 (2017) 86700 43700 45300 72400 126000 150000
2020-12-15 06:45 4.32 37400 178000 (2016) 41800 (2017) 86700 43700 45300 72400 126000 150000
2020-12-15 05:45 4.31 37400 178000 (2016) 41800 (2017) 86700 43700 45300 72400 126000 150000
2020-12-15 04:45 4.31 37400 178000 (2016) 41800 (2017) 86700 43700 45300 72400 126000 150000
2020-12-15 03:45 4.31 37400 178000 (2016) 41800 (2017) 86700 43700 45300 72400 126000 150000
2020-12-15 02:45 4.32 37400 178000 (2016) 41800 (2017) 86700 43700 45300 72400 126000 150000
2020-12-15 01:45 4.33 37400 178000 (2016) 41800 (2017) 86700 43700 45300 72400 126000 150000
2020-12-15 00:45 4.34 37500 178000 (2016) 41800 (2017) 86700 43700 45300 72400 126000 150000
2020-12-14 23:45 4.35 37500 113000 (2020) 43400 (2017) 76900 45000 46300 74800 109000 111000
2020-12-14 22:45 4.36 37600 113000 (2020) 43400 (2017) 76900 45000 46300 74800 109000 111000
2020-12-14 21:45 4.37 37600 113000 (2020) 43400 (2017) 76900 45000 46300 74800 109000 111000
2020-12-14 20:45 4.38 37600 113000 (2020) 43400 (2017) 76900 45000 46300 74800 109000 111000
2020-12-14 19:45 4.38 37600 113000 (2020) 43400 (2017) 76900 45000 46300 74800 109000 111000
2020-12-14 18:45 4.39 37700 113000 (2020) 43400 (2017) 76900 45000 46300 74800 109000 111000
2020-12-14 17:45 4.39 37700 113000 (2020) 43400 (2017) 76900 45000 46300 74800 109000 111000
2020-12-14 16:45 4.39 37700 113000 (2020) 43400 (2017) 76900 45000 46300 74800 109000 111000
2020-12-14 15:45 4.41 37800 113000 (2020) 43400 (2017) 76900 45000 46300 74800 109000 111000
2020-12-14 14:45 4.40 37700 113000 (2020) 43400 (2017) 76900 45000 46300 74800 109000 111000
2020-12-14 13:45 4.41 37800 113000 (2020) 43400 (2017) 76900 45000 46300 74800 109000 111000
2020-12-14 12:45 4.40 37700 113000 (2020) 43400 (2017) 76900 45000 46300 74800 109000 111000
2020-12-14 11:45 4.41 37800 113000 (2020) 43400 (2017) 76900 45000 46300 74800 109000 111000
2020-12-14 10:45 4.41 37800 113000 (2020) 43400 (2017) 76900 45000 46300 74800 109000 111000
2020-12-14 09:45 4.42 37800 113000 (2020) 43400 (2017) 76900 45000 46300 74800 109000 111000
2020-12-14 08:45 4.41 37800 113000 (2020) 43400 (2017) 76900 45000 46300 74800 109000 111000
2020-12-14 07:45 4.45 37900 113000 (2020) 43400 (2017) 76900 45000 46300 74800 109000 111000
2020-12-14 06:45 4.45 37900 113000 (2020) 43400 (2017) 76900 45000 46300 74800 109000 111000
2020-12-14 05:45 4.44 37900 113000 (2020) 43400 (2017) 76900 45000 46300 74800 109000 111000
2020-12-14 04:45 4.45 37900 113000 (2020) 43400 (2017) 76900 45000 46300 74800 109000 111000
2020-12-14 03:45 4.46 38000 113000 (2020) 43400 (2017) 76900 45000 46300 74800 109000 111000
2020-12-14 02:45 4.47 38000 113000 (2020) 43400 (2017) 76900 45000 46300 74800 109000 111000
2020-12-14 01:45 4.48 38100 113000 (2020) 43400 (2017) 76900 45000 46300 74800 109000 111000
2020-12-14 00:45 4.49 38100 113000 (2020) 43400 (2017) 76900 45000 46300 74800 109000 111000
2020-12-13 23:45 4.48 38100 117000 (2020) 45700 (2017) 71500 46700 47600 57500 106000 111000
2020-12-13 22:45 4.47 38000 117000 (2020) 45700 (2017) 71500 46700 47600 57500 106000 111000
2020-12-13 21:45 4.46 38000 117000 (2020) 45700 (2017) 71500 46700 47600 57500 106000 111000
2020-12-13 20:45 4.50 38100 117000 (2020) 45700 (2017) 71500 46700 47600 57500 106000 111000
2020-12-13 19:45 4.49 38100 117000 (2020) 45700 (2017) 71500 46700 47600 57500 106000 111000
2020-12-13 18:45 4.49 38100 117000 (2020) 45700 (2017) 71500 46700 47600 57500 106000 111000
2020-12-13 17:45 4.51 38200 117000 (2020) 45700 (2017) 71500 46700 47600 57500 106000 111000
2020-12-13 16:45 4.51 38200 117000 (2020) 45700 (2017) 71500 46700 47600 57500 106000 111000
2020-12-13 15:45 4.52 38200 117000 (2020) 45700 (2017) 71500 46700 47600 57500 106000 111000
2020-12-13 14:45 4.51 38200 117000 (2020) 45700 (2017) 71500 46700 47600 57500 106000 111000
2020-12-13 13:45 4.50 38100 117000 (2020) 45700 (2017) 71500 46700 47600 57500 106000 111000
2020-12-13 12:45 4.51 38200 117000 (2020) 45700 (2017) 71500 46700 47600 57500 106000 111000
2020-12-13 11:45 4.53 38300 117000 (2020) 45700 (2017) 71500 46700 47600 57500 106000 111000
2020-12-13 10:45 4.53 38300 117000 (2020) 45700 (2017) 71500 46700 47600 57500 106000 111000
2020-12-13 09:45 4.52 38200 117000 (2020) 45700 (2017) 71500 46700 47600 57500 106000 111000
2020-12-13 08:45 4.53 38300 117000 (2020) 45700 (2017) 71500 46700 47600 57500 106000 111000
2020-12-13 07:45 4.53 38300 117000 (2020) 45700 (2017) 71500 46700 47600 57500 106000 111000
2020-12-13 06:45 4.53 38300 117000 (2020) 45700 (2017) 71500 46700 47600 57500 106000 111000
2020-12-13 05:45 4.53 38300 117000 (2020) 45700 (2017) 71500 46700 47600 57500 106000 111000
2020-12-13 04:45 4.53 38300 117000 (2020) 45700 (2017) 71500 46700 47600 57500 106000 111000
2020-12-13 03:45 4.54 38300 117000 (2020) 45700 (2017) 71500 46700 47600 57500 106000 111000
2020-12-13 02:45 4.53 38300 117000 (2020) 45700 (2017) 71500 46700 47600 57500 106000 111000
2020-12-13 01:45 4.54 38300 117000 (2020) 45700 (2017) 71500 46700 47600 57500 106000 111000
2020-12-13 00:45 4.54 38300 117000 (2020) 45700 (2017) 71500 46700 47600 57500 106000 111000
2020-12-12 23:45 4.54 38300 122000 (2020) 46300 (2017) 73300 47800 49100 57800 110000 116000
2020-12-12 22:45 4.55 38400 122000 (2020) 46300 (2017) 73300 47800 49100 57800 110000 116000
2020-12-12 21:45 4.55 38400 122000 (2020) 46300 (2017) 73300 47800 49100 57800 110000 116000
2020-12-12 20:45 4.56 38400 122000 (2020) 46300 (2017) 73300 47800 49100 57800 110000 116000
2020-12-12 19:45 4.55 38400 122000 (2020) 46300 (2017) 73300 47800 49100 57800 110000 116000
2020-12-12 18:45 4.56 38400 122000 (2020) 46300 (2017) 73300 47800 49100 57800 110000 116000
2020-12-12 17:45 4.55 38400 122000 (2020) 46300 (2017) 73300 47800 49100 57800 110000 116000
2020-12-12 16:45 4.55 38400 122000 (2020) 46300 (2017) 73300 47800 49100 57800 110000 116000
2020-12-12 15:45 4.58 38500 122000 (2020) 46300 (2017) 73300 47800 49100 57800 110000 116000
2020-12-12 14:45 4.58 38500 122000 (2020) 46300 (2017) 73300 47800 49100 57800 110000 116000
2020-12-12 13:45 4.57 38400 122000 (2020) 46300 (2017) 73300 47800 49100 57800 110000 116000
2020-12-12 12:45 4.56 38400 122000 (2020) 46300 (2017) 73300 47800 49100 57800 110000 116000
2020-12-12 11:45 4.57 38400 122000 (2020) 46300 (2017) 73300 47800 49100 57800 110000 116000
2020-12-12 10:45 4.57 38400 122000 (2020) 46300 (2017) 73300 47800 49100 57800 110000 116000
2020-12-12 09:45 4.55 38400 122000 (2020) 46300 (2017) 73300 47800 49100 57800 110000 116000
2020-12-12 08:45 4.58 38500 122000 (2020) 46300 (2017) 73300 47800 49100 57800 110000 116000
2020-12-12 07:45 4.59 38500 122000 (2020) 46300 (2017) 73300 47800 49100 57800 110000 116000
2020-12-12 06:45 4.59 38500 122000 (2020) 46300 (2017) 73300 47800 49100 57800 110000 116000
2020-12-12 05:45 4.58 38500 122000 (2020) 46300 (2017) 73300 47800 49100 57800 110000 116000
2020-12-12 04:45 4.58 38500 122000 (2020) 46300 (2017) 73300 47800 49100 57800 110000 116000
2020-12-12 03:45 4.58 38500 122000 (2020) 46300 (2017) 73300 47800 49100 57800 110000 116000
2020-12-12 02:45 4.59 38500 122000 (2020) 46300 (2017) 73300 47800 49100 57800 110000 116000
2020-12-12 01:45 4.59 38500 122000 (2020) 46300 (2017) 73300 47800 49100 57800 110000 116000
2020-12-12 00:45 4.58 38500 122000 (2020) 46300 (2017) 73300 47800 49100 57800 110000 116000
2020-12-11 23:45 4.58 38500 127000 (2020) 46400 (2017) 75000 48100 49600 58600 114000 120000
2020-12-11 22:45 4.59 38500 127000 (2020) 46400 (2017) 75000 48100 49600 58600 114000 120000
2020-12-11 21:45 4.61 38600 127000 (2020) 46400 (2017) 75000 48100 49600 58600 114000 120000
2020-12-11 20:45 4.59 38500 127000 (2020) 46400 (2017) 75000 48100 49600 58600 114000 120000
2020-12-11 19:45 4.60 38600 127000 (2020) 46400 (2017) 75000 48100 49600 58600 114000 120000
2020-12-11 18:45 4.60 38600 127000 (2020) 46400 (2017) 75000 48100 49600 58600 114000 120000
2020-12-11 17:45 4.60 38600 127000 (2020) 46400 (2017) 75000 48100 49600 58600 114000 120000
2020-12-11 16:45 4.60 38600 127000 (2020) 46400 (2017) 75000 48100 49600 58600 114000 120000
2020-12-11 15:45 4.60 38600 127000 (2020) 46400 (2017) 75000 48100 49600 58600 114000 120000
2020-12-11 14:45 4.62 38600 127000 (2020) 46400 (2017) 75000 48100 49600 58600 114000 120000
2020-12-11 13:45 4.60 38600 127000 (2020) 46400 (2017) 75000 48100 49600 58600 114000 120000
2020-12-11 12:45 4.60 38600 127000 (2020) 46400 (2017) 75000 48100 49600 58600 114000 120000
2020-12-11 11:45 4.60 38600 127000 (2020) 46400 (2017) 75000 48100 49600 58600 114000 120000
2020-12-11 10:45 4.59 38500 127000 (2020) 46400 (2017) 75000 48100 49600 58600 114000 120000
2020-12-11 09:45 4.59 38500 127000 (2020) 46400 (2017) 75000 48100 49600 58600 114000 120000
2020-12-11 08:45 4.58 38500 127000 (2020) 46400 (2017) 75000 48100 49600 58600 114000 120000
2020-12-11 07:45 4.60 38600 127000 (2020) 46400 (2017) 75000 48100 49600 58600 114000 120000
2020-12-11 06:45 4.59 38500 127000 (2020) 46400 (2017) 75000 48100 49600 58600 114000 120000
2020-12-11 05:45 4.61 38600 127000 (2020) 46400 (2017) 75000 48100 49600 58600 114000 120000
2020-12-11 04:45 4.62 38600 127000 (2020) 46400 (2017) 75000 48100 49600 58600 114000 120000
2020-12-11 03:45 4.62 38600 127000 (2020) 46400 (2017) 75000 48100 49600 58600 114000 120000
2020-12-11 02:45 4.62 38600 127000 (2020) 46400 (2017) 75000 48100 49600 58600 114000 120000
2020-12-11 01:45 4.64 38700 127000 (2020) 46400 (2017) 75000 48100 49600 58600 114000 120000
2020-12-11 00:45 4.63 38700 127000 (2020) 46400 (2017) 75000 48100 49600 58600 114000 120000
2020-12-10 23:45 4.63 38700 130000 (2020) 47000 (2017) 76500 48300 49400 59900 117000 123000
2020-12-10 22:45 4.63 38700 130000 (2020) 47000 (2017) 76500 48300 49400 59900 117000 123000
2020-12-10 21:45 4.63 38700 130000 (2020) 47000 (2017) 76500 48300 49400 59900 117000 123000
2020-12-10 20:45 4.65 38800 130000 (2020) 47000 (2017) 76500 48300 49400 59900 117000 123000
2020-12-10 19:45 4.64 38700 130000 (2020) 47000 (2017) 76500 48300 49400 59900 117000 123000
2020-12-10 18:45 4.65 38800 130000 (2020) 47000 (2017) 76500 48300 49400 59900 117000 123000
2020-12-10 17:45 4.67 38900 130000 (2020) 47000 (2017) 76500 48300 49400 59900 117000 123000
2020-12-10 16:45 4.66 38800 130000 (2020) 47000 (2017) 76500 48300 49400 59900 117000 123000
2020-12-10 15:45 4.65 38800 130000 (2020) 47000 (2017) 76500 48300 49400 59900 117000 123000
2020-12-10 14:45 4.66 38800 130000 (2020) 47000 (2017) 76500 48300 49400 59900 117000 123000
2020-12-10 13:45 4.64 38700 130000 (2020) 47000 (2017) 76500 48300 49400 59900 117000 123000
2020-12-10 12:45 4.66 38800 130000 (2020) 47000 (2017) 76500 48300 49400 59900 117000 123000
2020-12-10 11:45 4.64 38700 130000 (2020) 47000 (2017) 76500 48300 49400 59900 117000 123000
2020-12-10 10:45 4.90 39000 130000 (2020) 47000 (2017) 76500 48300 49400 59900 117000 123000
2020-12-10 09:45 4.92 39100 130000 (2020) 47000 (2017) 76500 48300 49400 59900 117000 123000
2020-12-10 08:45 4.92 39100 130000 (2020) 47000 (2017) 76500 48300 49400 59900 117000 123000
2020-12-10 07:45 4.94 39200 130000 (2020) 47000 (2017) 76500 48300 49400 59900 117000 123000
2020-12-10 06:45 4.95 39200 130000 (2020) 47000 (2017) 76500 48300 49400 59900 117000 123000
2020-12-10 05:45 4.95 39200 130000 (2020) 47000 (2017) 76500 48300 49400 59900 117000 123000
2020-12-10 04:45 4.95 39200 130000 (2020) 47000 (2017) 76500 48300 49400 59900 117000 123000
2020-12-10 03:45 4.96 39200 130000 (2020) 47000 (2017) 76500 48300 49400 59900 117000 123000
2020-12-10 02:45 4.96 39200 130000 (2020) 47000 (2017) 76500 48300 49400 59900 117000 123000
2020-12-10 01:45 4.96 39200 130000 (2020) 47000 (2017) 76500 48300 49400 59900 117000 123000
2020-12-10 00:45 4.96 39200 130000 (2020) 47000 (2017) 76500 48300 49400 59900 117000 123000
2020-12-09 23:45 4.96 39200 135000 (2020) 47600 (2017) 79200 48500 49200 62800 121000 128000
2020-12-09 22:45 4.98 39300 135000 (2020) 47600 (2017) 79200 48500 49200 62800 121000 128000
2020-12-09 21:45 4.97 39300 135000 (2020) 47600 (2017) 79200 48500 49200 62800 121000 128000
2020-12-09 20:45 4.98 39300 135000 (2020) 47600 (2017) 79200 48500 49200 62800 121000 128000
2020-12-09 19:45 4.99 39400 135000 (2020) 47600 (2017) 79200 48500 49200 62800 121000 128000
2020-12-09 18:45 4.99 39400 135000 (2020) 47600 (2017) 79200 48500 49200 62800 121000 128000
2020-12-09 17:45 4.99 39400 135000 (2020) 47600 (2017) 79200 48500 49200 62800 121000 128000
2020-12-09 16:45 4.97 39300 135000 (2020) 47600 (2017) 79200 48500 49200 62800 121000 128000
2020-12-09 15:45 5.01 39500 135000 (2020) 47600 (2017) 79200 48500 49200 62800 121000 128000
2020-12-09 14:45 4.99 39400 135000 (2020) 47600 (2017) 79200 48500 49200 62800 121000 128000
2020-12-09 13:45 5.00 39400 135000 (2020) 47600 (2017) 79200 48500 49200 62800 121000 128000
2020-12-09 12:45 4.99 39400 135000 (2020) 47600 (2017) 79200 48500 49200 62800 121000 128000
2020-12-09 11:45 5.01 39500 135000 (2020) 47600 (2017) 79200 48500 49200 62800 121000 128000
2020-12-09 10:45 5.00 38100 135000 (2020) 47600 (2017) 79200 48500 49200 62800 121000 128000
2020-12-09 09:45 5.02 38200 135000 (2020) 47600 (2017) 79200 48500 49200 62800 121000 128000
2020-12-09 08:45 5.03 38300 135000 (2020) 47600 (2017) 79200 48500 49200 62800 121000 128000
2020-12-09 07:45 5.03 38300 135000 (2020) 47600 (2017) 79200 48500 49200 62800 121000 128000
2020-12-09 06:45 5.03 38300 135000 (2020) 47600 (2017) 79200 48500 49200 62800 121000 128000
2020-12-09 05:45 5.03 38300 135000 (2020) 47600 (2017) 79200 48500 49200 62800 121000 128000
2020-12-09 04:45 5.04 38300 135000 (2020) 47600 (2017) 79200 48500 49200 62800 121000 128000
2020-12-09 03:45 5.05 38400 135000 (2020) 47600 (2017) 79200 48500 49200 62800 121000 128000
2020-12-09 02:45 5.04 38300 135000 (2020) 47600 (2017) 79200 48500 49200 62800 121000 128000
2020-12-09 01:45 5.06 38400 135000 (2020) 47600 (2017) 79200 48500 49200 62800 121000 128000
2020-12-09 00:45 5.07 38400 135000 (2020) 47600 (2017) 79200 48500 49200 62800 121000 128000
2020-12-08 23:45 5.08 38500 141000 (2020) 47700 (2017) 83000 48500 49100 66700 130000 135000
2020-12-08 22:45 5.06 38400 141000 (2020) 47700 (2017) 83000 48500 49100 66700 130000 135000
2020-12-08 21:45 5.08 38500 141000 (2020) 47700 (2017) 83000 48500 49100 66700 130000 135000
2020-12-08 20:45 5.09 38500 141000 (2020) 47700 (2017) 83000 48500 49100 66700 130000 135000
2020-12-08 19:45 5.11 38600 141000 (2020) 47700 (2017) 83000 48500 49100 66700 130000 135000
2020-12-08 18:45 5.11 38600 141000 (2020) 47700 (2017) 83000 48500 49100 66700 130000 135000
2020-12-08 17:45 5.10 38600 141000 (2020) 47700 (2017) 83000 48500 49100 66700 130000 135000
2020-12-08 16:45 5.13 38700 141000 (2020) 47700 (2017) 83000 48500 49100 66700 130000 135000
2020-12-08 15:45 5.11 38600 141000 (2020) 47700 (2017) 83000 48500 49100 66700 130000 135000
2020-12-08 14:45 5.13 38700 141000 (2020) 47700 (2017) 83000 48500 49100 66700 130000 135000
2020-12-08 13:45 5.13 38700 141000 (2020) 47700 (2017) 83000 48500 49100 66700 130000 135000
2020-12-08 12:45 5.14 38700 141000 (2020) 47700 (2017) 83000 48500 49100 66700 130000 135000
2020-12-08 11:45 5.15 38800 141000 (2020) 47700 (2017) 83000 48500 49100 66700 130000 135000
2020-12-08 10:45 5.16 38800 141000 (2020) 47700 (2017) 83000 48500 49100 66700 130000 135000
2020-12-08 09:45 5.15 38800 141000 (2020) 47700 (2017) 83000 48500 49100 66700 130000 135000
2020-12-08 08:45 5.18 38900 141000 (2020) 47700 (2017) 83000 48500 49100 66700 130000 135000
2020-12-08 07:45 5.19 38900 141000 (2020) 47700 (2017) 83000 48500 49100 66700 130000 135000
2020-12-08 06:45 5.19 38900 141000 (2020) 47700 (2017) 83000 48500 49100 66700 130000 135000
2020-12-08 05:45 5.21 39000 141000 (2020) 47700 (2017) 83000 48500 49100 66700 130000 135000
2020-12-08 04:45 5.22 39100 141000 (2020) 47700 (2017) 83000 48500 49100 66700 130000 135000
2020-12-08 03:45 5.22 39100 141000 (2020) 47700 (2017) 83000 48500 49100 66700 130000 135000
2020-12-08 02:45 5.25 39200 141000 (2020) 47700 (2017) 83000 48500 49100 66700 130000 135000
2020-12-08 01:45 5.26 39200 141000 (2020) 47700 (2017) 83000 48500 49100 66700 130000 135000
2020-12-08 00:45 5.26 39200 141000 (2020) 47700 (2017) 83000 48500 49100 66700 130000 135000
2020-12-07 23:45 5.27 39300 147000 (2020) 47600 (2017) 87200 48400 49100 69100 142000 145000
2020-12-07 22:45 5.29 39400 147000 (2020) 47600 (2017) 87200 48400 49100 69100 142000 145000
2020-12-07 21:45 5.30 39400 147000 (2020) 47600 (2017) 87200 48400 49100 69100 142000 145000
2020-12-07 20:45 5.30 39400 147000 (2020) 47600 (2017) 87200 48400 49100 69100 142000 145000
2020-12-07 19:45 5.31 39500 147000 (2020) 47600 (2017) 87200 48400 49100 69100 142000 145000
2020-12-07 18:45 5.33 39500 147000 (2020) 47600 (2017) 87200 48400 49100 69100 142000 145000
2020-12-07 17:45 5.33 39500 147000 (2020) 47600 (2017) 87200 48400 49100 69100 142000 145000
2020-12-07 16:45 5.35 39600 147000 (2020) 47600 (2017) 87200 48400 49100 69100 142000 145000
2020-12-07 15:45 5.36 39700 147000 (2020) 47600 (2017) 87200 48400 49100 69100 142000 145000
2020-12-07 14:45 5.37 39700 147000 (2020) 47600 (2017) 87200 48400 49100 69100 142000 145000
2020-12-07 13:45 5.38 39800 147000 (2020) 47600 (2017) 87200 48400 49100 69100 142000 145000
2020-12-07 12:45 5.39 39800 147000 (2020) 47600 (2017) 87200 48400 49100 69100 142000 145000
2020-12-07 11:45 5.41 39900 147000 (2020) 47600 (2017) 87200 48400 49100 69100 142000 145000
2020-12-07 10:45 5.42 39900 147000 (2020) 47600 (2017) 87200 48400 49100 69100 142000 145000
2020-12-07 09:45 5.43 40000 147000 (2020) 47600 (2017) 87200 48400 49100 69100 142000 145000
2020-12-07 08:45 5.44 40000 147000 (2020) 47600 (2017) 87200 48400 49100 69100 142000 145000
2020-12-07 07:45 5.44 40000 147000 (2020) 47600 (2017) 87200 48400 49100 69100 142000 145000
2020-12-07 06:45 5.46 40100 147000 (2020) 47600 (2017) 87200 48400 49100 69100 142000 145000
2020-12-07 05:45 5.47 40100 147000 (2020) 47600 (2017) 87200 48400 49100 69100 142000 145000
2020-12-07 04:45 5.50 40300 147000 (2020) 47600 (2017) 87200 48400 49100 69100 142000 145000
2020-12-07 03:45 5.50 40300 147000 (2020) 47600 (2017) 87200 48400 49100 69100 142000 145000
2020-12-07 02:45 5.53 40400 147000 (2020) 47600 (2017) 87200 48400 49100 69100 142000 145000
2020-12-07 01:45 5.55 40500 147000 (2020) 47600 (2017) 87200 48400 49100 69100 142000 145000
2020-12-07 00:45 5.56 40500 147000 (2020) 47600 (2017) 87200 48400 49100 69100 142000 145000
2020-12-06 23:45 5.58 40600 166000 (2019) 47600 (2017) 93200 48500 49200 72900 154000 160000
2020-12-06 22:45 5.61 40800 166000 (2019) 47600 (2017) 93200 48500 49200 72900 154000 160000
2020-12-06 21:45 5.62 40800 166000 (2019) 47600 (2017) 93200 48500 49200 72900 154000 160000
2020-12-06 20:45 5.63 40800 166000 (2019) 47600 (2017) 93200 48500 49200 72900 154000 160000
2020-12-06 19:45 5.65 40900 166000 (2019) 47600 (2017) 93200 48500 49200 72900 154000 160000
2020-12-06 18:45 5.66 41000 166000 (2019) 47600 (2017) 93200 48500 49200 72900 154000 160000
2020-12-06 17:45 5.66 41000 166000 (2019) 47600 (2017) 93200 48500 49200 72900 154000 160000
2020-12-06 16:45 5.68 41100 166000 (2019) 47600 (2017) 93200 48500 49200 72900 154000 160000
2020-12-06 15:45 5.70 41200 166000 (2019) 47600 (2017) 93200 48500 49200 72900 154000 160000
2020-12-06 14:45 5.71 41200 166000 (2019) 47600 (2017) 93200 48500 49200 72900 154000 160000
2020-12-06 13:45 5.72 41200 166000 (2019) 47600 (2017) 93200 48500 49200 72900 154000 160000
2020-12-06 12:45 5.74 41300 166000 (2019) 47600 (2017) 93200 48500 49200 72900 154000 160000
2020-12-06 11:45 5.75 41400 166000 (2019) 47600 (2017) 93200 48500 49200 72900 154000 160000
2020-12-06 10:45 5.77 41500 166000 (2019) 47600 (2017) 93200 48500 49200 72900 154000 160000
2020-12-06 09:45 5.78 41500 166000 (2019) 47600 (2017) 93200 48500 49200 72900 154000 160000
2020-12-06 08:45 5.79 41600 166000 (2019) 47600 (2017) 93200 48500 49200 72900 154000 160000
2020-12-06 07:45 5.81 41600 166000 (2019) 47600 (2017) 93200 48500 49200 72900 154000 160000
2020-12-06 06:45 5.83 41700 166000 (2019) 47600 (2017) 93200 48500 49200 72900 154000 160000
2020-12-06 05:45 5.83 41700 166000 (2019) 47600 (2017) 93200 48500 49200 72900 154000 160000
2020-12-06 04:45 5.84 41800 166000 (2019) 47600 (2017) 93200 48500 49200 72900 154000 160000
2020-12-06 03:45 5.87 41900 166000 (2019) 47600 (2017) 93200 48500 49200 72900 154000 160000
2020-12-06 02:45 5.89 42000 166000 (2019) 47600 (2017) 93200 48500 49200 72900 154000 160000
2020-12-06 01:45 5.91 42100 166000 (2019) 47600 (2017) 93200 48500 49200 72900 154000 160000
2020-12-06 00:45 5.90 42000 166000 (2019) 47600 (2017) 93200 48500 49200 72900 154000 160000
2020-12-05 23:45 5.92 42100 196000 (2019) 47500 (2017) 101000 48400 49100 79700 162000 178000
2020-12-05 22:45 5.96 42300 196000 (2019) 47500 (2017) 101000 48400 49100 79700 162000 178000
2020-12-05 21:45 5.97 42400 196000 (2019) 47500 (2017) 101000 48400 49100 79700 162000 178000
2020-12-05 20:45 5.99 42500 196000 (2019) 47500 (2017) 101000 48400 49100 79700 162000 178000
2020-12-05 19:45 6.01 42500 196000 (2019) 47500 (2017) 101000 48400 49100 79700 162000 178000
2020-12-05 18:45 6.00 42500 196000 (2019) 47500 (2017) 101000 48400 49100 79700 162000 178000
2020-12-05 17:45 6.03 42600 196000 (2019) 47500 (2017) 101000 48400 49100 79700 162000 178000
2020-12-05 16:45 6.05 42700 196000 (2019) 47500 (2017) 101000 48400 49100 79700 162000 178000
2020-12-05 15:45 6.06 42800 196000 (2019) 47500 (2017) 101000 48400 49100 79700 162000 178000
2020-12-05 14:45 6.07 42800 196000 (2019) 47500 (2017) 101000 48400 49100 79700 162000 178000
2020-12-05 13:45 6.08 42900 196000 (2019) 47500 (2017) 101000 48400 49100 79700 162000 178000
2020-12-05 12:45 6.09 42900 196000 (2019) 47500 (2017) 101000 48400 49100 79700 162000 178000
2020-12-05 11:45 6.11 43000 196000 (2019) 47500 (2017) 101000 48400 49100 79700 162000 178000
2020-12-05 10:45 6.12 43000 196000 (2019) 47500 (2017) 101000 48400 49100 79700 162000 178000
2020-12-05 09:45 6.14 43100 196000 (2019) 47500 (2017) 101000 48400 49100 79700 162000 178000
2020-12-05 08:45 6.16 43200 196000 (2019) 47500 (2017) 101000 48400 49100 79700 162000 178000
2020-12-05 07:45 6.17 43300 196000 (2019) 47500 (2017) 101000 48400 49100 79700 162000 178000
2020-12-05 06:45 6.18 43300 196000 (2019) 47500 (2017) 101000 48400 49100 79700 162000 178000
2020-12-05 05:45 6.21 43500 196000 (2019) 47500 (2017) 101000 48400 49100 79700 162000 178000
2020-12-05 04:45 6.23 43600 196000 (2019) 47500 (2017) 101000 48400 49100 79700 162000 178000
2020-12-05 03:45 6.24 43600 196000 (2019) 47500 (2017) 101000 48400 49100 79700 162000 178000
2020-12-05 02:45 6.26 43700 196000 (2019) 47500 (2017) 101000 48400 49100 79700 162000 178000
2020-12-05 01:45 6.27 43700 196000 (2019) 47500 (2017) 101000 48400 49100 79700 162000 178000
2020-12-05 00:45 6.29 43800 196000 (2019) 47500 (2017) 101000 48400 49100 79700 162000 178000
2020-12-04 23:45 6.31 43900 196000 (2019) 47000 (2017) 104000 48100 49000 90400 162000 178000
2020-12-04 22:45 6.31 43900 196000 (2019) 47000 (2017) 104000 48100 49000 90400 162000 178000
2020-12-04 21:45 6.34 44100 196000 (2019) 47000 (2017) 104000 48100 49000 90400 162000 178000
2020-12-04 20:45 6.34 44100 196000 (2019) 47000 (2017) 104000 48100 49000 90400 162000 178000
2020-12-04 19:45 6.35 44100 196000 (2019) 47000 (2017) 104000 48100 49000 90400 162000 178000
2020-12-04 18:45 6.37 44200 196000 (2019) 47000 (2017) 104000 48100 49000 90400 162000 178000
2020-12-04 17:45 6.38 44300 196000 (2019) 47000 (2017) 104000 48100 49000 90400 162000 178000
2020-12-04 16:45 6.40 44300 196000 (2019) 47000 (2017) 104000 48100 49000 90400 162000 178000
2020-12-04 15:45 6.41 44400 196000 (2019) 47000 (2017) 104000 48100 49000 90400 162000 178000
2020-12-04 14:45 6.43 44500 196000 (2019) 47000 (2017) 104000 48100 49000 90400 162000 178000
2020-12-04 13:45 6.43 44500 196000 (2019) 47000 (2017) 104000 48100 49000 90400 162000 178000
2020-12-04 12:45 6.44 44500 196000 (2019) 47000 (2017) 104000 48100 49000 90400 162000 178000
2020-12-04 11:45 6.44 44500 196000 (2019) 47000 (2017) 104000 48100 49000 90400 162000 178000
2020-12-04 10:45 6.47 44700 196000 (2019) 47000 (2017) 104000 48100 49000 90400 162000 178000
2020-12-04 09:45 6.47 44700 196000 (2019) 47000 (2017) 104000 48100 49000 90400 162000 178000
2020-12-04 08:45 6.51 44900 196000 (2019) 47000 (2017) 104000 48100 49000 90400 162000 178000
2020-12-04 07:45 6.52 44900 196000 (2019) 47000 (2017) 104000 48100 49000 90400 162000 178000
2020-12-04 06:45 6.54 45000 196000 (2019) 47000 (2017) 104000 48100 49000 90400 162000 178000
2020-12-04 05:45 6.53 45000 196000 (2019) 47000 (2017) 104000 48100 49000 90400 162000 178000
2020-12-04 04:45 6.55 45100 196000 (2019) 47000 (2017) 104000 48100 49000 90400 162000 178000
2020-12-04 03:45 6.56 45100 196000 (2019) 47000 (2017) 104000 48100 49000 90400 162000 178000
2020-12-04 02:45 6.58 45200 196000 (2019) 47000 (2017) 104000 48100 49000 90400 162000 178000
2020-12-04 01:45 6.59 45300 196000 (2019) 47000 (2017) 104000 48100 49000 90400 162000 178000
2020-12-04 00:45 6.60 45300 196000 (2019) 47000 (2017) 104000 48100 49000 90400 162000 178000
2020-12-03 23:45 6.62 45400 162000 (2019) 46700 (2017) 101000 48000 49200 95900 155000 158000
2020-12-03 22:45 6.65 45500 162000 (2019) 46700 (2017) 101000 48000 49200 95900 155000 158000
2020-12-03 21:45 6.67 45600 162000 (2019) 46700 (2017) 101000 48000 49200 95900 155000 158000
2020-12-03 20:45 6.68 45700 162000 (2019) 46700 (2017) 101000 48000 49200 95900 155000 158000
2020-12-03 19:45 6.68 45700 162000 (2019) 46700 (2017) 101000 48000 49200 95900 155000 158000
2020-12-03 18:45 6.69 45700 162000 (2019) 46700 (2017) 101000 48000 49200 95900 155000 158000
2020-12-03 17:45 6.70 45800 162000 (2019) 46700 (2017) 101000 48000 49200 95900 155000 158000
2020-12-03 16:45 6.72 45900 162000 (2019) 46700 (2017) 101000 48000 49200 95900 155000 158000
2020-12-03 15:45 6.74 46000 162000 (2019) 46700 (2017) 101000 48000 49200 95900 155000 158000
2020-12-03 14:45 6.77 46100 162000 (2019) 46700 (2017) 101000 48000 49200 95900 155000 158000
2020-12-03 13:45 6.79 46200 162000 (2019) 46700 (2017) 101000 48000 49200 95900 155000 158000
2020-12-03 12:45 6.79 46200 162000 (2019) 46700 (2017) 101000 48000 49200 95900 155000 158000
2020-12-03 11:45 6.80 46300 162000 (2019) 46700 (2017) 101000 48000 49200 95900 155000 158000
2020-12-03 10:45 6.83 46400 162000 (2019) 46700 (2017) 101000 48000 49200 95900 155000 158000
2020-12-03 09:45 6.84 46500 162000 (2019) 46700 (2017) 101000 48000 49200 95900 155000 158000
2020-12-03 08:45 6.84 46500 162000 (2019) 46700 (2017) 101000 48000 49200 95900 155000 158000
2020-12-03 07:45 6.86 46600 162000 (2019) 46700 (2017) 101000 48000 49200 95900 155000 158000
2020-12-03 06:45 6.88 46700 162000 (2019) 46700 (2017) 101000 48000 49200 95900 155000 158000
2020-12-03 05:45 6.88 46700 162000 (2019) 46700 (2017) 101000 48000 49200 95900 155000 158000
2020-12-03 04:45 6.90 46800 162000 (2019) 46700 (2017) 101000 48000 49200 95900 155000 158000
2020-12-03 03:45 6.91 46800 162000 (2019) 46700 (2017) 101000 48000 49200 95900 155000 158000
2020-12-03 02:45 6.94 46900 162000 (2019) 46700 (2017) 101000 48000 49200 95900 155000 158000
2020-12-03 01:45 6.96 47000 162000 (2019) 46700 (2017) 101000 48000 49200 95900 155000 158000
2020-12-03 00:45 6.97 47100 162000 (2019) 46700 (2017) 101000 48000 49200 95900 155000 158000
2020-12-02 23:45 6.99 47200 166000 (2020) 46800 (2017) 101000 48000 49000 98800 149000 157000
2020-12-02 22:45 7.01 47300 166000 (2020) 46800 (2017) 101000 48000 49000 98800 149000 157000
2020-12-02 21:45 7.03 47400 166000 (2020) 46800 (2017) 101000 48000 49000 98800 149000 157000
2020-12-02 20:45 7.05 47500 166000 (2020) 46800 (2017) 101000 48000 49000 98800 149000 157000
2020-12-02 19:45 7.06 47500 166000 (2020) 46800 (2017) 101000 48000 49000 98800 149000 157000
2020-12-02 18:45 7.11 47800 166000 (2020) 46800 (2017) 101000 48000 49000 98800 149000 157000
2020-12-02 17:45 7.11 47800 166000 (2020) 46800 (2017) 101000 48000 49000 98800 149000 157000
2020-12-02 16:45 7.13 47900 166000 (2020) 46800 (2017) 101000 48000 49000 98800 149000 157000
2020-12-02 15:45 7.16 48000 166000 (2020) 46800 (2017) 101000 48000 49000 98800 149000 157000
2020-12-02 14:45 7.18 48100 166000 (2020) 46800 (2017) 101000 48000 49000 98800 149000 157000
2020-12-02 13:45 7.21 48300 166000 (2020) 46800 (2017) 101000 48000 49000 98800 149000 157000
2020-12-02 12:45 7.22 48300 166000 (2020) 46800 (2017) 101000 48000 49000 98800 149000 157000
2020-12-02 11:45 7.24 48400 166000 (2020) 46800 (2017) 101000 48000 49000 98800 149000 157000
2020-12-02 10:45 7.27 48600 166000 (2020) 46800 (2017) 101000 48000 49000 98800 149000 157000
2020-12-02 09:45 7.27 48600 166000 (2020) 46800 (2017) 101000 48000 49000 98800 149000 157000
2020-12-02 08:45 7.31 48800 166000 (2020) 46800 (2017) 101000 48000 49000 98800 149000 157000
2020-12-02 07:45 7.35 49000 166000 (2020) 46800 (2017) 101000 48000 49000 98800 149000 157000
2020-12-02 06:45 7.36 49100 166000 (2020) 46800 (2017) 101000 48000 49000 98800 149000 157000
2020-12-02 05:45 7.37 49100 166000 (2020) 46800 (2017) 101000 48000 49000 98800 149000 157000
2020-12-02 04:45 7.38 49200 166000 (2020) 46800 (2017) 101000 48000 49000 98800 149000 157000
2020-12-02 03:45 7.41 49300 166000 (2020) 46800 (2017) 101000 48000 49000 98800 149000 157000
2020-12-02 02:45 7.43 49400 166000 (2020) 46800 (2017) 101000 48000 49000 98800 149000 157000
2020-12-02 01:45 7.44 49500 166000 (2020) 46800 (2017) 101000 48000 49000 98800 149000 157000
2020-12-02 00:45 7.45 49500 166000 (2020) 46800 (2017) 101000 48000 49000 98800 149000 157000
2020-12-01 23:45 7.49 49700 173000 (2020) 47200 (2017) 98800 48100 48800 87500 154000 163000
2020-12-01 22:45 7.52 49900 173000 (2020) 47200 (2017) 98800 48100 48800 87500 154000 163000
2020-12-01 21:45 7.53 49900 173000 (2020) 47200 (2017) 98800 48100 48800 87500 154000 163000
2020-12-01 20:45 7.53 49900 173000 (2020) 47200 (2017) 98800 48100 48800 87500 154000 163000
2020-12-01 19:45 7.55 50000 173000 (2020) 47200 (2017) 98800 48100 48800 87500 154000 163000
2020-12-01 18:45 7.58 50200 173000 (2020) 47200 (2017) 98800 48100 48800 87500 154000 163000
2020-12-01 17:45 7.59 50200 173000 (2020) 47200 (2017) 98800 48100 48800 87500 154000 163000
2020-12-01 16:45 7.62 50400 173000 (2020) 47200 (2017) 98800 48100 48800 87500 154000 163000
2020-12-01 15:45 7.62 50400 173000 (2020) 47200 (2017) 98800 48100 48800 87500 154000 163000
2020-12-01 14:45 7.65 50500 173000 (2020) 47200 (2017) 98800 48100 48800 87500 154000 163000
2020-12-01 13:45 7.69 50800 173000 (2020) 47200 (2017) 98800 48100 48800 87500 154000 163000
2020-12-01 12:45 7.70 50800 173000 (2020) 47200 (2017) 98800 48100 48800 87500 154000 163000
2020-12-01 11:45 7.72 50900 173000 (2020) 47200 (2017) 98800 48100 48800 87500 154000 163000
2020-12-01 10:45 7.71 50900 173000 (2020) 47200 (2017) 98800 48100 48800 87500 154000 163000
2020-12-01 09:45 7.78 51200 173000 (2020) 47200 (2017) 98800 48100 48800 87500 154000 163000
2020-12-01 08:45 7.80 51300 173000 (2020) 47200 (2017) 98800 48100 48800 87500 154000 163000
2020-12-01 07:45 7.80 51300 173000 (2020) 47200 (2017) 98800 48100 48800 87500 154000 163000
2020-12-01 06:45 7.81 51400 173000 (2020) 47200 (2017) 98800 48100 48800 87500 154000 163000
2020-12-01 05:45 7.84 51500 173000 (2020) 47200 (2017) 98800 48100 48800 87500 154000 163000
2020-12-01 04:45 7.84 51500 173000 (2020) 47200 (2017) 98800 48100 48800 87500 154000 163000
2020-12-01 03:45 7.90 51900 173000 (2020) 47200 (2017) 98800 48100 48800 87500 154000 163000
2020-12-01 02:45 7.92 52000 173000 (2020) 47200 (2017) 98800 48100 48800 87500 154000 163000
2020-12-01 01:45 7.93 52000 173000 (2020) 47200 (2017) 98800 48100 48800 87500 154000 163000
2020-12-01 00:45 7.94 52100 173000 (2020) 47200 (2017) 98800 48100 48800 87500 154000 163000
2020-11-30 23:45 7.98 52300 160000 (2020) 48600 (2017) 95100 49000 49300 83400 149000 154000
2020-11-30 22:45 7.97 52200 160000 (2020) 48600 (2017) 95100 49000 49300 83400 149000 154000
2020-11-30 21:45 8.01 52500 160000 (2020) 48600 (2017) 95100 49000 49300 83400 149000 154000
2020-11-30 20:45 8.02 52500 160000 (2020) 48600 (2017) 95100 49000 49300 83400 149000 154000
2020-11-3